Wetterdaten: Mittwoch, 18.11.2020
Datum Zeit Temp. I. Temp. A. Feuchte I. Feuchte A. Luftdruck Regen Wind Richtung Richtung Sonnenschein Solar Taupunkt Windchill Windböen
18.11.2020 00:00 22,4 °C 10,3 °C 52 % 89 % 1027,1 hPa 0,0 l/m² 7,7 km/h (2 Bft) SW 227 ° 0 min 0 W/m² 8,6 °C 9,4 °C 11,3 km/h (2 Bft)
18.11.2020 00:01 22,4 °C 10,2 °C 52 % 89 % 1027,0 hPa 0,0 l/m² 7,2 km/h (2 Bft) SW 230 ° 0 min 0 W/m² 8,5 °C 9,6 °C 9,7 km/h (2 Bft)
18.11.2020 00:03 22,4 °C 10,3 °C 52 % 88 % 1026,9 hPa 0,0 l/m² 8,9 km/h (2 Bft) SW 226 ° 0 min 0 W/m² 8,4 °C 8,6 °C 12,9 km/h (3 Bft)
18.11.2020 00:05 22,4 °C 10,3 °C 52 % 88 % 1026,9 hPa 0,0 l/m² 8,0 km/h (2 Bft) SW 221 ° 0 min 0 W/m² 8,4 °C 9,2 °C 11,3 km/h (2 Bft)
18.11.2020 00:07 22,4 °C 10,3 °C 52 % 88 % 1027,0 hPa 0,0 l/m² 8,3 km/h (2 Bft) SW 224 ° 0 min 0 W/m² 8,4 °C 9,0 °C 9,7 km/h (2 Bft)
18.11.2020 00:09 22,4 °C 10,3 °C 52 % 88 % 1026,9 hPa 0,0 l/m² 7,8 km/h (2 Bft) SW 230 ° 0 min 0 W/m² 8,4 °C 9,3 °C 9,7 km/h (2 Bft)
18.11.2020 00:10 22,4 °C 10,3 °C 52 % 88 % 1026,8 hPa 0,0 l/m² 8,3 km/h (2 Bft) SW 225 ° 0 min 0 W/m² 8,4 °C 9,0 °C 9,7 km/h (2 Bft)
18.11.2020 00:11 22,4 °C 10,3 °C 52 % 88 % 1026,8 hPa 0,0 l/m² 7,3 km/h (2 Bft) SW 221 ° 0 min 0 W/m² 8,4 °C 9,7 °C 8,0 km/h (2 Bft)
18.11.2020 00:13 22,4 °C 10,3 °C 52 % 88 % 1026,8 hPa 0,0 l/m² 8,3 km/h (2 Bft) SW 215 ° 0 min 0 W/m² 8,4 °C 9,0 °C 9,7 km/h (2 Bft)
18.11.2020 00:14 22,4 °C 10,3 °C 52 % 88 % 1026,8 hPa 0,0 l/m² 8,6 km/h (2 Bft) SW 215 ° 0 min 0 W/m² 8,4 °C 8,8 °C 9,7 km/h (2 Bft)
18.11.2020 00:15 22,4 °C 10,3 °C 52 % 88 % 1026,8 hPa 0,0 l/m² 6,9 km/h (2 Bft) SW 217 ° 0 min 0 W/m² 8,4 °C 9,9 °C 8,0 km/h (2 Bft)
18.11.2020 00:17 22,4 °C 10,3 °C 52 % 88 % 1026,8 hPa 0,0 l/m² 8,2 km/h (2 Bft) SW 229 ° 0 min 0 W/m² 8,4 °C 9,0 °C 9,7 km/h (2 Bft)
18.11.2020 00:19 22,4 °C 10,3 °C 52 % 88 % 1026,8 hPa 0,0 l/m² 8,1 km/h (2 Bft) SW 228 ° 0 min 0 W/m² 8,4 °C 9,1 °C 9,7 km/h (2 Bft)
18.11.2020 00:21 22,4 °C 10,3 °C 52 % 88 % 1026,8 hPa 0,0 l/m² 9,0 km/h (2 Bft) SW 223 ° 0 min 0 W/m² 8,4 °C 8,5 °C 11,3 km/h (2 Bft)
18.11.2020 00:23 22,4 °C 10,3 °C 52 % 88 % 1026,8 hPa 0,0 l/m² 7,8 km/h (2 Bft) SW 221 ° 0 min 0 W/m² 8,4 °C 9,3 °C 9,7 km/h (2 Bft)
18.11.2020 00:25 22,4 °C 10,3 °C 52 % 88 % 1026,7 hPa 0,0 l/m² 7,7 km/h (2 Bft) SW 224 ° 0 min 0 W/m² 8,4 °C 9,4 °C 9,7 km/h (2 Bft)
18.11.2020 00:27 22,4 °C 10,3 °C 52 % 88 % 1026,7 hPa 0,0 l/m² 6,8 km/h (2 Bft) SW 230 ° 0 min 0 W/m² 8,4 °C 10,0 °C 9,7 km/h (2 Bft)
18.11.2020 00:29 22,4 °C 10,3 °C 52 % 89 % 1026,8 hPa 0,0 l/m² 6,5 km/h (2 Bft) SW 234 ° 0 min 0 W/m² 8,6 °C 10,3 °C 8,0 km/h (2 Bft)
18.11.2020 00:31 22,4 °C 10,3 °C 52 % 88 % 1026,8 hPa 0,0 l/m² 6,0 km/h (2 Bft) SW 232 ° 0 min 0 W/m² 8,4 °C 10,3 °C 8,0 km/h (2 Bft)
18.11.2020 00:34 22,4 °C 10,3 °C 52 % 88 % 1026,9 hPa 0,0 l/m² 5,9 km/h (2 Bft) SW 227 ° 0 min 0 W/m² 8,4 °C 10,3 °C 8,0 km/h (2 Bft)
18.11.2020 00:36 22,4 °C 10,3 °C 52 % 89 % 1026,8 hPa 0,0 l/m² 5,7 km/h (2 Bft) SW 227 ° 0 min 0 W/m² 8,6 °C 10,3 °C 6,4 km/h (2 Bft)
18.11.2020 00:38 22,4 °C 10,3 °C 52 % 89 % 1026,9 hPa 0,0 l/m² 5,3 km/h (1 Bft) SW 227 ° 0 min 0 W/m² 8,6 °C 10,3 °C 8,0 km/h (2 Bft)
18.11.2020 00:40 22,4 °C 10,3 °C 52 % 89 % 1026,9 hPa 0,0 l/m² 6,1 km/h (2 Bft) SW 223 ° 0 min 0 W/m² 8,6 °C 10,3 °C 8,0 km/h (2 Bft)
18.11.2020 00:42 22,4 °C 10,2 °C 52 % 89 % 1026,8 hPa 0,0 l/m² 6,1 km/h (2 Bft) SW 226 ° 0 min 0 W/m² 8,5 °C 10,2 °C 8,0 km/h (2 Bft)
18.11.2020 00:43 22,4 °C 10,2 °C 52 % 89 % 1026,8 hPa 0,0 l/m² 6,0 km/h (2 Bft) SW 226 ° 0 min 0 W/m² 8,5 °C 10,2 °C 6,4 km/h (2 Bft)
18.11.2020 00:45 22,4 °C 10,2 °C 52 % 89 % 1026,8 hPa 0,0 l/m² 6,4 km/h (2 Bft) SW 225 ° 0 min 0 W/m² 8,5 °C 10,2 °C 6,4 km/h (2 Bft)
18.11.2020 00:46 22,4 °C 10,2 °C 52 % 89 % 1026,8 hPa 0,0 l/m² 5,9 km/h (2 Bft) SW 224 ° 0 min 0 W/m² 8,5 °C 10,2 °C 8,0 km/h (2 Bft)
18.11.2020 00:48 22,4 °C 10,2 °C 52 % 89 % 1026,8 hPa 0,0 l/m² 5,9 km/h (2 Bft) SW 223 ° 0 min 0 W/m² 8,5 °C 10,2 °C 8,0 km/h (2 Bft)
18.11.2020 00:50 22,4 °C 10,2 °C 52 % 89 % 1026,7 hPa 0,0 l/m² 5,1 km/h (1 Bft) SW 223 ° 0 min 0 W/m² 8,5 °C 10,2 °C 6,4 km/h (2 Bft)
18.11.2020 00:52 22,4 °C 10,2 °C 52 % 89 % 1026,7 hPa 0,0 l/m² 4,9 km/h (1 Bft) SW 223 ° 0 min 0 W/m² 8,5 °C 10,2 °C 6,4 km/h (2 Bft)
18.11.2020 00:53 22,4 °C 10,2 °C 52 % 89 % 1026,7 hPa 0,0 l/m² 6,0 km/h (2 Bft) SW 223 ° 0 min 0 W/m² 8,5 °C 10,2 °C 6,4 km/h (2 Bft)
18.11.2020 00:54 22,4 °C 10,2 °C 52 % 89 % 1026,7 hPa 0,0 l/m² 5,9 km/h (2 Bft) SW 223 ° 0 min 0 W/m² 8,5 °C 10,2 °C 6,4 km/h (2 Bft)
18.11.2020 00:56 22,4 °C 10,2 °C 52 % 89 % 1026,7 hPa 0,0 l/m² 5,8 km/h (2 Bft) SW 230 ° 0 min 0 W/m² 8,5 °C 10,2 °C 8,0 km/h (2 Bft)
18.11.2020 00:58 22,4 °C 10,2 °C 52 % 89 % 1026,5 hPa 0,0 l/m² 6,1 km/h (2 Bft) SW 217 ° 0 min 0 W/m² 8,5 °C 10,2 °C 8,0 km/h (2 Bft)
18.11.2020 01:00 22,4 °C 10,1 °C 52 % 89 % 1026,6 hPa 0,0 l/m² 6,4 km/h (2 Bft) SW 219 ° 0 min 0 W/m² 8,4 °C 10,1 °C 8,0 km/h (2 Bft)
18.11.2020 01:02 22,4 °C 10,1 °C 52 % 89 % 1026,7 hPa 0,0 l/m² 6,4 km/h (2 Bft) SW 231 ° 0 min 0 W/m² 8,4 °C 10,1 °C 8,0 km/h (2 Bft)
18.11.2020 01:03 22,4 °C 10,1 °C 52 % 89 % 1026,7 hPa 0,0 l/m² 5,8 km/h (2 Bft) SW 231 ° 0 min 0 W/m² 8,4 °C 10,1 °C 6,4 km/h (2 Bft)
18.11.2020 01:05 22,4 °C 10,1 °C 52 % 89 % 1026,8 hPa 0,0 l/m² 5,5 km/h (2 Bft) SW 231 ° 0 min 0 W/m² 8,4 °C 10,1 °C 6,4 km/h (2 Bft)
18.11.2020 01:07 22,4 °C 10,1 °C 52 % 89 % 1026,7 hPa 0,0 l/m² 5,3 km/h (1 Bft) SW 227 ° 0 min 0 W/m² 8,4 °C 10,1 °C 6,4 km/h (2 Bft)
18.11.2020 01:09 22,4 °C 10,1 °C 52 % 89 % 1026,7 hPa 0,0 l/m² 5,8 km/h (2 Bft) SW 225 ° 0 min 0 W/m² 8,4 °C 10,1 °C 8,0 km/h (2 Bft)
18.11.2020 01:11 22,4 °C 10,1 °C 52 % 89 % 1026,7 hPa 0,0 l/m² 5,2 km/h (1 Bft) W-SW 238 ° 0 min 0 W/m² 8,4 °C 10,1 °C 6,4 km/h (2 Bft)
18.11.2020 01:12 22,4 °C 10,1 °C 52 % 89 % 1026,8 hPa 0,0 l/m² 6,1 km/h (2 Bft) SW 234 ° 0 min 0 W/m² 8,4 °C 10,1 °C 8,0 km/h (2 Bft)
18.11.2020 01:13 22,4 °C 10,1 °C 52 % 89 % 1026,7 hPa 0,0 l/m² 5,4 km/h (2 Bft) SW 232 ° 0 min 0 W/m² 8,4 °C 10,1 °C 6,4 km/h (2 Bft)
18.11.2020 01:14 22,4 °C 10,1 °C 52 % 89 % 1026,8 hPa 0,0 l/m² 5,1 km/h (1 Bft) W-SW 240 ° 0 min 0 W/m² 8,4 °C 10,1 °C 8,0 km/h (2 Bft)
18.11.2020 01:16 22,4 °C 10,1 °C 52 % 89 % 1026,7 hPa 0,0 l/m² 4,2 km/h (1 Bft) W-SW 239 ° 0 min 0 W/m² 8,4 °C 10,1 °C 6,4 km/h (2 Bft)
18.11.2020 01:18 22,4 °C 10,1 °C 52 % 89 % 1026,8 hPa 0,0 l/m² 5,4 km/h (2 Bft) W-SW 240 ° 0 min 0 W/m² 8,4 °C 10,1 °C 6,4 km/h (2 Bft)
18.11.2020 01:20 22,4 °C 10,1 °C 52 % 89 % 1026,9 hPa 0,0 l/m² 5,4 km/h (2 Bft) W-SW 242 ° 0 min 0 W/m² 8,4 °C 10,1 °C 6,4 km/h (2 Bft)
18.11.2020 01:22 22,4 °C 10,1 °C 52 % 89 % 1026,9 hPa 0,0 l/m² 5,4 km/h (2 Bft) W-SW 245 ° 0 min 0 W/m² 8,4 °C 10,1 °C 6,4 km/h (2 Bft)
18.11.2020 01:23 22,4 °C 10,1 °C 52 % 89 % 1026,9 hPa 0,0 l/m² 5,6 km/h (2 Bft) W-SW 244 ° 0 min 0 W/m² 8,4 °C 10,1 °C 6,4 km/h (2 Bft)
18.11.2020 01:25 22,4 °C 10,1 °C 52 % 89 % 1026,9 hPa 0,0 l/m² 4,5 km/h (1 Bft) W-SW 246 ° 0 min 0 W/m² 8,4 °C 10,1 °C 6,4 km/h (2 Bft)
18.11.2020 01:27 22,4 °C 10,1 °C 52 % 89 % 1026,9 hPa 0,0 l/m² 5,4 km/h (2 Bft) W-SW 250 ° 0 min 0 W/m² 8,4 °C 10,1 °C 6,4 km/h (2 Bft)
18.11.2020 01:29 22,4 °C 10,2 °C 52 % 89 % 1027,0 hPa 0,0 l/m² 6,1 km/h (2 Bft) SW 229 ° 0 min 0 W/m² 8,5 °C 10,2 °C 8,0 km/h (2 Bft)
18.11.2020 01:31 22,4 °C 10,2 °C 52 % 89 % 1027,0 hPa 0,0 l/m² 6,5 km/h (2 Bft) SW 227 ° 0 min 0 W/m² 8,5 °C 10,2 °C 9,7 km/h (2 Bft)
18.11.2020 01:32 22,4 °C 10,1 °C 52 % 89 % 1026,9 hPa 0,0 l/m² 7,0 km/h (2 Bft) SW 232 ° 0 min 0 W/m² 8,4 °C 9,7 °C 8,0 km/h (2 Bft)
18.11.2020 01:33 22,4 °C 10,2 °C 52 % 89 % 1026,9 hPa 0,0 l/m² 6,8 km/h (2 Bft) SW 219 ° 0 min 0 W/m² 8,5 °C 9,9 °C 8,0 km/h (2 Bft)
18.11.2020 01:34 22,4 °C 10,2 °C 52 % 89 % 1026,9 hPa 0,0 l/m² 7,3 km/h (2 Bft) SW 223 ° 0 min 0 W/m² 8,5 °C 9,6 °C 8,0 km/h (2 Bft)
18.11.2020 01:36 22,4 °C 10,2 °C 52 % 89 % 1026,9 hPa 0,0 l/m² 7,4 km/h (2 Bft) SW 227 ° 0 min 0 W/m² 8,5 °C 9,5 °C 9,7 km/h (2 Bft)
18.11.2020 01:38 22,4 °C 10,2 °C 52 % 89 % 1026,8 hPa 0,0 l/m² 7,1 km/h (2 Bft) SW 224 ° 0 min 0 W/m² 8,5 °C 9,7 °C 9,7 km/h (2 Bft)
18.11.2020 01:40 22,4 °C 10,2 °C 52 % 89 % 1026,8 hPa 0,0 l/m² 7,8 km/h (2 Bft) SW 223 ° 0 min 0 W/m² 8,5 °C 9,2 °C 9,7 km/h (2 Bft)
18.11.2020 01:42 22,4 °C 10,2 °C 52 % 88 % 1026,8 hPa 0,0 l/m² 8,5 km/h (2 Bft) SW 224 ° 0 min 0 W/m² 8,3 °C 8,7 °C 11,3 km/h (2 Bft)
18.11.2020 01:43 22,4 °C 10,2 °C 52 % 89 % 1026,8 hPa 0,0 l/m² 8,7 km/h (2 Bft) SW 227 ° 0 min 0 W/m² 8,5 °C 8,6 °C 11,3 km/h (2 Bft)
18.11.2020 01:45 22,4 °C 10,2 °C 52 % 89 % 1026,8 hPa 0,0 l/m² 9,1 km/h (2 Bft) SW 223 ° 0 min 0 W/m² 8,5 °C 8,4 °C 11,3 km/h (2 Bft)
18.11.2020 01:47 22,4 °C 10,2 °C 52 % 88 % 1026,7 hPa 0,0 l/m² 7,5 km/h (2 Bft) SW 215 ° 0 min 0 W/m² 8,3 °C 9,4 °C 11,3 km/h (2 Bft)
18.11.2020 01:49 22,4 °C 10,2 °C 52 % 88 % 1026,7 hPa 0,0 l/m² 7,9 km/h (2 Bft) S-SW 207 ° 0 min 0 W/m² 8,3 °C 9,1 °C 9,7 km/h (2 Bft)
18.11.2020 01:51 22,4 °C 10,2 °C 52 % 89 % 1026,8 hPa 0,0 l/m² 7,4 km/h (2 Bft) S-SW 202 ° 0 min 0 W/m² 8,5 °C 9,5 °C 9,7 km/h (2 Bft)
18.11.2020 01:52 22,4 °C 10,2 °C 52 % 89 % 1026,8 hPa 0,0 l/m² 7,3 km/h (2 Bft) S-SW 207 ° 0 min 0 W/m² 8,5 °C 9,6 °C 9,7 km/h (2 Bft)
18.11.2020 01:53 22,4 °C 10,2 °C 52 % 89 % 1026,8 hPa 0,0 l/m² 6,4 km/h (2 Bft) SW 215 ° 0 min 0 W/m² 8,5 °C 10,2 °C 8,0 km/h (2 Bft)
18.11.2020 01:54 22,4 °C 10,2 °C 52 % 89 % 1026,8 hPa 0,0 l/m² 6,4 km/h (2 Bft) SW 217 ° 0 min 0 W/m² 8,5 °C 10,2 °C 8,0 km/h (2 Bft)
18.11.2020 01:56 22,4 °C 10,2 °C 52 % 88 % 1026,8 hPa 0,0 l/m² 6,7 km/h (2 Bft) SW 215 ° 0 min 0 W/m² 8,3 °C 10,0 °C 8,0 km/h (2 Bft)
18.11.2020 01:58 22,4 °C 10,2 °C 52 % 89 % 1026,7 hPa 0,0 l/m² 7,4 km/h (2 Bft) SW 217 ° 0 min 0 W/m² 8,5 °C 9,5 °C 9,7 km/h (2 Bft)
18.11.2020 02:00 22,4 °C 10,2 °C 52 % 89 % 1026,8 hPa 0,0 l/m² 6,4 km/h (2 Bft) SW 219 ° 0 min 0 W/m² 8,5 °C 10,2 °C 8,0 km/h (2 Bft)
18.11.2020 02:02 22,4 °C 10,2 °C 52 % 89 % 1026,7 hPa 0,0 l/m² 5,5 km/h (2 Bft) W-SW 246 ° 0 min 0 W/m² 8,5 °C 10,2 °C 6,4 km/h (2 Bft)
18.11.2020 02:03 22,4 °C 10,2 °C 52 % 88 % 1026,7 hPa 0,0 l/m² 3,5 km/h (1 Bft) W-SW 241 ° 0 min 0 W/m² 8,3 °C 10,2 °C 4,8 km/h (1 Bft)
18.11.2020 02:05 22,4 °C 10,2 °C 52 % 88 % 1026,7 hPa 0,0 l/m² 4,9 km/h (1 Bft) SW 233 ° 0 min 0 W/m² 8,3 °C 10,2 °C 6,4 km/h (2 Bft)
18.11.2020 02:07 22,4 °C 10,2 °C 52 % 88 % 1026,8 hPa 0,0 l/m² 5,3 km/h (1 Bft) SW 228 ° 0 min 0 W/m² 8,3 °C 10,2 °C 8,0 km/h (2 Bft)
18.11.2020 02:09 22,4 °C 10,2 °C 52 % 88 % 1026,8 hPa 0,0 l/m² 6,8 km/h (2 Bft) SW 221 ° 0 min 0 W/m² 8,3 °C 9,9 °C 9,7 km/h (2 Bft)
18.11.2020 02:11 22,4 °C 10,2 °C 52 % 88 % 1026,9 hPa 0,0 l/m² 7,7 km/h (2 Bft) SW 225 ° 0 min 0 W/m² 8,3 °C 9,3 °C 9,7 km/h (2 Bft)
18.11.2020 02:12 22,4 °C 10,2 °C 52 % 88 % 1026,9 hPa 0,0 l/m² 6,0 km/h (2 Bft) SW 225 ° 0 min 0 W/m² 8,3 °C 10,2 °C 8,0 km/h (2 Bft)
18.11.2020 02:13 22,4 °C 10,2 °C 52 % 88 % 1027,0 hPa 0,0 l/m² 7,2 km/h (2 Bft) SW 225 ° 0 min 0 W/m² 8,3 °C 9,6 °C 8,0 km/h (2 Bft)
18.11.2020 02:14 22,4 °C 10,2 °C 52 % 88 % 1027,0 hPa 0,0 l/m² 6,2 km/h (2 Bft) SW 215 ° 0 min 0 W/m² 8,3 °C 10,2 °C 6,4 km/h (2 Bft)
18.11.2020 02:16 22,4 °C 10,2 °C 52 % 88 % 1027,0 hPa 0,0 l/m² 6,2 km/h (2 Bft) SW 222 ° 0 min 0 W/m² 8,3 °C 10,2 °C 8,0 km/h (2 Bft)
18.11.2020 02:18 22,4 °C 10,2 °C 52 % 88 % 1026,9 hPa 0,0 l/m² 6,7 km/h (2 Bft) SW 224 ° 0 min 0 W/m² 8,3 °C 10,0 °C 9,7 km/h (2 Bft)
18.11.2020 02:20 22,4 °C 10,3 °C 52 % 88 % 1027,0 hPa 0,0 l/m² 6,4 km/h (2 Bft) SW 221 ° 0 min 0 W/m² 8,4 °C 10,3 °C 9,7 km/h (2 Bft)
18.11.2020 02:22 22,4 °C 10,2 °C 52 % 88 % 1026,9 hPa 0,0 l/m² 6,3 km/h (2 Bft) SW 231 ° 0 min 0 W/m² 8,3 °C 10,2 °C 8,0 km/h (2 Bft)
18.11.2020 02:23 22,4 °C 10,2 °C 52 % 88 % 1026,9 hPa 0,0 l/m² 6,4 km/h (2 Bft) SW 228 ° 0 min 0 W/m² 8,3 °C 10,2 °C 8,0 km/h (2 Bft)
18.11.2020 02:25 22,4 °C 10,2 °C 52 % 88 % 1026,9 hPa 0,0 l/m² 5,6 km/h (2 Bft) SW 220 ° 0 min 0 W/m² 8,3 °C 10,2 °C 8,0 km/h (2 Bft)
18.11.2020 02:27 22,4 °C 10,3 °C 52 % 88 % 1026,9 hPa 0,0 l/m² 6,6 km/h (2 Bft) SW 220 ° 0 min 0 W/m² 8,4 °C 10,2 °C 9,7 km/h (2 Bft)
18.11.2020 02:29 22,4 °C 10,3 °C 52 % 88 % 1026,8 hPa 0,0 l/m² 6,8 km/h (2 Bft) SW 224 ° 0 min 0 W/m² 8,4 °C 10,0 °C 9,7 km/h (2 Bft)
18.11.2020 02:31 22,4 °C 10,3 °C 52 % 88 % 1026,8 hPa 0,0 l/m² 5,9 km/h (2 Bft) SW 230 ° 0 min 0 W/m² 8,4 °C 10,3 °C 8,0 km/h (2 Bft)
18.11.2020 02:32 22,4 °C 10,2 °C 52 % 88 % 1026,9 hPa 0,0 l/m² 5,3 km/h (1 Bft) SW 232 ° 0 min 0 W/m² 8,3 °C 10,2 °C 6,4 km/h (2 Bft)
18.11.2020 02:33 22,3 °C 10,3 °C 52 % 88 % 1026,9 hPa 0,0 l/m² 5,4 km/h (2 Bft) SW 226 ° 0 min 0 W/m² 8,4 °C 10,3 °C 8,0 km/h (2 Bft)
18.11.2020 02:34 22,4 °C 10,3 °C 52 % 88 % 1026,9 hPa 0,0 l/m² 4,4 km/h (1 Bft) SW 226 ° 0 min 0 W/m² 8,4 °C 10,3 °C 4,8 km/h (1 Bft)
18.11.2020 02:36 22,4 °C 10,3 °C 52 % 88 % 1026,9 hPa 0,0 l/m² 4,4 km/h (1 Bft) SW 226 ° 0 min 0 W/m² 8,4 °C 10,3 °C 6,4 km/h (2 Bft)
18.11.2020 02:38 22,4 °C 10,3 °C 52 % 88 % 1026,7 hPa 0,0 l/m² 4,3 km/h (1 Bft) SW 226 ° 0 min 0 W/m² 8,4 °C 10,3 °C 6,4 km/h (2 Bft)
18.11.2020 02:40 22,4 °C 10,3 °C 52 % 88 % 1026,8 hPa 0,0 l/m² 4,8 km/h (1 Bft) SW 223 ° 0 min 0 W/m² 8,4 °C 10,3 °C 6,4 km/h (2 Bft)
18.11.2020 02:42 22,4 °C 10,3 °C 52 % 88 % 1026,8 hPa 0,0 l/m² 4,3 km/h (1 Bft) SW 227 ° 0 min 0 W/m² 8,4 °C 10,3 °C 6,4 km/h (2 Bft)
18.11.2020 02:43 22,4 °C 10,3 °C 52 % 88 % 1026,8 hPa 0,0 l/m² 4,2 km/h (1 Bft) W-SW 238 ° 0 min 0 W/m² 8,4 °C 10,3 °C 4,8 km/h (1 Bft)
18.11.2020 02:45 22,4 °C 10,3 °C 52 % 88 % 1027,0 hPa 0,0 l/m² 4,2 km/h (1 Bft) W-SW 238 ° 0 min 0 W/m² 8,4 °C 10,3 °C 4,8 km/h (1 Bft)
18.11.2020 02:47 22,3 °C 10,3 °C 52 % 88 % 1026,9 hPa 0,0 l/m² 4,2 km/h (1 Bft) SW 235 ° 0 min 0 W/m² 8,4 °C 10,3 °C 4,8 km/h (1 Bft)
18.11.2020 02:49 22,4 °C 10,2 °C 52 % 88 % 1026,9 hPa 0,0 l/m² 3,5 km/h (1 Bft) SW 235 ° 0 min 0 W/m² 8,3 °C 10,2 °C 4,8 km/h (1 Bft)
18.11.2020 02:51 22,4 °C 10,3 °C 52 % 88 % 1026,8 hPa 0,0 l/m² 3,8 km/h (1 Bft) SW 235 ° 0 min 0 W/m² 8,4 °C 10,3 °C 4,8 km/h (1 Bft)
18.11.2020 02:52 22,4 °C 10,3 °C 52 % 88 % 1026,8 hPa 0,0 l/m² 4,0 km/h (1 Bft) SW 235 ° 0 min 0 W/m² 8,4 °C 10,3 °C 4,8 km/h (1 Bft)
18.11.2020 02:53 22,4 °C 10,3 °C 52 % 88 % 1026,9 hPa 0,0 l/m² 3,5 km/h (1 Bft) SW 232 ° 0 min 0 W/m² 8,4 °C 10,3 °C 4,8 km/h (1 Bft)
18.11.2020 02:54 22,4 °C 10,2 °C 52 % 88 % 1026,9 hPa 0,0 l/m² 3,9 km/h (1 Bft) SW 232 ° 0 min 0 W/m² 8,3 °C 10,2 °C 4,8 km/h (1 Bft)
18.11.2020 02:56 22,3 °C 10,3 °C 52 % 88 % 1026,8 hPa 0,0 l/m² 3,9 km/h (1 Bft) SW 232 ° 0 min 0 W/m² 8,4 °C 10,3 °C 4,8 km/h (1 Bft)
18.11.2020 02:58 22,3 °C 10,3 °C 52 % 88 % 1026,7 hPa 0,0 l/m² 3,8 km/h (1 Bft) SW 232 ° 0 min 0 W/m² 8,4 °C 10,3 °C 6,4 km/h (2 Bft)
18.11.2020 03:00 22,4 °C 10,2 °C 52 % 88 % 1026,8 hPa 0,0 l/m² 4,5 km/h (1 Bft) SW 232 ° 0 min 0 W/m² 8,3 °C 10,2 °C 6,4 km/h (2 Bft)
18.11.2020 03:01 22,3 °C 10,3 °C 52 % 88 % 1026,8 hPa 0,0 l/m² 4,8 km/h (1 Bft) SW 225 ° 0 min 0 W/m² 8,4 °C 10,3 °C 4,8 km/h (1 Bft)
18.11.2020 03:07 22,3 °C 10,2 °C 52 % 88 % 1026,9 hPa 0,0 l/m² 3,3 km/h (1 Bft) SW 228 ° 0 min 0 W/m² 8,3 °C 10,2 °C 4,8 km/h (1 Bft)
18.11.2020 03:09 22,3 °C 10,2 °C 52 % 88 % 1026,9 hPa 0,0 l/m² 3,7 km/h (1 Bft) SW 228 ° 0 min 0 W/m² 8,3 °C 10,2 °C 6,4 km/h (2 Bft)
18.11.2020 03:11 22,3 °C 10,2 °C 52 % 88 % 1026,8 hPa 0,0 l/m² 3,6 km/h (1 Bft) SW 228 ° 0 min 0 W/m² 8,3 °C 10,2 °C 4,8 km/h (1 Bft)
18.11.2020 03:13 22,3 °C 10,2 °C 52 % 88 % 1026,9 hPa 0,0 l/m² 4,1 km/h (1 Bft) SW 228 ° 0 min 0 W/m² 8,3 °C 10,2 °C 4,8 km/h (1 Bft)
18.11.2020 03:14 22,3 °C 10,2 °C 52 % 88 % 1026,9 hPa 0,0 l/m² 4,1 km/h (1 Bft) SW 228 ° 0 min 0 W/m² 8,3 °C 10,2 °C 4,8 km/h (1 Bft)
18.11.2020 03:15 22,3 °C 10,2 °C 52 % 88 % 1026,9 hPa 0,0 l/m² 3,2 km/h (1 Bft) SW 225 ° 0 min 0 W/m² 8,3 °C 10,2 °C 6,4 km/h (2 Bft)
18.11.2020 03:16 22,3 °C 10,2 °C 52 % 88 % 1026,9 hPa 0,0 l/m² 3,2 km/h (1 Bft) SW 225 ° 0 min 0 W/m² 8,3 °C 10,2 °C 4,8 km/h (1 Bft)
18.11.2020 03:22 22,3 °C 10,2 °C 52 % 88 % 1027,0 hPa 0,0 l/m² 4,1 km/h (1 Bft) SW 228 ° 0 min 0 W/m² 8,3 °C 10,2 °C 4,8 km/h (1 Bft)
18.11.2020 03:24 22,3 °C 10,2 °C 52 % 88 % 1026,9 hPa 0,0 l/m² 4,3 km/h (1 Bft) SW 228 ° 0 min 0 W/m² 8,3 °C 10,2 °C 6,4 km/h (2 Bft)
18.11.2020 03:25 22,3 °C 10,2 °C 52 % 88 % 1026,9 hPa 0,0 l/m² 4,2 km/h (1 Bft) SW 232 ° 0 min 0 W/m² 8,3 °C 10,2 °C 6,4 km/h (2 Bft)
18.11.2020 03:27 22,3 °C 10,2 °C 52 % 88 % 1027,0 hPa 0,0 l/m² 4,8 km/h (1 Bft) SW 234 ° 0 min 0 W/m² 8,3 °C 10,2 °C 6,4 km/h (2 Bft)
18.11.2020 03:29 22,3 °C 10,2 °C 52 % 88 % 1026,9 hPa 0,0 l/m² 4,2 km/h (1 Bft) SW 234 ° 0 min 0 W/m² 8,3 °C 10,2 °C 4,8 km/h (1 Bft)
18.11.2020 03:30 22,3 °C 10,2 °C 52 % 88 % 1026,9 hPa 0,0 l/m² 4,5 km/h (1 Bft) SW 234 ° 0 min 0 W/m² 8,3 °C 10,2 °C 4,8 km/h (1 Bft)
18.11.2020 03:31 22,3 °C 10,2 °C 52 % 88 % 1027,0 hPa 0,0 l/m² 4,7 km/h (1 Bft) SW 234 ° 0 min 0 W/m² 8,3 °C 10,2 °C 6,4 km/h (2 Bft)
18.11.2020 03:33 22,3 °C 10,2 °C 52 % 88 % 1027,0 hPa 0,0 l/m² 4,3 km/h (1 Bft) SW 234 ° 0 min 0 W/m² 8,3 °C 10,2 °C 6,4 km/h (2 Bft)
18.11.2020 03:35 22,3 °C 10,2 °C 52 % 88 % 1027,0 hPa 0,0 l/m² 3,4 km/h (1 Bft) SW 234 ° 0 min 0 W/m² 8,3 °C 10,2 °C 4,8 km/h (1 Bft)
18.11.2020 03:37 22,3 °C 10,2 °C 52 % 88 % 1027,0 hPa 0,0 l/m² 2,6 km/h (1 Bft) SW 234 ° 0 min 0 W/m² 8,3 °C 10,2 °C 4,8 km/h (1 Bft)
18.11.2020 03:39 22,3 °C 10,2 °C 52 % 88 % 1026,9 hPa 0,0 l/m² 2,1 km/h (1 Bft) SW 234 ° 0 min 0 W/m² 8,3 °C 10,2 °C 3,2 km/h (1 Bft)
18.11.2020 03:40 22,3 °C 10,2 °C 52 % 88 % 1026,9 hPa 0,0 l/m² 1,9 km/h (1 Bft) SW 234 ° 0 min 0 W/m² 8,3 °C 10,2 °C 3,2 km/h (1 Bft)
18.11.2020 03:41 22,3 °C 10,2 °C 52 % 88 % 1026,9 hPa 0,0 l/m² 1,8 km/h (1 Bft) SW 234 ° 0 min 0 W/m² 8,3 °C 10,2 °C 3,2 km/h (1 Bft)
18.11.2020 03:43 22,3 °C 10,2 °C 52 % 88 % 1026,9 hPa 0,0 l/m² 2,8 km/h (1 Bft) SW 234 ° 0 min 0 W/m² 8,3 °C 10,2 °C 3,2 km/h (1 Bft)
18.11.2020 03:45 22,3 °C 10,1 °C 52 % 88 % 1026,9 hPa 0,0 l/m² 2,5 km/h (1 Bft) SW 234 ° 0 min 0 W/m² 8,2 °C 10,1 °C 4,8 km/h (1 Bft)
18.11.2020 03:47 22,3 °C 10,2 °C 52 % 88 % 1026,9 hPa 0,0 l/m² 3,4 km/h (1 Bft) SW 234 ° 0 min 0 W/m² 8,3 °C 10,2 °C 4,8 km/h (1 Bft)
18.11.2020 03:48 22,3 °C 10,2 °C 52 % 88 % 1026,9 hPa 0,0 l/m² 3,6 km/h (1 Bft) SW 234 ° 0 min 0 W/m² 8,3 °C 10,2 °C 4,8 km/h (1 Bft)
18.11.2020 03:50 22,3 °C 10,2 °C 52 % 88 % 1027,0 hPa 0,0 l/m² 3,8 km/h (1 Bft) SW 234 ° 0 min 0 W/m² 8,3 °C 10,2 °C 4,8 km/h (1 Bft)
18.11.2020 03:51 22,3 °C 10,2 °C 52 % 88 % 1027,0 hPa 0,0 l/m² 3,9 km/h (1 Bft) SW 234 ° 0 min 0 W/m² 8,3 °C 10,2 °C 4,8 km/h (1 Bft)
18.11.2020 03:52 22,3 °C 10,2 °C 52 % 88 % 1027,0 hPa 0,0 l/m² 3,7 km/h (1 Bft) SW 234 ° 0 min 0 W/m² 8,3 °C 10,2 °C 4,8 km/h (1 Bft)
18.11.2020 03:54 22,3 °C 10,2 °C 52 % 88 % 1027,0 hPa 0,0 l/m² 3,8 km/h (1 Bft) SW 234 ° 0 min 0 W/m² 8,3 °C 10,2 °C 4,8 km/h (1 Bft)
18.11.2020 03:56 22,3 °C 10,2 °C 52 % 88 % 1027,0 hPa 0,0 l/m² 3,9 km/h (1 Bft) SW 234 ° 0 min 0 W/m² 8,3 °C 10,2 °C 4,8 km/h (1 Bft)
18.11.2020 03:58 22,3 °C 10,2 °C 52 % 88 % 1026,9 hPa 0,0 l/m² 4,1 km/h (1 Bft) SW 234 ° 0 min 0 W/m² 8,3 °C 10,2 °C 4,8 km/h (1 Bft)
18.11.2020 04:00 22,3 °C 10,1 °C 52 % 88 % 1026,9 hPa 0,0 l/m² 3,5 km/h (1 Bft) SW 234 ° 0 min 0 W/m² 8,2 °C 10,1 °C 4,8 km/h (1 Bft)
18.11.2020 04:01 22,3 °C 10,1 °C 52 % 88 % 1027,0 hPa 0,0 l/m² 3,5 km/h (1 Bft) SW 234 ° 0 min 0 W/m² 8,2 °C 10,1 °C 4,8 km/h (1 Bft)
18.11.2020 04:02 22,3 °C 10,1 °C 52 % 88 % 1027,0 hPa 0,0 l/m² 4,2 km/h (1 Bft) SW 234 ° 0 min 0 W/m² 8,2 °C 10,1 °C 4,8 km/h (1 Bft)
18.11.2020 04:03 22,3 °C 10,1 °C 52 % 88 % 1027,0 hPa 0,0 l/m² 3,6 km/h (1 Bft) SW 234 ° 0 min 0 W/m² 8,2 °C 10,1 °C 4,8 km/h (1 Bft)
18.11.2020 04:05 22,3 °C 10,1 °C 52 % 88 % 1027,1 hPa 0,0 l/m² 4,2 km/h (1 Bft) SW 234 ° 0 min 0 W/m² 8,2 °C 10,1 °C 6,4 km/h (2 Bft)
18.11.2020 04:07 22,3 °C 10,1 °C 52 % 88 % 1027,0 hPa 0,0 l/m² 4,0 km/h (1 Bft) SW 234 ° 0 min 0 W/m² 8,2 °C 10,1 °C 4,8 km/h (1 Bft)
18.11.2020 04:09 22,3 °C 10,1 °C 52 % 88 % 1027,0 hPa 0,0 l/m² 4,2 km/h (1 Bft) SW 234 ° 0 min 0 W/m² 8,2 °C 10,1 °C 4,8 km/h (1 Bft)
18.11.2020 04:10 22,3 °C 10,1 °C 52 % 88 % 1027,0 hPa 0,0 l/m² 4,1 km/h (1 Bft) SW 234 ° 0 min 0 W/m² 8,2 °C 10,1 °C 6,4 km/h (2 Bft)
18.11.2020 04:11 22,3 °C 10,1 °C 52 % 88 % 1027,0 hPa 0,0 l/m² 4,7 km/h (1 Bft) SW 234 ° 0 min 0 W/m² 8,2 °C 10,1 °C 4,8 km/h (1 Bft)
18.11.2020 04:13 22,3 °C 10,1 °C 52 % 88 % 1027,0 hPa 0,0 l/m² 4,8 km/h (1 Bft) SW 232 ° 0 min 0 W/m² 8,2 °C 10,1 °C 6,4 km/h (2 Bft)
18.11.2020 04:15 22,3 °C 10,1 °C 52 % 88 % 1027,1 hPa 0,0 l/m² 5,1 km/h (1 Bft) SW 226 ° 0 min 0 W/m² 8,2 °C 10,1 °C 6,4 km/h (2 Bft)
18.11.2020 04:17 22,3 °C 10,1 °C 52 % 88 % 1027,1 hPa 0,0 l/m² 5,5 km/h (2 Bft) SW 224 ° 0 min 0 W/m² 8,2 °C 10,1 °C 6,4 km/h (2 Bft)
18.11.2020 04:19 22,3 °C 10,1 °C 52 % 88 % 1027,1 hPa 0,0 l/m² 4,7 km/h (1 Bft) SW 222 ° 0 min 0 W/m² 8,2 °C 10,1 °C 6,4 km/h (2 Bft)
18.11.2020 04:20 22,3 °C 10,1 °C 52 % 88 % 1027,0 hPa 0,0 l/m² 4,1 km/h (1 Bft) SW 222 ° 0 min 0 W/m² 8,2 °C 10,1 °C 4,8 km/h (1 Bft)
18.11.2020 04:21 22,3 °C 10,1 °C 52 % 88 % 1027,0 hPa 0,0 l/m² 4,8 km/h (1 Bft) SW 217 ° 0 min 0 W/m² 8,2 °C 10,1 °C 6,4 km/h (2 Bft)
18.11.2020 04:22 22,3 °C 10,1 °C 52 % 88 % 1027,0 hPa 0,0 l/m² 5,1 km/h (1 Bft) SW 216 ° 0 min 0 W/m² 8,2 °C 10,1 °C 6,4 km/h (2 Bft)
18.11.2020 04:23 22,3 °C 10,1 °C 52 % 88 % 1027,0 hPa 0,0 l/m² 5,4 km/h (2 Bft) S-SW 211 ° 0 min 0 W/m² 8,2 °C 10,1 °C 6,4 km/h (2 Bft)
18.11.2020 04:25 22,3 °C 10,1 °C 52 % 88 % 1026,9 hPa 0,0 l/m² 5,1 km/h (1 Bft) S-SW 210 ° 0 min 0 W/m² 8,2 °C 10,1 °C 6,4 km/h (2 Bft)
18.11.2020 04:27 22,3 °C 10,1 °C 52 % 88 % 1026,8 hPa 0,0 l/m² 5,0 km/h (1 Bft) S-SW 210 ° 0 min 0 W/m² 8,2 °C 10,1 °C 6,4 km/h (2 Bft)
18.11.2020 04:29 22,3 °C 10,0 °C 52 % 88 % 1026,8 hPa 0,0 l/m² 5,0 km/h (1 Bft) S-SW 210 ° 0 min 0 W/m² 8,1 °C 10,0 °C 6,4 km/h (2 Bft)
18.11.2020 04:30 22,3 °C 10,0 °C 52 % 88 % 1026,8 hPa 0,0 l/m² 5,7 km/h (2 Bft) S-SW 210 ° 0 min 0 W/m² 8,1 °C 10,0 °C 8,0 km/h (2 Bft)
18.11.2020 04:31 22,3 °C 10,0 °C 52 % 88 % 1026,8 hPa 0,0 l/m² 4,8 km/h (1 Bft) S-SW 210 ° 0 min 0 W/m² 8,1 °C 10,0 °C 4,8 km/h (1 Bft)
18.11.2020 04:33 22,3 °C 10,0 °C 52 % 88 % 1026,8 hPa 0,0 l/m² 5,2 km/h (1 Bft) S-SW 213 ° 0 min 0 W/m² 8,1 °C 10,0 °C 8,0 km/h (2 Bft)
18.11.2020 04:35 22,3 °C 9,9 °C 52 % 89 % 1026,9 hPa 0,0 l/m² 4,6 km/h (1 Bft) SW 216 ° 0 min 0 W/m² 8,2 °C 9,9 °C 6,4 km/h (2 Bft)
18.11.2020 04:37 22,3 °C 9,9 °C 52 % 89 % 1026,9 hPa 0,0 l/m² 4,5 km/h (1 Bft) SW 216 ° 0 min 0 W/m² 8,2 °C 9,9 °C 6,4 km/h (2 Bft)
18.11.2020 04:39 22,3 °C 9,9 °C 52 % 89 % 1026,8 hPa 0,0 l/m² 4,6 km/h (1 Bft) S-SW 213 ° 0 min 0 W/m² 8,2 °C 9,9 °C 6,4 km/h (2 Bft)
18.11.2020 04:40 22,3 °C 9,9 °C 52 % 89 % 1026,9 hPa 0,0 l/m² 4,6 km/h (1 Bft) S-SW 213 ° 0 min 0 W/m² 8,2 °C 9,9 °C 6,4 km/h (2 Bft)
18.11.2020 04:41 22,3 °C 9,9 °C 52 % 89 % 1026,9 hPa 0,0 l/m² 4,1 km/h (1 Bft) S-SW 213 ° 0 min 0 W/m² 8,2 °C 9,9 °C 4,8 km/h (1 Bft)
18.11.2020 04:43 22,3 °C 9,9 °C 52 % 89 % 1026,9 hPa 0,0 l/m² 5,3 km/h (1 Bft) S-SW 209 ° 0 min 0 W/m² 8,2 °C 9,9 °C 8,0 km/h (2 Bft)
18.11.2020 04:45 22,3 °C 9,9 °C 52 % 89 % 1026,8 hPa 0,0 l/m² 5,5 km/h (2 Bft) S-SW 210 ° 0 min 0 W/m² 8,2 °C 9,9 °C 6,4 km/h (2 Bft)
18.11.2020 04:47 22,3 °C 9,9 °C 52 % 89 % 1026,9 hPa 0,0 l/m² 6,0 km/h (2 Bft) S-SW 207 ° 0 min 0 W/m² 8,2 °C 9,9 °C 8,0 km/h (2 Bft)
18.11.2020 04:49 22,3 °C 9,9 °C 52 % 89 % 1026,9 hPa 0,0 l/m² 6,9 km/h (2 Bft) S-SW 211 ° 0 min 0 W/m² 8,2 °C 9,5 °C 8,0 km/h (2 Bft)
18.11.2020 04:50 22,3 °C 9,9 °C 51 % 89 % 1026,9 hPa 0,0 l/m² 7,0 km/h (2 Bft) S-SW 207 ° 0 min 0 W/m² 8,2 °C 9,5 °C 8,0 km/h (2 Bft)
18.11.2020 04:51 22,3 °C 9,9 °C 51 % 89 % 1026,9 hPa 0,0 l/m² 8,0 km/h (2 Bft) S-SW 203 ° 0 min 0 W/m² 8,2 °C 8,7 °C 9,7 km/h (2 Bft)
18.11.2020 04:52 22,3 °C 9,9 °C 52 % 89 % 1026,9 hPa 0,0 l/m² 6,4 km/h (2 Bft) S-SW 210 ° 0 min 0 W/m² 8,2 °C 9,9 °C 9,7 km/h (2 Bft)
18.11.2020 04:53 22,3 °C 9,9 °C 52 % 89 % 1026,9 hPa 0,0 l/m² 7,3 km/h (2 Bft) S-SW 208 ° 0 min 0 W/m² 8,2 °C 9,2 °C 9,7 km/h (2 Bft)
18.11.2020 04:55 22,3 °C 9,9 °C 52 % 89 % 1026,9 hPa 0,0 l/m² 8,2 km/h (2 Bft) S-SW 206 ° 0 min 0 W/m² 8,2 °C 8,6 °C 9,7 km/h (2 Bft)
18.11.2020 04:57 22,3 °C 9,9 °C 52 % 89 % 1026,9 hPa 0,0 l/m² 8,7 km/h (2 Bft) S-SW 205 ° 0 min 0 W/m² 8,2 °C 8,3 °C 11,3 km/h (2 Bft)
18.11.2020 04:59 22,3 °C 9,9 °C 51 % 89 % 1026,8 hPa 0,0 l/m² 8,2 km/h (2 Bft) S-SW 209 ° 0 min 0 W/m² 8,2 °C 8,6 °C 9,7 km/h (2 Bft)
18.11.2020 05:00 22,3 °C 9,9 °C 52 % 89 % 1026,8 hPa 0,0 l/m² 7,3 km/h (2 Bft) S-SW 208 ° 0 min 0 W/m² 8,2 °C 9,2 °C 8,0 km/h (2 Bft)
18.11.2020 05:01 22,3 °C 9,9 °C 52 % 89 % 1026,8 hPa 0,0 l/m² 6,6 km/h (2 Bft) S-SW 208 ° 0 min 0 W/m² 8,2 °C 9,8 °C 8,0 km/h (2 Bft)
18.11.2020 05:02 22,3 °C 9,9 °C 52 % 89 % 1026,9 hPa 0,0 l/m² 5,7 km/h (2 Bft) S-SW 209 ° 0 min 0 W/m² 8,2 °C 9,9 °C 8,0 km/h (2 Bft)
18.11.2020 05:03 22,3 °C 9,9 °C 52 % 89 % 1026,8 hPa 0,0 l/m² 6,2 km/h (2 Bft) S-SW 210 ° 0 min 0 W/m² 8,2 °C 9,9 °C 8,0 km/h (2 Bft)
18.11.2020 05:05 22,3 °C 10,0 °C 52 % 89 % 1026,8 hPa 0,0 l/m² 6,5 km/h (2 Bft) S-SW 213 ° 0 min 0 W/m² 8,3 °C 10,0 °C 8,0 km/h (2 Bft)
18.11.2020 05:07 22,3 °C 10,0 °C 51 % 89 % 1026,7 hPa 0,0 l/m² 6,0 km/h (2 Bft) S-SW 212 ° 0 min 0 W/m² 8,3 °C 10,0 °C 8,0 km/h (2 Bft)
18.11.2020 05:09 22,3 °C 10,0 °C 52 % 89 % 1026,8 hPa 0,0 l/m² 6,5 km/h (2 Bft) SW 219 ° 0 min 0 W/m² 8,3 °C 10,0 °C 8,0 km/h (2 Bft)
18.11.2020 05:10 22,3 °C 10,0 °C 51 % 89 % 1026,7 hPa 0,0 l/m² 7,9 km/h (2 Bft) S-SW 206 ° 0 min 0 W/m² 8,3 °C 8,9 °C 11,3 km/h (2 Bft)
18.11.2020 05:11 22,3 °C 10,0 °C 52 % 89 % 1026,7 hPa 0,0 l/m² 7,7 km/h (2 Bft) SW 215 ° 0 min 0 W/m² 8,3 °C 9,1 °C 9,7 km/h (2 Bft)
18.11.2020 05:12 22,3 °C 10,0 °C 51 % 89 % 1026,8 hPa 0,0 l/m² 6,8 km/h (2 Bft) S-SW 203 ° 0 min 0 W/m² 8,3 °C 9,7 °C 9,7 km/h (2 Bft)
18.11.2020 05:13 22,3 °C 9,9 °C 51 % 89 % 1026,8 hPa 0,0 l/m² 6,9 km/h (2 Bft) S-SW 213 ° 0 min 0 W/m² 8,2 °C 9,5 °C 9,7 km/h (2 Bft)
18.11.2020 05:15 22,3 °C 9,9 °C 51 % 89 % 1026,8 hPa 0,0 l/m² 6,4 km/h (2 Bft) S-SW 207 ° 0 min 0 W/m² 8,2 °C 9,9 °C 11,3 km/h (2 Bft)
18.11.2020 05:17 22,3 °C 10,0 °C 51 % 89 % 1026,8 hPa 0,0 l/m² 5,7 km/h (2 Bft) SW 219 ° 0 min 0 W/m² 8,3 °C 10,0 °C 8,0 km/h (2 Bft)
18.11.2020 05:19 22,3 °C 10,0 °C 51 % 89 % 1026,8 hPa 0,0 l/m² 4,3 km/h (1 Bft) SW 219 ° 0 min 0 W/m² 8,3 °C 10,0 °C 6,4 km/h (2 Bft)
18.11.2020 05:20 22,3 °C 10,0 °C 51 % 89 % 1026,7 hPa 0,0 l/m² 4,6 km/h (1 Bft) SW 219 ° 0 min 0 W/m² 8,3 °C 10,0 °C 6,4 km/h (2 Bft)
18.11.2020 05:21 22,3 °C 9,9 °C 51 % 89 % 1026,8 hPa 0,0 l/m² 5,2 km/h (1 Bft) S-SW 205 ° 0 min 0 W/m² 8,2 °C 9,9 °C 6,4 km/h (2 Bft)
18.11.2020 05:22 22,3 °C 10,0 °C 51 % 89 % 1026,8 hPa 0,0 l/m² 5,1 km/h (1 Bft) S-SW 205 ° 0 min 0 W/m² 8,3 °C 10,0 °C 6,4 km/h (2 Bft)
18.11.2020 05:23 22,3 °C 10,0 °C 51 % 89 % 1026,8 hPa 0,0 l/m² 4,8 km/h (1 Bft) SW 214 ° 0 min 0 W/m² 8,3 °C 10,0 °C 6,4 km/h (2 Bft)
18.11.2020 05:25 22,3 °C 10,0 °C 51 % 89 % 1026,8 hPa 0,0 l/m² 5,6 km/h (2 Bft) S-SW 206 ° 0 min 0 W/m² 8,3 °C 10,0 °C 6,4 km/h (2 Bft)
18.11.2020 05:27 22,3 °C 10,0 °C 51 % 89 % 1026,7 hPa 0,0 l/m² 5,9 km/h (2 Bft) S-SW 199 ° 0 min 0 W/m² 8,3 °C 10,0 °C 8,0 km/h (2 Bft)
18.11.2020 05:29 22,3 °C 9,9 °C 51 % 89 % 1026,8 hPa 0,0 l/m² 4,6 km/h (1 Bft) S-SW 199 ° 0 min 0 W/m² 8,2 °C 9,9 °C 8,0 km/h (2 Bft)
18.11.2020 05:30 22,3 °C 10,0 °C 51 % 89 % 1026,7 hPa 0,0 l/m² 3,3 km/h (1 Bft) S-SW 199 ° 0 min 0 W/m² 8,3 °C 10,0 °C 4,8 km/h (1 Bft)
18.11.2020 05:31 22,3 °C 10,0 °C 51 % 89 % 1026,8 hPa 0,0 l/m² 3,4 km/h (1 Bft) S-SW 198 ° 0 min 0 W/m² 8,3 °C 10,0 °C 4,8 km/h (1 Bft)
18.11.2020 05:32 22,3 °C 10,0 °C 51 % 89 % 1026,8 hPa 0,0 l/m² 4,0 km/h (1 Bft) S-SW 198 ° 0 min 0 W/m² 8,3 °C 10,0 °C 6,4 km/h (2 Bft)
18.11.2020 05:33 22,3 °C 10,0 °C 51 % 89 % 1026,7 hPa 0,0 l/m² 5,3 km/h (1 Bft) S-SW 199 ° 0 min 0 W/m² 8,3 °C 10,0 °C 6,4 km/h (2 Bft)
18.11.2020 05:35 22,3 °C 10,0 °C 51 % 89 % 1026,7 hPa 0,0 l/m² 4,4 km/h (1 Bft) S-SW 198 ° 0 min 0 W/m² 8,3 °C 10,0 °C 6,4 km/h (2 Bft)
18.11.2020 05:37 22,3 °C 10,0 °C 51 % 89 % 1026,7 hPa 0,0 l/m² 2,8 km/h (1 Bft) S-SW 198 ° 0 min 0 W/m² 8,3 °C 10,0 °C 4,8 km/h (1 Bft)
18.11.2020 05:39 22,3 °C 9,9 °C 51 % 89 % 1026,7 hPa 0,0 l/m² 4,8 km/h (1 Bft) S-SW 192 ° 0 min 0 W/m² 8,2 °C 9,9 °C 6,4 km/h (2 Bft)
18.11.2020 05:40 22,3 °C 9,9 °C 51 % 89 % 1026,7 hPa 0,0 l/m² 5,6 km/h (2 Bft) S 186 ° 0 min 0 W/m² 8,2 °C 9,9 °C 8,0 km/h (2 Bft)
18.11.2020 05:41 22,3 °C 9,9 °C 51 % 89 % 1026,7 hPa 0,0 l/m² 6,3 km/h (2 Bft) S 185 ° 0 min 0 W/m² 8,2 °C 9,9 °C 6,4 km/h (2 Bft)
18.11.2020 05:42 22,3 °C 9,9 °C 51 % 89 % 1026,7 hPa 0,0 l/m² 6,1 km/h (2 Bft) S 184 ° 0 min 0 W/m² 8,2 °C 9,9 °C 8,0 km/h (2 Bft)
18.11.2020 05:43 22,3 °C 9,9 °C 51 % 89 % 1026,7 hPa 0,0 l/m² 5,5 km/h (2 Bft) S 184 ° 0 min 0 W/m² 8,2 °C 9,9 °C 6,4 km/h (2 Bft)
18.11.2020 05:45 22,3 °C 9,9 °C 51 % 89 % 1026,7 hPa 0,0 l/m² 5,7 km/h (2 Bft) S 188 ° 0 min 0 W/m² 8,2 °C 9,9 °C 8,0 km/h (2 Bft)
18.11.2020 05:47 22,3 °C 9,9 °C 51 % 89 % 1026,6 hPa 0,0 l/m² 5,1 km/h (1 Bft) S 188 ° 0 min 0 W/m² 8,2 °C 9,9 °C 6,4 km/h (2 Bft)
18.11.2020 05:49 22,3 °C 9,9 °C 51 % 89 % 1026,7 hPa 0,0 l/m² 4,7 km/h (1 Bft) S 188 ° 0 min 0 W/m² 8,2 °C 9,9 °C 8,0 km/h (2 Bft)
18.11.2020 05:50 22,3 °C 9,9 °C 51 % 89 % 1026,7 hPa 0,0 l/m² 4,7 km/h (1 Bft) S 188 ° 0 min 0 W/m² 8,2 °C 9,9 °C 6,4 km/h (2 Bft)
18.11.2020 05:51 22,3 °C 9,9 °C 51 % 89 % 1026,7 hPa 0,0 l/m² 4,0 km/h (1 Bft) S 188 ° 0 min 0 W/m² 8,2 °C 9,9 °C 4,8 km/h (1 Bft)
18.11.2020 05:52 22,3 °C 9,9 °C 51 % 89 % 1026,7 hPa 0,0 l/m² 3,9 km/h (1 Bft) S 188 ° 0 min 0 W/m² 8,2 °C 9,9 °C 6,4 km/h (2 Bft)
18.11.2020 05:53 22,3 °C 9,9 °C 51 % 89 % 1026,7 hPa 0,0 l/m² 2,7 km/h (1 Bft) S 188 ° 0 min 0 W/m² 8,2 °C 9,9 °C 4,8 km/h (1 Bft)
18.11.2020 05:55 22,3 °C 9,9 °C 51 % 89 % 1026,6 hPa 0,0 l/m² 2,8 km/h (1 Bft) S 188 ° 0 min 0 W/m² 8,2 °C 9,9 °C 4,8 km/h (1 Bft)
18.11.2020 05:57 22,3 °C 9,8 °C 51 % 89 % 1026,5 hPa 0,0 l/m² 2,0 km/h (1 Bft) S 188 ° 0 min 0 W/m² 8,1 °C 9,8 °C 4,8 km/h (1 Bft)
18.11.2020 05:59 22,3 °C 9,8 °C 51 % 89 % 1026,5 hPa 0,0 l/m² 3,1 km/h (1 Bft) S 188 ° 0 min 0 W/m² 8,1 °C 9,8 °C 4,8 km/h (1 Bft)
18.11.2020 06:00 22,3 °C 9,8 °C 51 % 89 % 1026,5 hPa 0,0 l/m² 3,2 km/h (1 Bft) S 188 ° 0 min 0 W/m² 8,1 °C 9,8 °C 4,8 km/h (1 Bft)
18.11.2020 06:01 22,3 °C 9,8 °C 51 % 89 % 1026,5 hPa 0,0 l/m² 4,3 km/h (1 Bft) S 188 ° 0 min 0 W/m² 8,1 °C 9,8 °C 6,4 km/h (2 Bft)
18.11.2020 06:02 22,3 °C 9,8 °C 51 % 89 % 1026,6 hPa 0,0 l/m² 2,5 km/h (1 Bft) S 188 ° 0 min 0 W/m² 8,1 °C 9,8 °C 3,2 km/h (1 Bft)
18.11.2020 06:03 22,3 °C 9,8 °C 51 % 89 % 1026,5 hPa 0,0 l/m² 2,6 km/h (1 Bft) S 188 ° 0 min 0 W/m² 8,1 °C 9,8 °C 4,8 km/h (1 Bft)
18.11.2020 06:05 22,3 °C 9,8 °C 51 % 89 % 1026,6 hPa 0,0 l/m² 1,7 km/h (1 Bft) S 188 ° 0 min 0 W/m² 8,1 °C 9,8 °C 3,2 km/h (1 Bft)
18.11.2020 06:07 22,3 °C 9,8 °C 51 % 89 % 1026,5 hPa 0,0 l/m² 0,9 km/h (0 Bft) S 188 ° 0 min 0 W/m² 8,1 °C 9,8 °C 3,2 km/h (1 Bft)
18.11.2020 06:09 22,3 °C 9,8 °C 51 % 88 % 1026,8 hPa 0,0 l/m² 0,8 km/h (0 Bft) S 188 ° 0 min 0 W/m² 7,9 °C 9,8 °C 1,6 km/h (1 Bft)
18.11.2020 06:10 22,3 °C 9,8 °C 51 % 89 % 1026,7 hPa 0,0 l/m² 1,3 km/h (1 Bft) S 188 ° 0 min 0 W/m² 8,1 °C 9,8 °C 1,6 km/h (1 Bft)
18.11.2020 06:11 22,3 °C 9,8 °C 51 % 89 % 1026,7 hPa 0,0 l/m² 2,5 km/h (1 Bft) S 188 ° 0 min 0 W/m² 8,1 °C 9,8 °C 4,8 km/h (1 Bft)
18.11.2020 06:12 22,3 °C 9,8 °C 51 % 88 % 1026,7 hPa 0,0 l/m² 2,7 km/h (1 Bft) S 188 ° 0 min 0 W/m² 7,9 °C 9,8 °C 4,8 km/h (1 Bft)
18.11.2020 06:13 22,3 °C 9,8 °C 51 % 88 % 1026,7 hPa 0,0 l/m² 3,0 km/h (1 Bft) S 188 ° 0 min 0 W/m² 7,9 °C 9,8 °C 4,8 km/h (1 Bft)
18.11.2020 06:15 22,3 °C 9,8 °C 51 % 88 % 1026,8 hPa 0,0 l/m² 3,4 km/h (1 Bft) S 188 ° 0 min 0 W/m² 7,9 °C 9,8 °C 4,8 km/h (1 Bft)
18.11.2020 06:17 22,3 °C 9,8 °C 51 % 88 % 1026,8 hPa 0,0 l/m² 2,9 km/h (1 Bft) S 188 ° 0 min 0 W/m² 7,9 °C 9,8 °C 4,8 km/h (1 Bft)
18.11.2020 06:19 22,3 °C 9,8 °C 51 % 88 % 1026,9 hPa 0,0 l/m² 2,6 km/h (1 Bft) S 188 ° 0 min 0 W/m² 7,9 °C 9,8 °C 4,8 km/h (1 Bft)
18.11.2020 06:20 22,3 °C 9,8 °C 51 % 88 % 1026,9 hPa 0,0 l/m² 2,9 km/h (1 Bft) S 188 ° 0 min 0 W/m² 7,9 °C 9,8 °C 3,2 km/h (1 Bft)
18.11.2020 06:21 22,3 °C 9,7 °C 51 % 88 % 1026,9 hPa 0,0 l/m² 3,2 km/h (1 Bft) S 188 ° 0 min 0 W/m² 7,8 °C 9,7 °C 4,8 km/h (1 Bft)
18.11.2020 06:22 22,3 °C 9,7 °C 51 % 88 % 1026,8 hPa 0,0 l/m² 2,5 km/h (1 Bft) S 188 ° 0 min 0 W/m² 7,8 °C 9,7 °C 3,2 km/h (1 Bft)
18.11.2020 06:23 22,3 °C 9,7 °C 51 % 88 % 1026,8 hPa 0,0 l/m² 3,2 km/h (1 Bft) S 188 ° 0 min 0 W/m² 7,8 °C 9,7 °C 4,8 km/h (1 Bft)
18.11.2020 06:25 22,3 °C 9,7 °C 51 % 89 % 1026,9 hPa 0,0 l/m² 3,2 km/h (1 Bft) S 188 ° 0 min 0 W/m² 8,0 °C 9,7 °C 4,8 km/h (1 Bft)
18.11.2020 06:27 22,3 °C 9,7 °C 51 % 88 % 1026,9 hPa 0,0 l/m² 3,4 km/h (1 Bft) S 188 ° 0 min 0 W/m² 7,8 °C 9,7 °C 4,8 km/h (1 Bft)
18.11.2020 06:29 22,3 °C 9,7 °C 51 % 88 % 1026,9 hPa 0,0 l/m² 3,5 km/h (1 Bft) S 188 ° 0 min 0 W/m² 7,8 °C 9,7 °C 6,4 km/h (2 Bft)
18.11.2020 06:30 22,3 °C 9,7 °C 51 % 88 % 1026,8 hPa 0,0 l/m² 3,1 km/h (1 Bft) S 188 ° 0 min 0 W/m² 7,8 °C 9,7 °C 4,8 km/h (1 Bft)
18.11.2020 06:31 22,3 °C 9,7 °C 51 % 88 % 1026,8 hPa 0,0 l/m² 2,2 km/h (1 Bft) S 188 ° 0 min 0 W/m² 7,8 °C 9,7 °C 3,2 km/h (1 Bft)
18.11.2020 06:32 22,3 °C 9,7 °C 51 % 88 % 1026,8 hPa 0,0 l/m² 2,0 km/h (1 Bft) S 188 ° 0 min 0 W/m² 7,8 °C 9,7 °C 3,2 km/h (1 Bft)
18.11.2020 06:33 22,3 °C 9,7 °C 51 % 88 % 1026,9 hPa 0,0 l/m² 2,1 km/h (1 Bft) S 188 ° 0 min 0 W/m² 7,8 °C 9,7 °C 3,2 km/h (1 Bft)
18.11.2020 06:35 22,3 °C 9,7 °C 51 % 88 % 1026,8 hPa 0,0 l/m² 3,1 km/h (1 Bft) S 188 ° 0 min 0 W/m² 7,8 °C 9,7 °C 4,8 km/h (1 Bft)
18.11.2020 06:37 22,3 °C 9,7 °C 51 % 88 % 1026,9 hPa 0,0 l/m² 2,2 km/h (1 Bft) S 188 ° 0 min 0 W/m² 7,8 °C 9,7 °C 3,2 km/h (1 Bft)
18.11.2020 06:39 22,3 °C 9,7 °C 51 % 88 % 1026,9 hPa 0,0 l/m² 2,6 km/h (1 Bft) S 188 ° 0 min 0 W/m² 7,8 °C 9,7 °C 4,8 km/h (1 Bft)
18.11.2020 06:40 22,3 °C 9,7 °C 51 % 88 % 1026,9 hPa 0,0 l/m² 3,1 km/h (1 Bft) S 188 ° 0 min 0 W/m² 7,8 °C 9,7 °C 4,8 km/h (1 Bft)
18.11.2020 06:41 22,3 °C 9,6 °C 51 % 88 % 1026,9 hPa 0,0 l/m² 3,0 km/h (1 Bft) S 188 ° 0 min 0 W/m² 7,7 °C 9,6 °C 4,8 km/h (1 Bft)
18.11.2020 06:42 22,3 °C 9,6 °C 51 % 88 % 1026,9 hPa 0,0 l/m² 2,5 km/h (1 Bft) S 188 ° 0 min 0 W/m² 7,7 °C 9,6 °C 3,2 km/h (1 Bft)
18.11.2020 06:43 22,3 °C 9,6 °C 51 % 88 % 1026,9 hPa 0,0 l/m² 3,4 km/h (1 Bft) S 188 ° 0 min 0 W/m² 7,7 °C 9,6 °C 4,8 km/h (1 Bft)
18.11.2020 06:45 22,3 °C 9,6 °C 51 % 88 % 1026,8 hPa 0,0 l/m² 3,9 km/h (1 Bft) S 188 ° 0 min 0 W/m² 7,7 °C 9,6 °C 4,8 km/h (1 Bft)
18.11.2020 06:47 22,3 °C 9,6 °C 51 % 88 % 1026,8 hPa 0,0 l/m² 4,5 km/h (1 Bft) S 188 ° 0 min 0 W/m² 7,7 °C 9,6 °C 6,4 km/h (2 Bft)
18.11.2020 06:48 22,3 °C 9,6 °C 51 % 88 % 1026,8 hPa 0,0 l/m² 3,5 km/h (1 Bft) S 188 ° 0 min 0 W/m² 7,7 °C 9,6 °C 4,8 km/h (1 Bft)
18.11.2020 06:50 22,3 °C 9,6 °C 51 % 88 % 1026,8 hPa 0,0 l/m² 3,9 km/h (1 Bft) S 188 ° 0 min 0 W/m² 7,7 °C 9,6 °C 4,8 km/h (1 Bft)
18.11.2020 06:51 22,3 °C 9,6 °C 51 % 88 % 1026,8 hPa 0,0 l/m² 1,3 km/h (1 Bft) S 188 ° 0 min 0 W/m² 7,7 °C 9,6 °C 3,2 km/h (1 Bft)
18.11.2020 06:52 22,3 °C 9,6 °C 51 % 88 % 1026,9 hPa 0,0 l/m² 1,2 km/h (1 Bft) S 188 ° 0 min 0 W/m² 7,7 °C 9,6 °C 1,6 km/h (1 Bft)
18.11.2020 06:54 22,3 °C 9,6 °C 51 % 88 % 1026,9 hPa 0,0 l/m² 0,7 km/h (0 Bft) S 188 ° 0 min 0 W/m² 7,7 °C 9,6 °C 3,2 km/h (1 Bft)
18.11.2020 06:56 22,3 °C 9,6 °C 51 % 88 % 1026,8 hPa 0,0 l/m² 2,5 km/h (1 Bft) S 188 ° 0 min 0 W/m² 7,7 °C 9,6 °C 4,8 km/h (1 Bft)
18.11.2020 06:58 22,3 °C 9,6 °C 51 % 88 % 1026,8 hPa 0,0 l/m² 3,5 km/h (1 Bft) S 188 ° 0 min 0 W/m² 7,7 °C 9,6 °C 4,8 km/h (1 Bft)
18.11.2020 07:00 22,3 °C 9,6 °C 52 % 88 % 1026,8 hPa 0,0 l/m² 3,6 km/h (1 Bft) S 188 ° 0 min 0 W/m² 7,7 °C 9,6 °C 4,8 km/h (1 Bft)
18.11.2020 07:01 22,3 °C 9,6 °C 52 % 88 % 1026,8 hPa 0,0 l/m² 4,0 km/h (1 Bft) S 188 ° 0 min 0 W/m² 7,7 °C 9,6 °C 4,8 km/h (1 Bft)
18.11.2020 07:02 22,3 °C 9,6 °C 52 % 88 % 1026,9 hPa 0,0 l/m² 3,6 km/h (1 Bft) S 188 ° 0 min 0 W/m² 7,7 °C 9,6 °C 4,8 km/h (1 Bft)
18.11.2020 07:04 22,3 °C 9,6 °C 52 % 88 % 1026,9 hPa 0,0 l/m² 3,1 km/h (1 Bft) S 188 ° 0 min 0 W/m² 7,7 °C 9,6 °C 4,8 km/h (1 Bft)
18.11.2020 07:06 22,3 °C 9,6 °C 51 % 88 % 1026,9 hPa 0,0 l/m² 3,1 km/h (1 Bft) S 188 ° 0 min 0 W/m² 7,7 °C 9,6 °C 4,8 km/h (1 Bft)
18.11.2020 07:08 22,4 °C 9,6 °C 51 % 88 % 1026,9 hPa 0,0 l/m² 4,3 km/h (1 Bft) S 188 ° 0 min 0 W/m² 7,7 °C 9,6 °C 6,4 km/h (2 Bft)
18.11.2020 07:10 22,4 °C 9,6 °C 51 % 88 % 1026,9 hPa 0,0 l/m² 4,6 km/h (1 Bft) S 188 ° 0 min 0 W/m² 7,7 °C 9,6 °C 6,4 km/h (2 Bft)
18.11.2020 07:11 22,4 °C 9,6 °C 51 % 88 % 1026,9 hPa 0,0 l/m² 5,4 km/h (2 Bft) S 188 ° 0 min 0 W/m² 7,7 °C 9,6 °C 6,4 km/h (2 Bft)
18.11.2020 07:12 22,4 °C 9,6 °C 51 % 88 % 1026,8 hPa 0,0 l/m² 5,4 km/h (2 Bft) S 188 ° 0 min 0 W/m² 7,7 °C 9,6 °C 6,4 km/h (2 Bft)
18.11.2020 07:13 22,4 °C 9,6 °C 51 % 88 % 1026,8 hPa 0,0 l/m² 4,9 km/h (1 Bft) S 188 ° 0 min 0 W/m² 7,7 °C 9,6 °C 6,4 km/h (2 Bft)
18.11.2020 07:15 22,3 °C 9,6 °C 51 % 88 % 1026,8 hPa 0,0 l/m² 3,9 km/h (1 Bft) S 188 ° 0 min 0 W/m² 7,7 °C 9,6 °C 6,4 km/h (2 Bft)
18.11.2020 07:17 22,3 °C 9,6 °C 51 % 88 % 1026,9 hPa 0,0 l/m² 4,3 km/h (1 Bft) S 188 ° 0 min 0 W/m² 7,7 °C 9,6 °C 6,4 km/h (2 Bft)
18.11.2020 07:19 22,3 °C 9,6 °C 51 % 88 % 1026,9 hPa 0,0 l/m² 4,9 km/h (1 Bft) S 188 ° 0 min 0 W/m² 7,7 °C 9,6 °C 6,4 km/h (2 Bft)
18.11.2020 07:20 22,3 °C 9,6 °C 51 % 88 % 1026,7 hPa 0,0 l/m² 4,7 km/h (1 Bft) S 188 ° 0 min 0 W/m² 7,7 °C 9,6 °C 6,4 km/h (2 Bft)
18.11.2020 07:21 22,3 °C 9,6 °C 51 % 88 % 1026,8 hPa 0,0 l/m² 3,8 km/h (1 Bft) S 188 ° 0 min 0 W/m² 7,7 °C 9,6 °C 4,8 km/h (1 Bft)
18.11.2020 07:22 22,3 °C 9,6 °C 51 % 88 % 1026,8 hPa 0,0 l/m² 3,9 km/h (1 Bft) S 188 ° 0 min 0 W/m² 7,7 °C 9,6 °C 4,8 km/h (1 Bft)
18.11.2020 07:23 22,3 °C 9,6 °C 51 % 88 % 1026,8 hPa 0,0 l/m² 4,5 km/h (1 Bft) S 188 ° 0 min 0 W/m² 7,7 °C 9,6 °C 6,4 km/h (2 Bft)
18.11.2020 07:25 22,3 °C 9,6 °C 49 % 88 % 1026,8 hPa 0,0 l/m² 3,9 km/h (1 Bft) S 188 ° 0 min 0 W/m² 7,7 °C 9,6 °C 4,8 km/h (1 Bft)
18.11.2020 07:27 22,3 °C 9,6 °C 45 % 88 % 1026,8 hPa 0,0 l/m² 4,4 km/h (1 Bft) S 188 ° 0 min 0 W/m² 7,7 °C 9,6 °C 6,4 km/h (2 Bft)
18.11.2020 07:29 22,1 °C 9,6 °C 44 % 88 % 1026,7 hPa 0,0 l/m² 4,1 km/h (1 Bft) S 188 ° 0 min 0 W/m² 7,7 °C 9,6 °C 6,4 km/h (2 Bft)
18.11.2020 07:30 21,9 °C 9,6 °C 43 % 88 % 1026,7 hPa 0,0 l/m² 3,9 km/h (1 Bft) S 188 ° 0 min 0 W/m² 7,7 °C 9,6 °C 4,8 km/h (1 Bft)
18.11.2020 07:31 21,8 °C 9,6 °C 43 % 88 % 1026,8 hPa 0,0 l/m² 4,8 km/h (1 Bft) S 188 ° 0 min 0 W/m² 7,7 °C 9,6 °C 6,4 km/h (2 Bft)
18.11.2020 07:32 21,8 °C 9,6 °C 43 % 88 % 1026,7 hPa 0,0 l/m² 4,5 km/h (1 Bft) S 188 ° 0 min 0 W/m² 7,7 °C 9,6 °C 6,4 km/h (2 Bft)
18.11.2020 07:33 21,8 °C 9,6 °C 43 % 88 % 1026,7 hPa 0,0 l/m² 5,0 km/h (1 Bft) S 188 ° 0 min 0 W/m² 7,7 °C 9,6 °C 6,4 km/h (2 Bft)
18.11.2020 07:35 21,6 °C 9,6 °C 43 % 88 % 1026,7 hPa 0,0 l/m² 4,8 km/h (1 Bft) S 188 ° 0 min 0 W/m² 7,7 °C 9,6 °C 6,4 km/h (2 Bft)
18.11.2020 07:37 21,4 °C 9,6 °C 43 % 88 % 1026,6 hPa 0,0 l/m² 4,7 km/h (1 Bft) S 188 ° 0 min 0 W/m² 7,7 °C 9,6 °C 6,4 km/h (2 Bft)
18.11.2020 07:39 21,2 °C 9,6 °C 43 % 88 % 1026,7 hPa 0,0 l/m² 4,0 km/h (1 Bft) S 188 ° 0 min 0 W/m² 7,7 °C 9,6 °C 4,8 km/h (1 Bft)
18.11.2020 07:40 21,2 °C 9,6 °C 43 % 88 % 1026,7 hPa 0,0 l/m² 3,1 km/h (1 Bft) S 188 ° 0 min 0 W/m² 7,7 °C 9,6 °C 3,2 km/h (1 Bft)
18.11.2020 07:41 21,2 °C 9,6 °C 43 % 88 % 1026,7 hPa 0,0 l/m² 3,4 km/h (1 Bft) S 188 ° 0 min 0 W/m² 7,7 °C 9,6 °C 4,8 km/h (1 Bft)
18.11.2020 07:42 21,1 °C 9,6 °C 44 % 88 % 1026,7 hPa 0,0 l/m² 2,9 km/h (1 Bft) S 188 ° 0 min 0 W/m² 7,7 °C 9,6 °C 3,2 km/h (1 Bft)
18.11.2020 07:43 21,0 °C 9,6 °C 43 % 88 % 1026,7 hPa 0,0 l/m² 2,7 km/h (1 Bft) S 188 ° 0 min 0 W/m² 7,7 °C 9,6 °C 4,8 km/h (1 Bft)
18.11.2020 07:45 20,9 °C 9,6 °C 43 % 88 % 1026,8 hPa 0,0 l/m² 2,3 km/h (1 Bft) S 188 ° 0 min 5 W/m² 7,7 °C 9,6 °C 3,2 km/h (1 Bft)
18.11.2020 07:47 20,7 °C 9,6 °C 44 % 88 % 1026,7 hPa 0,0 l/m² 3,6 km/h (1 Bft) S 188 ° 0 min 5 W/m² 7,7 °C 9,6 °C 6,4 km/h (2 Bft)
18.11.2020 07:49 20,6 °C 9,5 °C 44 % 87 % 1026,7 hPa 0,0 l/m² 4,2 km/h (1 Bft) S 188 ° 0 min 5 W/m² 7,4 °C 9,5 °C 6,4 km/h (2 Bft)
18.11.2020 07:50 20,6 °C 9,6 °C 44 % 87 % 1026,7 hPa 0,0 l/m² 4,6 km/h (1 Bft) S 188 ° 0 min 5 W/m² 7,5 °C 9,6 °C 6,4 km/h (2 Bft)
18.11.2020 07:51 20,6 °C 9,6 °C 44 % 87 % 1026,7 hPa 0,0 l/m² 3,9 km/h (1 Bft) S 188 ° 0 min 7 W/m² 7,5 °C 9,6 °C 4,8 km/h (1 Bft)
18.11.2020 07:52 20,5 °C 9,6 °C 44 % 87 % 1026,7 hPa 0,0 l/m² 4,5 km/h (1 Bft) S 188 ° 0 min 7 W/m² 7,5 °C 9,6 °C 4,8 km/h (1 Bft)
18.11.2020 07:53 20,4 °C 9,5 °C 44 % 87 % 1026,7 hPa 0,0 l/m² 3,6 km/h (1 Bft) S 188 ° 0 min 7 W/m² 7,4 °C 9,5 °C 4,8 km/h (1 Bft)
18.11.2020 07:55 20,3 °C 9,5 °C 44 % 87 % 1026,7 hPa 0,0 l/m² 4,1 km/h (1 Bft) S 188 ° 0 min 9 W/m² 7,4 °C 9,5 °C 4,8 km/h (1 Bft)
18.11.2020 07:57 20,3 °C 9,6 °C 44 % 87 % 1026,7 hPa 0,0 l/m² 3,6 km/h (1 Bft) S 188 ° 0 min 11 W/m² 7,5 °C 9,6 °C 4,8 km/h (1 Bft)
18.11.2020 07:59 20,2 °C 9,5 °C 45 % 87 % 1026,7 hPa 0,0 l/m² 3,3 km/h (1 Bft) S 188 ° 0 min 11 W/m² 7,4 °C 9,5 °C 4,8 km/h (1 Bft)
18.11.2020 08:00 20,2 °C 9,6 °C 45 % 87 % 1026,5 hPa 0,0 l/m² 3,5 km/h (1 Bft) S 188 ° 0 min 12 W/m² 7,5 °C 9,6 °C 4,8 km/h (1 Bft)
18.11.2020 08:01 20,2 °C 9,5 °C 45 % 87 % 1026,5 hPa 0,0 l/m² 3,9 km/h (1 Bft) S 188 ° 0 min 12 W/m² 7,4 °C 9,5 °C 6,4 km/h (2 Bft)
18.11.2020 08:02 20,2 °C 9,5 °C 45 % 87 % 1026,6 hPa 0,0 l/m² 4,5 km/h (1 Bft) S 188 ° 0 min 12 W/m² 7,4 °C 9,5 °C 6,4 km/h (2 Bft)
18.11.2020 08:03 20,2 °C 9,5 °C 45 % 87 % 1026,5 hPa 0,0 l/m² 5,1 km/h (1 Bft) S 188 ° 0 min 14 W/m² 7,4 °C 9,5 °C 6,4 km/h (2 Bft)
18.11.2020 08:05 20,2 °C 9,5 °C 45 % 87 % 1026,4 hPa 0,0 l/m² 4,9 km/h (1 Bft) S 188 ° 0 min 14 W/m² 7,4 °C 9,5 °C 8,0 km/h (2 Bft)
18.11.2020 08:07 20,2 °C 9,5 °C 45 % 87 % 1026,5 hPa 0,0 l/m² 5,9 km/h (2 Bft) S 188 ° 0 min 16 W/m² 7,4 °C 9,5 °C 8,0 km/h (2 Bft)
18.11.2020 08:09 20,2 °C 9,5 °C 46 % 87 % 1026,5 hPa 0,0 l/m² 6,8 km/h (2 Bft) S 188 ° 0 min 16 W/m² 7,4 °C 9,2 °C 8,0 km/h (2 Bft)
18.11.2020 08:10 20,3 °C 9,5 °C 46 % 87 % 1026,5 hPa 0,0 l/m² 6,0 km/h (2 Bft) S 188 ° 0 min 16 W/m² 7,4 °C 9,5 °C 8,0 km/h (2 Bft)
18.11.2020 08:11 20,3 °C 9,5 °C 46 % 87 % 1026,5 hPa 0,0 l/m² 4,8 km/h (1 Bft) S 188 ° 0 min 18 W/m² 7,4 °C 9,5 °C 6,4 km/h (2 Bft)
18.11.2020 08:12 20,3 °C 9,5 °C 46 % 87 % 1026,5 hPa 0,0 l/m² 5,2 km/h (1 Bft) S 188 ° 0 min 19 W/m² 7,4 °C 9,5 °C 6,4 km/h (2 Bft)
18.11.2020 08:13 20,4 °C 9,6 °C 46 % 87 % 1026,5 hPa 0,0 l/m² 5,6 km/h (2 Bft) S 188 ° 0 min 19 W/m² 7,5 °C 9,6 °C 6,4 km/h (2 Bft)
18.11.2020 08:15 20,4 °C 9,5 °C 46 % 87 % 1026,5 hPa 0,0 l/m² 4,6 km/h (1 Bft) S 184 ° 0 min 21 W/m² 7,4 °C 9,5 °C 6,4 km/h (2 Bft)
18.11.2020 08:17 20,4 °C 9,5 °C 46 % 87 % 1026,5 hPa 0,0 l/m² 4,6 km/h (1 Bft) S 183 ° 0 min 25 W/m² 7,4 °C 9,5 °C 6,4 km/h (2 Bft)
18.11.2020 08:19 20,5 °C 9,5 °C 46 % 87 % 1026,5 hPa 0,0 l/m² 3,6 km/h (1 Bft) S 183 ° 0 min 28 W/m² 7,4 °C 9,5 °C 4,8 km/h (1 Bft)
18.11.2020 08:20 20,6 °C 9,6 °C 46 % 87 % 1026,5 hPa 0,0 l/m² 4,0 km/h (1 Bft) S 183 ° 0 min 30 W/m² 7,5 °C 9,6 °C 4,8 km/h (1 Bft)
18.11.2020 08:21 20,6 °C 9,5 °C 46 % 87 % 1026,5 hPa 0,0 l/m² 2,6 km/h (1 Bft) S 183 ° 0 min 30 W/m² 7,4 °C 9,5 °C 3,2 km/h (1 Bft)
18.11.2020 08:22 20,6 °C 9,5 °C 46 % 87 % 1026,6 hPa 0,0 l/m² 3,8 km/h (1 Bft) S 178 ° 0 min 30 W/m² 7,4 °C 9,5 °C 4,8 km/h (1 Bft)
18.11.2020 08:23 20,6 °C 9,5 °C 46 % 87 % 1026,5 hPa 0,0 l/m² 4,6 km/h (1 Bft) S 172 ° 0 min 30 W/m² 7,4 °C 9,5 °C 8,0 km/h (2 Bft)
18.11.2020 08:25 20,7 °C 9,5 °C 46 % 87 % 1026,5 hPa 0,0 l/m² 5,0 km/h (1 Bft) S 173 ° 0 min 30 W/m² 7,4 °C 9,5 °C 8,0 km/h (2 Bft)
18.11.2020 08:27 20,7 °C 9,6 °C 46 % 87 % 1026,6 hPa 0,0 l/m² 4,5 km/h (1 Bft) S 172 ° 0 min 30 W/m² 7,5 °C 9,6 °C 9,7 km/h (2 Bft)
18.11.2020 08:29 20,7 °C 9,5 °C 46 % 87 % 1026,6 hPa 0,0 l/m² 5,1 km/h (1 Bft) S 171 ° 0 min 32 W/m² 7,4 °C 9,5 °C 8,0 km/h (2 Bft)
18.11.2020 08:30 20,8 °C 9,6 °C 46 % 87 % 1026,6 hPa 0,0 l/m² 5,2 km/h (1 Bft) S 171 ° 0 min 32 W/m² 7,5 °C 9,6 °C 8,0 km/h (2 Bft)
18.11.2020 08:31 20,8 °C 9,6 °C 46 % 87 % 1026,6 hPa 0,0 l/m² 4,7 km/h (1 Bft) S 171 ° 0 min 33 W/m² 7,5 °C 9,6 °C 6,4 km/h (2 Bft)
18.11.2020 08:32 20,8 °C 9,6 °C 46 % 87 % 1026,6 hPa 0,0 l/m² 5,4 km/h (2 Bft) S 171 ° 0 min 35 W/m² 7,5 °C 9,6 °C 8,0 km/h (2 Bft)
18.11.2020 08:33 20,8 °C 9,6 °C 46 % 87 % 1026,6 hPa 0,0 l/m² 6,1 km/h (2 Bft) S 170 ° 0 min 35 W/m² 7,5 °C 9,6 °C 8,0 km/h (2 Bft)
18.11.2020 08:35 20,8 °C 9,6 °C 47 % 87 % 1026,7 hPa 0,0 l/m² 4,7 km/h (1 Bft) S 170 ° 0 min 37 W/m² 7,5 °C 9,6 °C 6,4 km/h (2 Bft)
18.11.2020 08:37 20,8 °C 9,6 °C 47 % 87 % 1026,6 hPa 0,0 l/m² 4,2 km/h (1 Bft) S 170 ° 0 min 37 W/m² 7,5 °C 9,6 °C 8,0 km/h (2 Bft)
18.11.2020 08:39 20,8 °C 9,6 °C 47 % 87 % 1026,7 hPa 0,0 l/m² 3,5 km/h (1 Bft) S 170 ° 0 min 35 W/m² 7,5 °C 9,6 °C 6,4 km/h (2 Bft)
18.11.2020 08:40 20,9 °C 9,6 °C 47 % 87 % 1026,6 hPa 0,0 l/m² 5,3 km/h (1 Bft) S 170 ° 0 min 37 W/m² 7,5 °C 9,6 °C 6,4 km/h (2 Bft)
18.11.2020 08:41 20,9 °C 9,6 °C 47 % 87 % 1026,6 hPa 0,0 l/m² 6,5 km/h (2 Bft) S 174 ° 0 min 37 W/m² 7,5 °C 9,6 °C 9,7 km/h (2 Bft)
18.11.2020 08:42 20,9 °C 9,6 °C 47 % 87 % 1026,5 hPa 0,0 l/m² 4,5 km/h (1 Bft) S 175 ° 0 min 39 W/m² 7,5 °C 9,6 °C 8,0 km/h (2 Bft)
18.11.2020 08:43 20,9 °C 9,6 °C 47 % 87 % 1026,5 hPa 0,0 l/m² 4,3 km/h (1 Bft) S 175 ° 0 min 39 W/m² 7,5 °C 9,6 °C 4,8 km/h (1 Bft)
18.11.2020 08:45 20,9 °C 9,6 °C 47 % 87 % 1026,6 hPa 0,0 l/m² 4,2 km/h (1 Bft) S 180 ° 0 min 37 W/m² 7,5 °C 9,6 °C 4,8 km/h (1 Bft)
18.11.2020 08:47 21,0 °C 9,6 °C 47 % 87 % 1026,6 hPa 0,0 l/m² 4,6 km/h (1 Bft) S 180 ° 0 min 37 W/m² 7,5 °C 9,6 °C 6,4 km/h (2 Bft)
18.11.2020 08:49 21,0 °C 9,7 °C 47 % 87 % 1026,5 hPa 0,0 l/m² 4,4 km/h (1 Bft) S 186 ° 0 min 39 W/m² 7,6 °C 9,7 °C 8,0 km/h (2 Bft)
18.11.2020 08:50 21,0 °C 9,7 °C 47 % 87 % 1026,5 hPa 0,0 l/m² 3,5 km/h (1 Bft) S 186 ° 0 min 39 W/m² 7,6 °C 9,7 °C 4,8 km/h (1 Bft)
18.11.2020 08:51 21,0 °C 9,7 °C 47 % 87 % 1026,5 hPa 0,0 l/m² 4,3 km/h (1 Bft) S 176 ° 0 min 39 W/m² 7,6 °C 9,7 °C 6,4 km/h (2 Bft)
18.11.2020 08:52 21,1 °C 9,7 °C 47 % 87 % 1026,5 hPa 0,0 l/m² 6,3 km/h (2 Bft) S 174 ° 0 min 40 W/m² 7,6 °C 9,7 °C 8,0 km/h (2 Bft)
18.11.2020 08:53 21,1 °C 9,7 °C 47 % 87 % 1026,5 hPa 0,0 l/m² 4,8 km/h (1 Bft) S 169 ° 0 min 40 W/m² 7,6 °C 9,7 °C 8,0 km/h (2 Bft)
18.11.2020 08:55 21,1 °C 9,7 °C 47 % 87 % 1026,5 hPa 0,0 l/m² 5,0 km/h (1 Bft) S 169 ° 0 min 44 W/m² 7,6 °C 9,7 °C 8,0 km/h (2 Bft)
18.11.2020 08:57 21,1 °C 9,7 °C 47 % 87 % 1026,5 hPa 0,0 l/m² 4,3 km/h (1 Bft) S 180 ° 0 min 46 W/m² 7,6 °C 9,7 °C 6,4 km/h (2 Bft)
18.11.2020 08:59 21,1 °C 9,8 °C 47 % 87 % 1026,4 hPa 0,0 l/m² 4,3 km/h (1 Bft) S 180 ° 0 min 47 W/m² 7,7 °C 9,8 °C 6,4 km/h (2 Bft)
18.11.2020 09:00 21,1 °C 9,8 °C 47 % 86 % 1026,5 hPa 0,0 l/m² 3,9 km/h (1 Bft) S 171 ° 0 min 47 W/m² 7,6 °C 9,8 °C 6,4 km/h (2 Bft)
18.11.2020 09:01 21,1 °C 9,8 °C 47 % 86 % 1026,5 hPa 0,0 l/m² 4,7 km/h (1 Bft) S-SO 164 ° 0 min 49 W/m² 7,6 °C 9,8 °C 8,0 km/h (2 Bft)
18.11.2020 09:02 21,1 °C 9,8 °C 47 % 87 % 1026,4 hPa 0,0 l/m² 6,0 km/h (2 Bft) S-SW 192 ° 0 min 47 W/m² 7,7 °C 9,8 °C 8,0 km/h (2 Bft)
18.11.2020 09:03 21,1 °C 9,8 °C 47 % 87 % 1026,4 hPa 0,0 l/m² 5,3 km/h (1 Bft) S 185 ° 0 min 47 W/m² 7,7 °C 9,8 °C 8,0 km/h (2 Bft)
18.11.2020 09:05 21,1 °C 9,9 °C 47 % 87 % 1026,5 hPa 0,0 l/m² 7,1 km/h (2 Bft) S 186 ° 0 min 49 W/m² 7,8 °C 9,4 °C 9,7 km/h (2 Bft)
18.11.2020 09:07 21,2 °C 9,9 °C 47 % 87 % 1026,5 hPa 0,0 l/m² 7,3 km/h (2 Bft) S 176 ° 2 min 53 W/m² 7,8 °C 9,2 °C 11,3 km/h (2 Bft)
18.11.2020 09:09 21,2 °C 9,9 °C 47 % 86 % 1026,4 hPa 0,0 l/m² 7,0 km/h (2 Bft) S 179 ° 2 min 53 W/m² 7,7 °C 9,5 °C 11,3 km/h (2 Bft)
18.11.2020 09:10 21,2 °C 9,9 °C 47 % 86 % 1026,4 hPa 0,0 l/m² 5,1 km/h (1 Bft) S 189 ° 1 min 58 W/m² 7,7 °C 9,9 °C 6,4 km/h (2 Bft)
18.11.2020 09:11 21,2 °C 9,9 °C 47 % 86 % 1026,4 hPa 0,0 l/m² 3,9 km/h (1 Bft) S 187 ° 1 min 58 W/m² 7,7 °C 9,9 °C 4,8 km/h (1 Bft)
18.11.2020 09:12 21,2 °C 9,9 °C 47 % 86 % 1026,3 hPa 0,0 l/m² 3,8 km/h (1 Bft) S 187 ° 1 min 58 W/m² 7,7 °C 9,9 °C 8,0 km/h (2 Bft)
18.11.2020 09:13 21,2 °C 10,0 °C 47 % 86 % 1026,4 hPa 0,0 l/m² 5,2 km/h (1 Bft) S 181 ° 1 min 56 W/m² 7,8 °C 10,0 °C 6,4 km/h (2 Bft)
18.11.2020 09:15 21,2 °C 10,1 °C 47 % 86 % 1026,5 hPa 0,0 l/m² 8,8 km/h (2 Bft) S 174 ° 2 min 56 W/m² 7,9 °C 8,4 °C 12,9 km/h (3 Bft)
18.11.2020 09:17 21,2 °C 10,1 °C 47 % 86 % 1026,4 hPa 0,0 l/m² 7,8 km/h (2 Bft) S 175 ° 2 min 60 W/m² 7,9 °C 9,1 °C 11,3 km/h (2 Bft)
18.11.2020 09:19 21,3 °C 10,1 °C 47 % 86 % 1026,3 hPa 0,0 l/m² 6,9 km/h (2 Bft) S 188 ° 2 min 62 W/m² 7,9 °C 9,7 °C 9,7 km/h (2 Bft)
18.11.2020 09:20 21,2 °C 10,1 °C 47 % 86 % 1026,3 hPa 0,0 l/m² 7,6 km/h (2 Bft) S 183 ° 1 min 62 W/m² 7,9 °C 9,2 °C 11,3 km/h (2 Bft)
18.11.2020 09:21 21,2 °C 10,2 °C 47 % 86 % 1026,3 hPa 0,0 l/m² 10,3 km/h (2 Bft) S-SO 167 ° 1 min 63 W/m² 8,0 °C 7,6 °C 14,5 km/h (3 Bft)
18.11.2020 09:23 21,3 °C 10,2 °C 47 % 86 % 1026,4 hPa 0,0 l/m² 9,1 km/h (2 Bft) S 182 ° 2 min 67 W/m² 8,0 °C 8,4 °C 11,3 km/h (2 Bft)
18.11.2020 09:25 21,3 °C 10,3 °C 47 % 86 % 1026,3 hPa 0,0 l/m² 8,2 km/h (2 Bft) S 169 ° 2 min 67 W/m² 8,1 °C 9,0 °C 14,5 km/h (3 Bft)
18.11.2020 09:27 21,3 °C 10,3 °C 47 % 85 % 1026,3 hPa 0,0 l/m² 8,3 km/h (2 Bft) S 178 ° 2 min 65 W/m² 7,9 °C 9,0 °C 11,3 km/h (2 Bft)
18.11.2020 09:29 21,3 °C 10,3 °C 47 % 85 % 1026,3 hPa 0,0 l/m² 6,7 km/h (2 Bft) S 179 ° 2 min 63 W/m² 7,9 °C 10,1 °C 8,0 km/h (2 Bft)
18.11.2020 09:30 21,3 °C 10,4 °C 47 % 86 % 1026,2 hPa 0,0 l/m² 8,0 km/h (2 Bft) S 173 ° 1 min 63 W/m² 8,2 °C 9,3 °C 14,5 km/h (3 Bft)
18.11.2020 09:31 21,3 °C 10,4 °C 47 % 86 % 1026,2 hPa 0,0 l/m² 8,0 km/h (2 Bft) S 172 ° 1 min 63 W/m² 8,2 °C 9,3 °C 9,7 km/h (2 Bft)
18.11.2020 09:33 21,3 °C 10,4 °C 47 % 86 % 1026,3 hPa 0,0 l/m² 9,7 km/h (2 Bft) S-SO 167 ° 2 min 63 W/m² 8,2 °C 8,2 °C 14,5 km/h (3 Bft)
18.11.2020 09:35 21,4 °C 10,4 °C 47 % 85 % 1026,3 hPa 0,0 l/m² 9,6 km/h (2 Bft) S 176 ° 2 min 67 W/m² 8,0 °C 8,3 °C 16,1 km/h (3 Bft)
18.11.2020 09:37 21,4 °C 10,5 °C 47 % 85 % 1026,3 hPa 0,0 l/m² 9,7 km/h (2 Bft) S 175 ° 2 min 76 W/m² 8,1 °C 8,3 °C 14,5 km/h (3 Bft)
18.11.2020 09:39 21,3 °C 10,6 °C 47 % 85 % 1026,2 hPa 0,0 l/m² 8,7 km/h (2 Bft) S 175 ° 2 min 72 W/m² 8,2 °C 9,0 °C 11,3 km/h (2 Bft)
18.11.2020 09:40 21,4 °C 10,6 °C 47 % 85 % 1026,2 hPa 0,0 l/m² 10,2 km/h (2 Bft) S-SO 165 ° 1 min 67 W/m² 8,2 °C 8,1 °C 14,5 km/h (3 Bft)
18.11.2020 09:41 21,4 °C 10,6 °C 47 % 85 % 1026,2 hPa 0,0 l/m² 8,8 km/h (2 Bft) S-SO 167 ° 1 min 67 W/m² 8,2 °C 9,0 °C 11,3 km/h (2 Bft)
18.11.2020 09:43 21,4 °C 10,6 °C 47 % 85 % 1026,2 hPa 0,0 l/m² 8,9 km/h (2 Bft) S-SO 159 ° 2 min 65 W/m² 8,2 °C 8,9 °C 12,9 km/h (3 Bft)
18.11.2020 09:44 21,4 °C 10,6 °C 47 % 85 % 1026,2 hPa 0,0 l/m² 8,0 km/h (2 Bft) S 188 ° 1 min 63 W/m² 8,2 °C 9,5 °C 12,9 km/h (3 Bft)
18.11.2020 09:45 21,4 °C 10,7 °C 47 % 85 % 1026,2 hPa 0,0 l/m² 9,9 km/h (2 Bft) S 175 ° 1 min 62 W/m² 8,3 °C 8,4 °C 12,9 km/h (3 Bft)
18.11.2020 09:46 21,4 °C 10,7 °C 47 % 85 % 1026,2 hPa 0,0 l/m² 5,9 km/h (2 Bft) S 177 ° 1 min 62 W/m² 8,3 °C 10,7 °C 11,3 km/h (2 Bft)
18.11.2020 09:48 21,4 °C 10,7 °C 48 % 85 % 1026,1 hPa 0,0 l/m² 6,7 km/h (2 Bft) S-SW 200 ° 2 min 62 W/m² 8,3 °C 10,5 °C 9,7 km/h (2 Bft)
18.11.2020 09:50 21,4 °C 10,7 °C 48 % 85 % 1026,2 hPa 0,0 l/m² 9,9 km/h (2 Bft) S 175 ° 2 min 63 W/m² 8,3 °C 8,4 °C 14,5 km/h (3 Bft)
18.11.2020 09:51 21,4 °C 10,7 °C 48 % 85 % 1026,1 hPa 0,0 l/m² 10,3 km/h (2 Bft) S-SO 159 ° 1 min 63 W/m² 8,3 °C 8,2 °C 12,9 km/h (3 Bft)
18.11.2020 09:52 21,4 °C 10,7 °C 48 % 85 % 1026,1 hPa 0,0 l/m² 8,9 km/h (2 Bft) S 188 ° 1 min 65 W/m² 8,3 °C 9,0 °C 12,9 km/h (3 Bft)
18.11.2020 09:53 21,4 °C 10,8 °C 48 % 85 % 1026,2 hPa 0,0 l/m² 8,3 km/h (2 Bft) S 169 ° 1 min 65 W/m² 8,4 °C 9,5 °C 9,7 km/h (2 Bft)
18.11.2020 09:54 21,5 °C 10,7 °C 48 % 85 % 1026,1 hPa 0,0 l/m² 9,4 km/h (2 Bft) S-SO 162 ° 1 min 69 W/m² 8,3 °C 8,7 °C 11,3 km/h (2 Bft)
18.11.2020 09:56 21,4 °C 10,8 °C 48 % 85 % 1026,2 hPa 0,0 l/m² 7,7 km/h (2 Bft) S-SO 163 ° 2 min 70 W/m² 8,4 °C 9,9 °C 11,3 km/h (2 Bft)
18.11.2020 09:58 21,5 °C 10,8 °C 48 % 85 % 1026,0 hPa 0,0 l/m² 7,2 km/h (2 Bft) S-SW 202 ° 2 min 69 W/m² 8,4 °C 10,2 °C 11,3 km/h (2 Bft)
18.11.2020 10:00 21,5 °C 10,8 °C 48 % 85 % 1026,1 hPa 0,0 l/m² 8,0 km/h (2 Bft) S 191 ° 2 min 67 W/m² 8,4 °C 9,7 °C 14,5 km/h (3 Bft)
18.11.2020 10:01 21,6 °C 10,8 °C 48 % 85 % 1026,1 hPa 0,0 l/m² 7,9 km/h (2 Bft) S-SW 207 ° 1 min 67 W/m² 8,4 °C 9,8 °C 11,3 km/h (2 Bft)
18.11.2020 10:02 21,6 °C 10,8 °C 48 % 85 % 1026,1 hPa 0,0 l/m² 10,8 km/h (2 Bft) S-SW 194 ° 1 min 67 W/m² 8,4 °C 8,0 °C 12,9 km/h (3 Bft)
18.11.2020 10:03 21,5 °C 10,8 °C 48 % 85 % 1026,1 hPa 0,0 l/m² 12,1 km/h (2 Bft) S 180 ° 1 min 67 W/m² 8,4 °C 7,4 °C 17,7 km/h (3 Bft)
18.11.2020 10:05 21,6 °C 10,9 °C 48 % 85 % 1026,2 hPa 0,0 l/m² 9,9 km/h (2 Bft) S 180 ° 2 min 67 W/m² 8,5 °C 8,6 °C 14,5 km/h (3 Bft)
18.11.2020 10:07 21,6 °C 10,9 °C 48 % 85 % 1026,1 hPa 0,0 l/m² 9,5 km/h (2 Bft) S-SO 167 ° 2 min 67 W/m² 8,5 °C 8,9 °C 12,9 km/h (3 Bft)
18.11.2020 10:09 21,6 °C 10,9 °C 48 % 85 % 1026,2 hPa 0,0 l/m² 9,3 km/h (2 Bft) S-SO 163 ° 2 min 69 W/m² 8,5 °C 9,0 °C 14,5 km/h (3 Bft)
18.11.2020 10:10 21,6 °C 10,9 °C 48 % 85 % 1026,2 hPa 0,0 l/m² 8,9 km/h (2 Bft) S 174 ° 1 min 72 W/m² 8,5 °C 9,2 °C 12,9 km/h (3 Bft)
18.11.2020 10:11 21,6 °C 10,9 °C 48 % 85 % 1026,2 hPa 0,0 l/m² 9,5 km/h (2 Bft) S-SO 154 ° 1 min 72 W/m² 8,5 °C 8,9 °C 11,3 km/h (2 Bft)
18.11.2020 10:12 21,6 °C 10,9 °C 48 % 85 % 1026,2 hPa 0,0 l/m² 9,2 km/h (2 Bft) S-SO 163 ° 1 min 74 W/m² 8,5 °C 9,0 °C 12,9 km/h (3 Bft)
18.11.2020 10:13 21,6 °C 10,9 °C 48 % 85 % 1026,2 hPa 0,0 l/m² 10,4 km/h (2 Bft) S-SO 165 ° 1 min 74 W/m² 8,5 °C 8,4 °C 12,9 km/h (3 Bft)
18.11.2020 10:15 21,6 °C 10,9 °C 48 % 85 % 1026,1 hPa 0,0 l/m² 9,7 km/h (2 Bft) S-SO 163 ° 2 min 74 W/m² 8,5 °C 8,8 °C 12,9 km/h (3 Bft)
18.11.2020 10:17 21,6 °C 11,0 °C 48 % 85 % 1026,1 hPa 0,0 l/m² 9,1 km/h (2 Bft) S 182 ° 2 min 74 W/m² 8,6 °C 9,2 °C 12,9 km/h (3 Bft)
18.11.2020 10:19 21,6 °C 11,0 °C 48 % 85 % 1026,2 hPa 0,0 l/m² 9,4 km/h (2 Bft) S-SO 160 ° 2 min 77 W/m² 8,6 °C 9,0 °C 16,1 km/h (3 Bft)
18.11.2020 10:20 21,6 °C 11,0 °C 48 % 85 % 1026,1 hPa 0,0 l/m² 10,0 km/h (2 Bft) S 171 ° 1 min 79 W/m² 8,6 °C 8,7 °C 12,9 km/h (3 Bft)
18.11.2020 10:21 21,6 °C 11,1 °C 48 % 85 % 1026,1 hPa 0,0 l/m² 11,9 km/h (2 Bft) S-SO 153 ° 1 min 76 W/m² 8,7 °C 7,8 °C 14,5 km/h (3 Bft)
18.11.2020 10:22 21,6 °C 11,1 °C 48 % 85 % 1026,1 hPa 0,0 l/m² 9,9 km/h (2 Bft) S 185 ° 1 min 76 W/m² 8,7 °C 8,9 °C 12,9 km/h (3 Bft)
18.11.2020 10:23 21,6 °C 11,1 °C 48 % 85 % 1026,1 hPa 0,0 l/m² 7,9 km/h (2 Bft) S-SO 161 ° 1 min 74 W/m² 8,7 °C 10,1 °C 9,7 km/h (2 Bft)
18.11.2020 10:25 21,6 °C 11,1 °C 48 % 85 % 1026,1 hPa 0,0 l/m² 7,4 km/h (2 Bft) S-SO 148 ° 2 min 79 W/m² 8,7 °C 10,4 °C 9,7 km/h (2 Bft)
18.11.2020 10:27 21,6 °C 11,1 °C 48 % 85 % 1026,1 hPa 0,0 l/m² 8,5 km/h (2 Bft) S 176 ° 2 min 84 W/m² 8,7 °C 9,7 °C 12,9 km/h (3 Bft)
18.11.2020 10:29 21,6 °C 11,1 °C 48 % 85 % 1026,1 hPa 0,0 l/m² 8,4 km/h (2 Bft) S-SO 167 ° 2 min 90 W/m² 8,7 °C 9,8 °C 12,9 km/h (3 Bft)
18.11.2020 10:30 21,6 °C 11,1 °C 48 % 85 % 1026,1 hPa 0,0 l/m² 7,3 km/h (2 Bft) S-SO 153 ° 1 min 95 W/m² 8,7 °C 10,5 °C 9,7 km/h (2 Bft)
18.11.2020 10:31 21,6 °C 11,2 °C 48 % 85 % 1026,1 hPa 0,0 l/m² 9,9 km/h (2 Bft) S-SO 163 ° 1 min 97 W/m² 8,8 °C 9,0 °C 14,5 km/h (3 Bft)
18.11.2020 10:33 21,6 °C 11,2 °C 48 % 85 % 1026,1 hPa 0,0 l/m² 9,2 km/h (2 Bft) S-SO 163 ° 2 min 90 W/m² 8,8 °C 9,4 °C 11,3 km/h (2 Bft)
18.11.2020 10:35 21,7 °C 11,2 °C 48 % 85 % 1026,0 hPa 0,0 l/m² 9,8 km/h (2 Bft) S-SO 168 ° 2 min 91 W/m² 8,8 °C 9,0 °C 12,9 km/h (3 Bft)
18.11.2020 10:37 21,7 °C 11,2 °C 48 % 85 % 1026,0 hPa 0,0 l/m² 8,6 km/h (2 Bft) S-SO 168 ° 2 min 93 W/m² 8,8 °C 9,7 °C 11,3 km/h (2 Bft)
18.11.2020 10:39 21,7 °C 11,3 °C 48 % 85 % 1026,0 hPa 0,0 l/m² 9,3 km/h (2 Bft) S 173 ° 2 min 83 W/m² 8,9 °C 9,4 °C 14,5 km/h (3 Bft)
18.11.2020 10:40 21,7 °C 11,3 °C 48 % 85 % 1026,0 hPa 0,0 l/m² 9,8 km/h (2 Bft) S 169 ° 1 min 81 W/m² 8,9 °C 9,1 °C 14,5 km/h (3 Bft)
18.11.2020 10:41 21,7 °C 11,3 °C 48 % 85 % 1026,0 hPa 0,0 l/m² 12,7 km/h (3 Bft) S-SO 163 ° 1 min 76 W/m² 8,9 °C 7,7 °C 17,7 km/h (3 Bft)
18.11.2020 10:42 21,7 °C 11,3 °C 48 % 85 % 1026,1 hPa 0,0 l/m² 11,5 km/h (2 Bft) S-SO 164 ° 1 min 74 W/m² 8,9 °C 8,3 °C 14,5 km/h (3 Bft)
18.11.2020 10:43 21,7 °C 11,3 °C 48 % 85 % 1026,0 hPa 0,0 l/m² 8,4 km/h (2 Bft) S-SO 167 ° 1 min 76 W/m² 8,9 °C 10,0 °C 11,3 km/h (2 Bft)
18.11.2020 10:45 21,7 °C 11,3 °C 48 % 85 % 1026,0 hPa 0,0 l/m² 10,1 km/h (2 Bft) S 189 ° 2 min 95 W/m² 8,9 °C 9,0 °C 16,1 km/h (3 Bft)
18.11.2020 10:47 21,7 °C 11,3 °C 48 % 85 % 1025,9 hPa 0,0 l/m² 11,2 km/h (2 Bft) S 173 ° 2 min 111 W/m² 8,9 °C 8,4 °C 17,7 km/h (3 Bft)
18.11.2020 10:49 21,7 °C 11,3 °C 48 % 84 % 1025,9 hPa 0,0 l/m² 12,4 km/h (2 Bft) S 184 ° 2 min 105 W/m² 8,7 °C 7,8 °C 17,7 km/h (3 Bft)
18.11.2020 10:50 21,7 °C 11,3 °C 48 % 84 % 1025,9 hPa 0,0 l/m² 11,5 km/h (2 Bft) S-SO 168 ° 1 min 95 W/m² 8,7 °C 8,3 °C 16,1 km/h (3 Bft)
18.11.2020 10:51 21,7 °C 11,3 °C 48 % 84 % 1025,9 hPa 0,0 l/m² 8,4 km/h (2 Bft) S-SO 165 ° 1 min 95 W/m² 8,7 °C 10,0 °C 11,3 km/h (2 Bft)
18.11.2020 10:52 21,7 °C 11,4 °C 48 % 84 % 1025,9 hPa 0,0 l/m² 11,8 km/h (2 Bft) S-SO 161 ° 1 min 93 W/m² 8,8 °C 8,2 °C 14,5 km/h (3 Bft)
18.11.2020 10:53 21,7 °C 11,3 °C 48 % 84 % 1026,0 hPa 0,0 l/m² 13,8 km/h (3 Bft) S-SO 167 ° 1 min 93 W/m² 8,7 °C 7,2 °C 16,1 km/h (3 Bft)
18.11.2020 10:55 21,7 °C 11,4 °C 48 % 84 % 1026,0 hPa 0,0 l/m² 10,5 km/h (2 Bft) S 171 ° 2 min 95 W/m² 8,8 °C 8,9 °C 16,1 km/h (3 Bft)
18.11.2020 10:57 21,7 °C 11,4 °C 48 % 84 % 1025,9 hPa 0,0 l/m² 9,8 km/h (2 Bft) S 173 ° 2 min 102 W/m² 8,8 °C 9,3 °C 14,5 km/h (3 Bft)
18.11.2020 10:59 21,7 °C 11,4 °C 48 % 84 % 1025,9 hPa 0,0 l/m² 11,9 km/h (2 Bft) S 188 ° 2 min 114 W/m² 8,8 °C 8,2 °C 16,1 km/h (3 Bft)
18.11.2020 11:00 21,7 °C 11,4 °C 48 % 85 % 1025,9 hPa 0,0 l/m² 9,0 km/h (2 Bft) S-SO 167 ° 1 min 114 W/m² 9,0 °C 9,7 °C 11,3 km/h (2 Bft)
18.11.2020 11:01 21,7 °C 11,4 °C 48 % 85 % 1025,9 hPa 0,0 l/m² 12,7 km/h (3 Bft) S-SO 165 ° 1 min 114 W/m² 9,0 °C 7,8 °C 19,3 km/h (3 Bft)
18.11.2020 11:02 21,7 °C 11,4 °C 48 % 84 % 1025,9 hPa 0,0 l/m² 13,0 km/h (3 Bft) S 179 ° 1 min 118 W/m² 8,8 °C 7,7 °C 17,7 km/h (3 Bft)
18.11.2020 11:03 21,7 °C 11,4 °C 48 % 84 % 1025,9 hPa 0,0 l/m² 10,1 km/h (2 Bft) S-SW 200 ° 1 min 118 W/m² 8,8 °C 9,1 °C 12,9 km/h (3 Bft)
18.11.2020 11:05 21,7 °C 11,5 °C 48 % 84 % 1025,8 hPa 0,0 l/m² 9,3 km/h (2 Bft) S-SO 162 ° 2 min 116 W/m² 8,9 °C 9,6 °C 17,7 km/h (3 Bft)
18.11.2020 11:07 21,7 °C 11,5 °C 48 % 85 % 1025,9 hPa 0,0 l/m² 11,7 km/h (2 Bft) S-SO 159 ° 2 min 113 W/m² 9,1 °C 8,4 °C 16,1 km/h (3 Bft)
18.11.2020 11:09 21,7 °C 11,6 °C 48 % 84 % 1025,9 hPa 0,0 l/m² 14,1 km/h (3 Bft) S 172 ° 2 min 125 W/m² 9,0 °C 7,4 °C 19,3 km/h (3 Bft)
18.11.2020 11:10 21,7 °C 11,6 °C 48 % 84 % 1025,9 hPa 0,0 l/m² 10,0 km/h (2 Bft) S 176 ° 1 min 134 W/m² 9,0 °C 9,4 °C 14,5 km/h (3 Bft)
18.11.2020 11:11 21,7 °C 11,6 °C 48 % 84 % 1025,9 hPa 0,0 l/m² 8,1 km/h (2 Bft) S 182 ° 1 min 128 W/m² 9,0 °C 10,5 °C 12,9 km/h (3 Bft)
18.11.2020 11:12 21,7 °C 11,6 °C 48 % 85 % 1025,8 hPa 0,0 l/m² 11,2 km/h (2 Bft) S 170 ° 1 min 120 W/m² 9,2 °C 8,7 °C 19,3 km/h (3 Bft)
18.11.2020 11:13 21,7 °C 11,6 °C 48 % 84 % 1025,9 hPa 0,0 l/m² 11,7 km/h (2 Bft) S 175 ° 1 min 116 W/m² 9,0 °C 8,5 °C 17,7 km/h (3 Bft)
18.11.2020 11:15 21,7 °C 11,6 °C 48 % 84 % 1025,8 hPa 0,0 l/m² 13,0 km/h (3 Bft) S-SO 163 ° 2 min 105 W/m² 9,0 °C 7,9 °C 22,5 km/h (4 Bft)
18.11.2020 11:17 21,7 °C 11,7 °C 48 % 84 % 1025,8 hPa 0,0 l/m² 9,9 km/h (2 Bft) S-SW 197 ° 2 min 102 W/m² 9,1 °C 9,5 °C 14,5 km/h (3 Bft)
18.11.2020 11:19 21,7 °C 11,7 °C 48 % 84 % 1025,8 hPa 0,0 l/m² 11,0 km/h (2 Bft) S-SO 168 ° 2 min 107 W/m² 9,1 °C 9,0 °C 17,7 km/h (3 Bft)
18.11.2020 11:20 21,7 °C 11,7 °C 48 % 84 % 1025,7 hPa 0,0 l/m² 10,4 km/h (2 Bft) S 170 ° 1 min 107 W/m² 9,1 °C 9,3 °C 16,1 km/h (3 Bft)
18.11.2020 11:21 21,7 °C 11,7 °C 48 % 84 % 1025,7 hPa 0,0 l/m² 8,1 km/h (2 Bft) S 177 ° 1 min 104 W/m² 9,1 °C 10,6 °C 14,5 km/h (3 Bft)
18.11.2020 11:22 21,7 °C 11,7 °C 48 % 84 % 1025,7 hPa 0,0 l/m² 9,8 km/h (2 Bft) S 182 ° 1 min 97 W/m² 9,1 °C 9,6 °C 12,9 km/h (3 Bft)
18.11.2020 11:23 21,7 °C 11,7 °C 48 % 84 % 1025,7 hPa 0,0 l/m² 12,2 km/h (2 Bft) S-SO 167 ° 1 min 90 W/m² 9,1 °C 8,4 °C 14,5 km/h (3 Bft)
18.11.2020 11:25 21,7 °C 11,7 °C 48 % 84 % 1025,6 hPa 0,0 l/m² 10,9 km/h (2 Bft) S-SW 197 ° 2 min 86 W/m² 9,1 °C 9,0 °C 16,1 km/h (3 Bft)
18.11.2020 11:27 21,7 °C 11,7 °C 48 % 84 % 1025,7 hPa 0,0 l/m² 8,9 km/h (2 Bft) S 191 ° 2 min 83 W/m² 9,1 °C 10,1 °C 12,9 km/h (3 Bft)
18.11.2020 11:29 21,7 °C 11,7 °C 48 % 84 % 1025,6 hPa 0,0 l/m² 11,1 km/h (2 Bft) S 189 ° 2 min 79 W/m² 9,1 °C 8,9 °C 17,7 km/h (3 Bft)
18.11.2020 11:30 21,7 °C 11,7 °C 48 % 83 % 1025,6 hPa 0,0 l/m² 12,9 km/h (3 Bft) SW 219 ° 1 min 81 W/m² 8,9 °C 8,1 °C 19,3 km/h (3 Bft)
18.11.2020 11:31 21,7 °C 11,7 °C 48 % 84 % 1025,6 hPa 0,0 l/m² 7,4 km/h (2 Bft) SW 221 ° 1 min 77 W/m² 9,1 °C 11,0 °C 9,7 km/h (2 Bft)
18.11.2020 11:32 21,7 °C 11,7 °C 48 % 84 % 1025,6 hPa 0,0 l/m² 13,7 km/h (3 Bft) S-SW 203 ° 1 min 72 W/m² 9,1 °C 7,7 °C 16,1 km/h (3 Bft)
18.11.2020 11:33 21,7 °C 11,7 °C 48 % 83 % 1025,6 hPa 0,0 l/m² 14,1 km/h (3 Bft) S-SW 198 ° 1 min 70 W/m² 8,9 °C 7,6 °C 17,7 km/h (3 Bft)
18.11.2020 11:35 21,7 °C 11,8 °C 48 % 83 % 1025,6 hPa 0,0 l/m² 9,9 km/h (2 Bft) S-SW 204 ° 2 min 69 W/m² 9,0 °C 9,6 °C 12,9 km/h (3 Bft)
18.11.2020 11:37 21,7 °C 11,8 °C 48 % 83 % 1025,6 hPa 0,0 l/m² 10,0 km/h (2 Bft) S-SW 202 ° 2 min 63 W/m² 9,0 °C 9,6 °C 14,5 km/h (3 Bft)
18.11.2020 11:39 21,7 °C 11,8 °C 48 % 83 % 1025,6 hPa 0,0 l/m² 10,1 km/h (2 Bft) S-SW 200 ° 2 min 76 W/m² 9,0 °C 9,5 °C 14,5 km/h (3 Bft)
18.11.2020 11:40 21,7 °C 11,8 °C 48 % 83 % 1025,6 hPa 0,0 l/m² 10,0 km/h (2 Bft) S-SW 207 ° 1 min 79 W/m² 9,0 °C 9,6 °C 12,9 km/h (3 Bft)
18.11.2020 11:41 21,7 °C 11,8 °C 48 % 83 % 1025,6 hPa 0,0 l/m² 7,8 km/h (2 Bft) SW 218 ° 1 min 81 W/m² 9,0 °C 10,9 °C 11,3 km/h (2 Bft)
18.11.2020 11:42 21,7 °C 11,8 °C 48 % 83 % 1025,6 hPa 0,0 l/m² 8,6 km/h (2 Bft) S-SW 200 ° 1 min 81 W/m² 9,0 °C 10,4 °C 12,9 km/h (3 Bft)
18.11.2020 11:43 21,8 °C 11,8 °C 48 % 83 % 1025,6 hPa 0,0 l/m² 10,5 km/h (2 Bft) S 191 ° 1 min 83 W/m² 9,0 °C 9,3 °C 14,5 km/h (3 Bft)
18.11.2020 11:45 21,7 °C 11,8 °C 48 % 83 % 1025,6 hPa 0,0 l/m² 9,9 km/h (2 Bft) S 182 ° 2 min 95 W/m² 9,0 °C 9,6 °C 14,5 km/h (3 Bft)
18.11.2020 11:47 21,7 °C 11,8 °C 48 % 83 % 1025,4 hPa 0,0 l/m² 9,1 km/h (2 Bft) S-SW 198 ° 2 min 88 W/m² 9,0 °C 10,1 °C 14,5 km/h (3 Bft)
18.11.2020 11:49 21,8 °C 11,8 °C 48 % 83 % 1025,2 hPa 0,0 l/m² 13,5 km/h (3 Bft) S-SW 210 ° 2 min 91 W/m² 9,0 °C 7,9 °C 17,7 km/h (3 Bft)
18.11.2020 11:50 21,7 °C 11,8 °C 48 % 83 % 1025,1 hPa 0,0 l/m² 12,1 km/h (2 Bft) S-SW 200 ° 1 min 90 W/m² 9,0 °C 8,5 °C 14,5 km/h (3 Bft)
18.11.2020 11:51 21,7 °C 11,8 °C 48 % 83 % 1025,1 hPa 0,0 l/m² 14,9 km/h (3 Bft) S-SW 192 ° 1 min 86 W/m² 9,0 °C 7,4 °C 20,9 km/h (4 Bft)
18.11.2020 11:52 21,7 °C 11,8 °C 48 % 82 % 1025,2 hPa 0,0 l/m² 12,6 km/h (3 Bft) S-SW 200 ° 1 min 84 W/m² 8,8 °C 8,3 °C 17,7 km/h (3 Bft)
18.11.2020 11:53 21,7 °C 11,8 °C 48 % 83 % 1025,2 hPa 0,0 l/m² 13,0 km/h (3 Bft) S-SW 195 ° 1 min 91 W/m² 9,0 °C 8,1 °C 17,7 km/h (3 Bft)
18.11.2020 11:55 21,7 °C 11,8 °C 48 % 82 % 1025,3 hPa 0,0 l/m² 13,8 km/h (3 Bft) S-SW 197 ° 2 min 98 W/m² 8,8 °C 7,8 °C 16,1 km/h (3 Bft)
18.11.2020 11:57 21,7 °C 11,9 °C 48 % 82 % 1025,4 hPa 0,0 l/m² 11,9 km/h (2 Bft) S-SW 204 ° 2 min 100 W/m² 8,9 °C 8,7 °C 16,1 km/h (3 Bft)
18.11.2020 11:59 21,7 °C 11,9 °C 49 % 82 % 1025,3 hPa 0,0 l/m² 13,9 km/h (3 Bft) S 181 ° 2 min 93 W/m² 8,9 °C 7,9 °C 24,1 km/h (4 Bft)
18.11.2020 12:00 21,8 °C 11,9 °C 49 % 82 % 1025,2 hPa 0,0 l/m² 14,9 km/h (3 Bft) S-SW 196 ° 1 min 90 W/m² 8,9 °C 7,5 °C 19,3 km/h (3 Bft)
18.11.2020 12:01 21,8 °C 11,9 °C 49 % 82 % 1025,2 hPa 0,0 l/m² 15,0 km/h (3 Bft) S-SW 196 ° 1 min 90 W/m² 8,9 °C 7,4 °C 17,7 km/h (3 Bft)
18.11.2020 12:02 21,7 °C 11,9 °C 49 % 82 % 1025,3 hPa 0,0 l/m² 14,9 km/h (3 Bft) S-SW 206 ° 1 min 88 W/m² 8,9 °C 7,5 °C 20,9 km/h (4 Bft)
18.11.2020 12:03 21,8 °C 11,9 °C 49 % 81 % 1025,2 hPa 0,0 l/m² 18,0 km/h (3 Bft) SW 219 ° 1 min 84 W/m² 8,7 °C 6,4 °C 20,9 km/h (4 Bft)
18.11.2020 12:05 21,8 °C 11,8 °C 49 % 81 % 1025,1 hPa 0,0 l/m² 14,8 km/h (3 Bft) SW 231 ° 2 min 84 W/m² 8,6 °C 7,4 °C 20,9 km/h (4 Bft)
18.11.2020 12:07 21,8 °C 11,9 °C 49 % 81 % 1025,0 hPa 0,0 l/m² 15,8 km/h (3 Bft) S-SW 199 ° 2 min 74 W/m² 8,7 °C 7,1 °C 20,9 km/h (4 Bft)
18.11.2020 12:09 21,8 °C 11,9 °C 49 % 81 % 1025,1 hPa 0,0 l/m² 16,7 km/h (3 Bft) S-SW 198 ° 2 min 62 W/m² 8,7 °C 6,8 °C 22,5 km/h (4 Bft)
18.11.2020 12:10 21,8 °C 11,9 °C 49 % 81 % 1025,0 hPa 0,0 l/m² 15,3 km/h (3 Bft) SW 216 ° 1 min 58 W/m² 8,7 °C 7,3 °C 19,3 km/h (3 Bft)
18.11.2020 12:11 21,8 °C 11,9 °C 49 % 81 % 1025,0 hPa 0,0 l/m² 14,2 km/h (3 Bft) S-SW 213 ° 1 min 58 W/m² 8,7 °C 7,8 °C 16,1 km/h (3 Bft)
18.11.2020 12:12 21,8 °C 11,9 °C 49 % 81 % 1025,1 hPa 0,0 l/m² 15,2 km/h (3 Bft) SW 214 ° 1 min 63 W/m² 8,7 °C 7,4 °C 17,7 km/h (3 Bft)
18.11.2020 12:13 21,8 °C 11,9 °C 49 % 81 % 1025,1 hPa 0,0 l/m² 11,0 km/h (2 Bft) S-SW 202 ° 1 min 74 W/m² 8,7 °C 9,2 °C 16,1 km/h (3 Bft)
18.11.2020 12:15 21,8 °C 11,9 °C 49 % 81 % 1024,9 hPa 0,0 l/m² 11,9 km/h (2 Bft) S-SW 213 ° 2 min 74 W/m² 8,7 °C 8,7 °C 16,1 km/h (3 Bft)
18.11.2020 12:17 21,8 °C 11,9 °C 49 % 82 % 1024,9 hPa 0,0 l/m² 10,2 km/h (2 Bft) S-SW 195 ° 2 min 76 W/m² 8,9 °C 9,6 °C 12,9 km/h (3 Bft)
18.11.2020 12:19 21,8 °C 11,9 °C 49 % 82 % 1024,8 hPa 0,0 l/m² 10,0 km/h (2 Bft) SW 216 ° 2 min 69 W/m² 8,9 °C 9,7 °C 12,9 km/h (3 Bft)
18.11.2020 12:21 21,8 °C 11,9 °C 49 % 82 % 1024,9 hPa 0,0 l/m² 10,5 km/h (2 Bft) S-SW 208 ° 2 min 69 W/m² 8,9 °C 9,4 °C 17,7 km/h (3 Bft)
18.11.2020 12:22 21,8 °C 11,9 °C 49 % 82 % 1024,9 hPa 0,0 l/m² 7,1 km/h (2 Bft) S-SW 200 ° 1 min 69 W/m² 8,9 °C 11,4 °C 9,7 km/h (2 Bft)
18.11.2020 12:23 21,8 °C 11,9 °C 49 % 82 % 1024,9 hPa 0,0 l/m² 9,1 km/h (2 Bft) S-SW 207 ° 1 min 69 W/m² 8,9 °C 10,2 °C 9,7 km/h (2 Bft)
18.11.2020 12:25 21,8 °C 11,9 °C 49 % 82 % 1024,9 hPa 0,0 l/m² 10,7 km/h (2 Bft) S 177 ° 2 min 69 W/m² 8,9 °C 9,3 °C 19,3 km/h (3 Bft)
18.11.2020 12:27 21,8 °C 11,9 °C 49 % 82 % 1024,9 hPa 0,0 l/m² 14,0 km/h (3 Bft) S 186 ° 2 min 72 W/m² 8,9 °C 7,8 °C 17,7 km/h (3 Bft)
18.11.2020 12:29 21,8 °C 11,9 °C 49 % 81 % 1024,8 hPa 0,0 l/m² 12,1 km/h (2 Bft) SW 215 ° 2 min 79 W/m² 8,7 °C 8,7 °C 14,5 km/h (3 Bft)
18.11.2020 12:31 21,8 °C 11,9 °C 49 % 82 % 1024,8 hPa 0,0 l/m² 9,7 km/h (2 Bft) S 181 ° 2 min 91 W/m² 8,9 °C 9,9 °C 12,9 km/h (3 Bft)
18.11.2020 12:32 21,9 °C 11,9 °C 49 % 82 % 1024,8 hPa 0,0 l/m² 8,3 km/h (2 Bft) S 180 ° 1 min 97 W/m² 8,9 °C 10,7 °C 9,7 km/h (2 Bft)
18.11.2020 12:33 21,9 °C 11,9 °C 49 % 82 % 1024,8 hPa 0,0 l/m² 11,0 km/h (2 Bft) S 185 ° 1 min 98 W/m² 8,9 °C 9,2 °C 16,1 km/h (3 Bft)
18.11.2020 12:35 21,9 °C 11,9 °C 49 % 82 % 1024,7 hPa 0,0 l/m² 11,9 km/h (2 Bft) S 190 ° 2 min 91 W/m² 8,9 °C 8,7 °C 16,1 km/h (3 Bft)
18.11.2020 12:37 21,8 °C 11,9 °C 49 % 82 % 1024,7 hPa 0,0 l/m² 13,5 km/h (3 Bft) S-SW 199 ° 2 min 72 W/m² 8,9 °C 8,0 °C 17,7 km/h (3 Bft)
18.11.2020 12:39 21,8 °C 11,9 °C 49 % 82 % 1024,6 hPa 0,0 l/m² 10,7 km/h (2 Bft) S-SW 194 ° 2 min 69 W/m² 8,9 °C 9,3 °C 14,5 km/h (3 Bft)
18.11.2020 12:41 21,9 °C 11,9 °C 49 % 82 % 1024,6 hPa 0,0 l/m² 10,4 km/h (2 Bft) S-SO 167 ° 2 min 84 W/m² 8,9 °C 9,5 °C 16,1 km/h (3 Bft)
18.11.2020 12:42 21,9 °C 11,9 °C 49 % 82 % 1024,6 hPa 0,0 l/m² 9,3 km/h (2 Bft) S 181 ° 1 min 88 W/m² 8,9 °C 10,1 °C 12,9 km/h (3 Bft)
18.11.2020 12:43 21,9 °C 11,9 °C 49 % 82 % 1024,6 hPa 0,0 l/m² 9,3 km/h (2 Bft) S-SW 198 ° 1 min 93 W/m² 8,9 °C 10,1 °C 11,3 km/h (2 Bft)
18.11.2020 12:45 21,9 °C 12,0 °C 49 % 82 % 1024,7 hPa 0,0 l/m² 10,0 km/h (2 Bft) S-SW 200 ° 2 min 90 W/m² 9,0 °C 9,8 °C 17,7 km/h (3 Bft)
18.11.2020 12:47 21,9 °C 12,0 °C 49 % 82 % 1024,6 hPa 0,0 l/m² 10,8 km/h (2 Bft) S-SW 197 ° 2 min 107 W/m² 9,0 °C 9,4 °C 16,1 km/h (3 Bft)
18.11.2020 12:49 21,9 °C 12,0 °C 49 % 83 % 1024,5 hPa 0,0 l/m² 10,0 km/h (2 Bft) S 173 ° 2 min 114 W/m² 9,2 °C 9,8 °C 14,5 km/h (3 Bft)
18.11.2020 12:51 21,9 °C 12,0 °C 49 % 82 % 1024,5 hPa 0,0 l/m² 16,2 km/h (3 Bft) S-SW 207 ° 2 min 116 W/m² 9,0 °C 7,1 °C 25,7 km/h (4 Bft)
18.11.2020 12:52 21,9 °C 12,1 °C 49 % 82 % 1024,4 hPa 0,0 l/m² 17,0 km/h (3 Bft) S-SW 193 ° 1 min 120 W/m² 9,1 °C 7,0 °C 22,5 km/h (4 Bft)
18.11.2020 12:53 21,9 °C 12,1 °C 49 % 81 % 1024,4 hPa 0,0 l/m² 12,4 km/h (2 Bft) S 177 ° 1 min 123 W/m² 8,9 °C 8,8 °C 16,1 km/h (3 Bft)
18.11.2020 12:55 21,9 °C 12,1 °C 49 % 81 % 1024,3 hPa 0,0 l/m² 10,7 km/h (2 Bft) S-SW 202 ° 2 min 128 W/m² 8,9 °C 9,6 °C 16,1 km/h (3 Bft)
18.11.2020 12:57 21,9 °C 12,1 °C 49 % 82 % 1024,3 hPa 0,0 l/m² 12,3 km/h (2 Bft) S-SW 197 ° 2 min 125 W/m² 9,1 °C 8,8 °C 16,1 km/h (3 Bft)
18.11.2020 12:59 21,9 °C 12,1 °C 49 % 82 % 1024,3 hPa 0,0 l/m² 14,7 km/h (3 Bft) S-SW 202 ° 2 min 114 W/m² 9,1 °C 7,8 °C 20,9 km/h (4 Bft)
18.11.2020 13:01 21,9 °C 12,2 °C 49 % 81 % 1024,2 hPa 0,0 l/m² 12,6 km/h (3 Bft) S 173 ° 2 min 114 W/m² 9,0 °C 8,8 °C 16,1 km/h (3 Bft)
18.11.2020 13:02 21,9 °C 12,2 °C 49 % 82 % 1024,3 hPa 0,0 l/m² 11,1 km/h (2 Bft) S 185 ° 1 min 116 W/m² 9,2 °C 9,5 °C 14,5 km/h (3 Bft)
18.11.2020 13:03 21,9 °C 12,2 °C 49 % 82 % 1024,3 hPa 0,0 l/m² 9,7 km/h (2 Bft) S-SO 168 ° 1 min 114 W/m² 9,2 °C 10,2 °C 12,9 km/h (3 Bft)
18.11.2020 13:05 21,9 °C 12,2 °C 49 % 82 % 1024,2 hPa 0,0 l/m² 12,4 km/h (2 Bft) S 177 ° 2 min 102 W/m² 9,2 °C 8,9 °C 19,3 km/h (3 Bft)
18.11.2020 13:07 21,9 °C 12,2 °C 49 % 82 % 1024,2 hPa 0,0 l/m² 11,5 km/h (2 Bft) S-SW 198 ° 2 min 100 W/m² 9,2 °C 9,3 °C 14,5 km/h (3 Bft)
18.11.2020 13:09 21,9 °C 12,2 °C 49 % 82 % 1024,3 hPa 0,0 l/m² 10,9 km/h (2 Bft) S 175 ° 2 min 102 W/m² 9,2 °C 9,6 °C 14,5 km/h (3 Bft)
18.11.2020 13:11 21,9 °C 12,2 °C 49 % 82 % 1024,1 hPa 0,0 l/m² 13,0 km/h (3 Bft) S-SW 199 ° 2 min 91 W/m² 9,2 °C 8,6 °C 17,7 km/h (3 Bft)
18.11.2020 13:12 21,9 °C 12,2 °C 49 % 82 % 1024,1 hPa 0,0 l/m² 15,1 km/h (3 Bft) S 190 ° 1 min 88 W/m² 9,2 °C 7,8 °C 17,7 km/h (3 Bft)
18.11.2020 13:13 21,9 °C 12,2 °C 49 % 82 % 1024,1 hPa 0,0 l/m² 15,4 km/h (3 Bft) S-SW 212 ° 1 min 84 W/m² 9,2 °C 7,6 °C 16,1 km/h (3 Bft)
18.11.2020 13:15 21,9 °C 12,3 °C 49 % 81 % 1024,1 hPa 0,0 l/m² 14,5 km/h (3 Bft) S-SW 195 ° 2 min 84 W/m² 9,1 °C 8,1 °C 22,5 km/h (4 Bft)
18.11.2020 13:17 21,9 °C 12,3 °C 49 % 82 % 1024,2 hPa 0,0 l/m² 11,9 km/h (2 Bft) S 183 ° 2 min 84 W/m² 9,3 °C 9,2 °C 17,7 km/h (3 Bft)
18.11.2020 13:19 22,0 °C 12,2 °C 49 % 82 % 1024,1 hPa 0,0 l/m² 12,0 km/h (2 Bft) S 177 ° 2 min 74 W/m² 9,2 °C 9,0 °C 19,3 km/h (3 Bft)
18.11.2020 13:21 21,9 °C 12,2 °C 49 % 82 % 1024,1 hPa 0,0 l/m² 13,8 km/h (3 Bft) S 182 ° 2 min 72 W/m² 9,2 °C 8,3 °C 17,7 km/h (3 Bft)
18.11.2020 13:22 21,9 °C 12,2 °C 49 % 82 % 1024,1 hPa 0,0 l/m² 12,7 km/h (3 Bft) S-SW 199 ° 1 min 76 W/m² 9,2 °C 8,7 °C 17,7 km/h (3 Bft)
18.11.2020 13:23 21,9 °C 12,2 °C 49 % 82 % 1024,1 hPa 0,0 l/m² 10,7 km/h (2 Bft) S 176 ° 1 min 74 W/m² 9,2 °C 9,7 °C 11,3 km/h (2 Bft)
18.11.2020 13:25 22,0 °C 12,2 °C 49 % 82 % 1024,1 hPa 0,0 l/m² 11,2 km/h (2 Bft) S-SW 193 ° 2 min 77 W/m² 9,2 °C 9,4 °C 17,7 km/h (3 Bft)
18.11.2020 13:27 22,0 °C 12,2 °C 49 % 82 % 1024,1 hPa 0,0 l/m² 8,3 km/h (2 Bft) S 181 ° 2 min 83 W/m² 9,2 °C 11,0 °C 11,3 km/h (2 Bft)
18.11.2020 13:29 21,9 °C 12,2 °C 49 % 82 % 1024,0 hPa 0,0 l/m² 11,6 km/h (2 Bft) S 172 ° 2 min 81 W/m² 9,2 °C 9,2 °C 19,3 km/h (3 Bft)
18.11.2020 13:31 22,0 °C 12,2 °C 49 % 82 % 1024,0 hPa 0,0 l/m² 12,0 km/h (2 Bft) S 169 ° 2 min 83 W/m² 9,2 °C 9,0 °C 17,7 km/h (3 Bft)
18.11.2020 13:32 21,9 °C 12,3 °C 49 % 82 % 1024,0 hPa 0,0 l/m² 10,5 km/h (2 Bft) S-SO 150 ° 1 min 93 W/m² 9,3 °C 9,9 °C 12,9 km/h (3 Bft)
18.11.2020 13:33 21,9 °C 12,2 °C 49 % 82 % 1024,0 hPa 0,0 l/m² 11,2 km/h (2 Bft) S 182 ° 1 min 104 W/m² 9,2 °C 9,4 °C 16,1 km/h (3 Bft)
18.11.2020 13:35 22,0 °C 12,3 °C 49 % 82 % 1024,0 hPa 0,0 l/m² 12,3 km/h (2 Bft) S 183 ° 2 min 105 W/m² 9,3 °C 9,0 °C 19,3 km/h (3 Bft)
18.11.2020 13:37 22,0 °C 12,3 °C 49 % 82 % 1024,0 hPa 0,0 l/m² 11,5 km/h (2 Bft) S 190 ° 2 min 107 W/m² 9,3 °C 9,4 °C 19,3 km/h (3 Bft)
18.11.2020 13:39 22,0 °C 12,3 °C 49 % 82 % 1024,0 hPa 0,0 l/m² 11,1 km/h (2 Bft) S 181 ° 2 min 120 W/m² 9,3 °C 9,6 °C 19,3 km/h (3 Bft)
18.11.2020 13:41 22,0 °C 12,3 °C 49 % 82 % 1023,9 hPa 0,0 l/m² 13,0 km/h (3 Bft) S 177 ° 2 min 130 W/m² 9,3 °C 8,7 °C 19,3 km/h (3 Bft)
18.11.2020 13:42 22,0 °C 12,3 °C 49 % 82 % 1023,9 hPa 0,0 l/m² 13,9 km/h (3 Bft) S-SO 168 ° 1 min 123 W/m² 9,3 °C 8,4 °C 17,7 km/h (3 Bft)
18.11.2020 13:43 22,0 °C 12,3 °C 49 % 82 % 1023,9 hPa 0,0 l/m² 11,7 km/h (2 Bft) S 184 ° 1 min 118 W/m² 9,3 °C 9,3 °C 14,5 km/h (3 Bft)
18.11.2020 13:45 22,0 °C 12,3 °C 49 % 82 % 1023,9 hPa 0,0 l/m² 10,3 km/h (2 Bft) S 187 ° 2 min 130 W/m² 9,3 °C 10,0 °C 16,1 km/h (3 Bft)
18.11.2020 13:47 22,0 °C 12,4 °C 49 % 82 % 1023,9 hPa 0,0 l/m² 11,7 km/h (2 Bft) S-SO 163 ° 2 min 134 W/m² 9,4 °C 9,4 °C 16,1 km/h (3 Bft)
18.11.2020 13:49 22,0 °C 12,4 °C 49 % 82 % 1023,9 hPa 0,0 l/m² 13,9 km/h (3 Bft) S 175 ° 2 min 141 W/m² 9,4 °C 8,5 °C 17,7 km/h (3 Bft)
18.11.2020 13:51 22,1 °C 12,4 °C 49 % 82 % 1023,9 hPa 0,0 l/m² 12,6 km/h (3 Bft) S 180 ° 2 min 135 W/m² 9,4 °C 9,0 °C 19,3 km/h (3 Bft)
18.11.2020 13:52 22,0 °C 12,4 °C 49 % 81 % 1023,8 hPa 0,0 l/m² 13,7 km/h (3 Bft) S-SO 156 ° 1 min 132 W/m² 9,2 °C 8,6 °C 19,3 km/h (3 Bft)
18.11.2020 13:53 22,0 °C 12,4 °C 49 % 81 % 1023,8 hPa 0,0 l/m² 14,3 km/h (3 Bft) S 169 ° 1 min 135 W/m² 9,2 °C 8,3 °C 20,9 km/h (4 Bft)
18.11.2020 13:55 22,1 °C 12,4 °C 49 % 81 % 1023,8 hPa 0,0 l/m² 12,2 km/h (2 Bft) S-SW 198 ° 2 min 132 W/m² 9,2 °C 9,2 °C 17,7 km/h (3 Bft)
18.11.2020 13:57 22,1 °C 12,5 °C 49 % 82 % 1023,9 hPa 0,0 l/m² 11,2 km/h (2 Bft) S-SO 162 ° 2 min 137 W/m² 9,5 °C 9,8 °C 20,9 km/h (4 Bft)
18.11.2020 13:59 22,1 °C 12,5 °C 49 % 82 % 1023,8 hPa 0,0 l/m² 11,3 km/h (2 Bft) S 175 ° 2 min 144 W/m² 9,5 °C 9,7 °C 14,5 km/h (3 Bft)
18.11.2020 14:01 22,1 °C 12,5 °C 49 % 82 % 1023,7 hPa 0,0 l/m² 12,9 km/h (3 Bft) S-SO 167 ° 2 min 151 W/m² 9,5 °C 9,0 °C 20,9 km/h (4 Bft)
18.11.2020 14:02 22,1 °C 12,5 °C 49 % 82 % 1023,6 hPa 0,0 l/m² 14,6 km/h (3 Bft) S 171 ° 1 min 171 W/m² 9,5 °C 8,3 °C 20,9 km/h (4 Bft)
18.11.2020 14:03 22,1 °C 12,6 °C 49 % 81 % 1023,6 hPa 0,0 l/m² 14,1 km/h (3 Bft) S 180 ° 1 min 241 W/m² 9,4 °C 8,6 °C 17,7 km/h (3 Bft)
18.11.2020 14:05 22,1 °C 12,7 °C 49 % 82 % 1023,7 hPa 0,0 l/m² 14,8 km/h (3 Bft) S-SW 205 ° 2 min 258 W/m² 9,7 °C 8,5 °C 19,3 km/h (3 Bft)
18.11.2020 14:07 22,1 °C 12,8 °C 49 % 81 % 1023,6 hPa 0,0 l/m² 13,6 km/h (3 Bft) S 186 ° 2 min 279 W/m² 9,6 °C 9,1 °C 17,7 km/h (3 Bft)
18.11.2020 14:09 22,1 °C 13,0 °C 49 % 80 % 1023,6 hPa 0,0 l/m² 15,5 km/h (3 Bft) S 185 ° 2 min 239 W/m² 9,6 °C 8,6 °C 20,9 km/h (4 Bft)
18.11.2020 14:11 22,1 °C 12,9 °C 49 % 79 % 1023,6 hPa 0,0 l/m² 17,4 km/h (3 Bft) S-SW 198 ° 2 min 221 W/m² 9,3 °C 7,8 °C 22,5 km/h (4 Bft)
18.11.2020 14:12 22,1 °C 12,9 °C 49 % 80 % 1023,6 hPa 0,0 l/m² 11,8 km/h (2 Bft) S-SW 203 ° 1 min 216 W/m² 9,5 °C 9,9 °C 14,5 km/h (3 Bft)
18.11.2020 14:13 22,1 °C 12,9 °C 49 % 80 % 1023,6 hPa 0,0 l/m² 12,4 km/h (2 Bft) SW 219 ° 1 min 211 W/m² 9,5 °C 9,7 °C 19,3 km/h (3 Bft)
18.11.2020 14:15 22,1 °C 12,9 °C 49 % 80 % 1023,6 hPa 0,0 l/m² 14,4 km/h (3 Bft) S-SW 202 ° 2 min 185 W/m² 9,5 °C 8,9 °C 17,7 km/h (3 Bft)
18.11.2020 14:17 22,1 °C 12,8 °C 49 % 79 % 1023,6 hPa 0,0 l/m² 12,9 km/h (3 Bft) S-SW 207 ° 2 min 172 W/m² 9,2 °C 9,4 °C 17,7 km/h (3 Bft)
18.11.2020 14:19 22,1 °C 12,7 °C 49 % 81 % 1023,5 hPa 0,0 l/m² 14,8 km/h (3 Bft) S-SW 200 ° 2 min 183 W/m² 9,5 °C 8,5 °C 20,9 km/h (4 Bft)
18.11.2020 14:21 22,1 °C 12,7 °C 49 % 80 % 1023,5 hPa 0,0 l/m² 14,8 km/h (3 Bft) S-SW 209 ° 2 min 183 W/m² 9,3 °C 8,5 °C 19,3 km/h (3 Bft)
18.11.2020 14:22 22,1 °C 12,7 °C 49 % 80 % 1023,5 hPa 0,0 l/m² 15,2 km/h (3 Bft) S-SW 200 ° 1 min 181 W/m² 9,3 °C 8,3 °C 19,3 km/h (3 Bft)
18.11.2020 14:23 22,1 °C 12,7 °C 49 % 80 % 1023,5 hPa 0,0 l/m² 13,3 km/h (3 Bft) S-SW 200 ° 1 min 179 W/m² 9,3 °C 9,1 °C 16,1 km/h (3 Bft)
18.11.2020 14:25 22,1 °C 12,8 °C 49 % 80 % 1023,4 hPa 0,0 l/m² 12,9 km/h (3 Bft) S 184 ° 2 min 178 W/m² 9,4 °C 9,4 °C 17,7 km/h (3 Bft)
18.11.2020 14:27 22,1 °C 12,8 °C 49 % 80 % 1023,4 hPa 0,0 l/m² 17,2 km/h (3 Bft) S-SW 205 ° 2 min 172 W/m² 9,4 °C 7,8 °C 20,9 km/h (4 Bft)
18.11.2020 14:29 22,1 °C 12,8 °C 49 % 80 % 1023,4 hPa 0,0 l/m² 13,9 km/h (3 Bft) S 177 ° 2 min 169 W/m² 9,4 °C 8,9 °C 19,3 km/h (3 Bft)
18.11.2020 14:31 22,1 °C 12,8 °C 49 % 79 % 1023,4 hPa 0,0 l/m² 14,5 km/h (3 Bft) S-SW 192 ° 2 min 151 W/m² 9,2 °C 8,7 °C 19,3 km/h (3 Bft)
18.11.2020 14:32 22,1 °C 12,8 °C 49 % 79 % 1023,4 hPa 0,0 l/m² 14,8 km/h (3 Bft) S 186 ° 1 min 156 W/m² 9,2 °C 8,6 °C 17,7 km/h (3 Bft)
18.11.2020 14:33 22,1 °C 12,8 °C 49 % 80 % 1023,4 hPa 0,0 l/m² 15,9 km/h (3 Bft) S 189 ° 1 min 156 W/m² 9,4 °C 8,2 °C 19,3 km/h (3 Bft)
18.11.2020 14:35 22,2 °C 12,8 °C 49 % 80 % 1023,4 hPa 0,0 l/m² 14,9 km/h (3 Bft) S-SW 200 ° 2 min 155 W/m² 9,4 °C 8,6 °C 20,9 km/h (4 Bft)
18.11.2020 14:37 22,2 °C 12,8 °C 49 % 80 % 1023,3 hPa 0,0 l/m² 15,5 km/h (3 Bft) S 184 ° 2 min 149 W/m² 9,4 °C 8,3 °C 19,3 km/h (3 Bft)
18.11.2020 14:39 22,2 °C 12,8 °C 49 % 79 % 1023,3 hPa 0,0 l/m² 12,7 km/h (3 Bft) S 190 ° 2 min 139 W/m² 9,2 °C 9,4 °C 17,7 km/h (3 Bft)
18.11.2020 14:41 22,2 °C 12,8 °C 49 % 80 % 1023,3 hPa 0,0 l/m² 12,2 km/h (2 Bft) S-SW 195 ° 2 min 142 W/m² 9,4 °C 9,7 °C 19,3 km/h (3 Bft)
18.11.2020 14:42 22,2 °C 12,8 °C 49 % 79 % 1023,3 hPa 0,0 l/m² 15,4 km/h (3 Bft) SW 221 ° 1 min 139 W/m² 9,2 °C 8,4 °C 20,9 km/h (4 Bft)
18.11.2020 14:43 22,2 °C 12,8 °C 49 % 79 % 1023,3 hPa 0,0 l/m² 14,3 km/h (3 Bft) S-SW 200 ° 1 min 139 W/m² 9,2 °C 8,8 °C 17,7 km/h (3 Bft)
18.11.2020 14:45 22,2 °C 12,8 °C 49 % 79 % 1023,3 hPa 0,0 l/m² 12,4 km/h (2 Bft) S 187 ° 2 min 130 W/m² 9,2 °C 9,6 °C 16,1 km/h (3 Bft)
18.11.2020 14:47 22,2 °C 12,8 °C 49 % 80 % 1023,2 hPa 0,0 l/m² 12,1 km/h (2 Bft) S-SW 207 ° 2 min 128 W/m² 9,4 °C 9,7 °C 17,7 km/h (3 Bft)
18.11.2020 14:49 22,2 °C 12,8 °C 49 % 79 % 1023,1 hPa 0,0 l/m² 14,6 km/h (3 Bft) S-SW 203 ° 2 min 125 W/m² 9,2 °C 8,7 °C 19,3 km/h (3 Bft)
18.11.2020 14:51 22,2 °C 12,8 °C 49 % 79 % 1023,2 hPa 0,0 l/m² 11,8 km/h (2 Bft) SW 236 ° 2 min 109 W/m² 9,2 °C 9,8 °C 14,5 km/h (3 Bft)
18.11.2020 14:52 22,2 °C 12,7 °C 49 % 80 % 1023,3 hPa 0,0 l/m² 8,5 km/h (2 Bft) SW 217 ° 1 min 107 W/m² 9,3 °C 11,4 °C 9,7 km/h (2 Bft)
18.11.2020 14:53 22,2 °C 12,7 °C 49 % 80 % 1023,3 hPa 0,0 l/m² 8,0 km/h (2 Bft) SW 214 ° 1 min 107 W/m² 9,3 °C 11,7 °C 9,7 km/h (2 Bft)
18.11.2020 14:55 22,3 °C 12,7 °C 49 % 80 % 1023,3 hPa 0,0 l/m² 9,5 km/h (2 Bft) SW 215 ° 2 min 111 W/m² 9,3 °C 10,8 °C 14,5 km/h (3 Bft)
18.11.2020 14:57 22,2 °C 12,7 °C 49 % 80 % 1023,1 hPa 0,0 l/m² 9,2 km/h (2 Bft) S-SW 208 ° 2 min 111 W/m² 9,3 °C 11,0 °C 11,3 km/h (2 Bft)
18.11.2020 14:59 22,3 °C 12,7 °C 49 % 80 % 1023,2 hPa 0,0 l/m² 9,0 km/h (2 Bft) SW 217 ° 2 min 107 W/m² 9,3 °C 11,1 °C 12,9 km/h (3 Bft)
18.11.2020 15:01 22,3 °C 12,7 °C 48 % 80 % 1023,1 hPa 0,0 l/m² 6,8 km/h (2 Bft) S-SW 202 ° 2 min 70 W/m² 9,3 °C 12,5 °C 11,3 km/h (2 Bft)
18.11.2020 15:02 22,3 °C 12,6 °C 47 % 81 % 1023,2 hPa 0,0 l/m² 8,0 km/h (2 Bft) S-SW 192 ° 1 min 100 W/m² 9,4 °C 11,6 °C 11,3 km/h (2 Bft)
18.11.2020 15:03 22,3 °C 12,6 °C 47 % 80 % 1023,2 hPa 0,0 l/m² 7,0 km/h (2 Bft) S-SW 200 ° 1 min 98 W/m² 9,2 °C 12,2 °C 8,0 km/h (2 Bft)
18.11.2020 15:05 22,2 °C 12,7 °C 47 % 80 % 1023,1 hPa 0,0 l/m² 6,5 km/h (2 Bft) SW 217 ° 2 min 95 W/m² 9,3 °C 12,7 °C 9,7 km/h (2 Bft)
18.11.2020 15:07 22,2 °C 12,7 °C 46 % 80 % 1023,0 hPa 0,0 l/m² 4,5 km/h (1 Bft) S-SW 195 ° 2 min 93 W/m² 9,3 °C 12,7 °C 8,0 km/h (2 Bft)
18.11.2020 15:09 22,2 °C 12,6 °C 46 % 81 % 1023,0 hPa 0,0 l/m² 5,2 km/h (1 Bft) S 187 ° 2 min 86 W/m² 9,4 °C 12,6 °C 8,0 km/h (2 Bft)
18.11.2020 15:11 22,1 °C 12,6 °C 46 % 81 % 1022,9 hPa 0,0 l/m² 7,0 km/h (2 Bft) SW 224 ° 2 min 81 W/m² 9,4 °C 12,2 °C 9,7 km/h (2 Bft)
18.11.2020 15:12 22,1 °C 12,6 °C 46 % 81 % 1022,9 hPa 0,0 l/m² 6,4 km/h (2 Bft) SW 219 ° 1 min 81 W/m² 9,4 °C 12,6 °C 8,0 km/h (2 Bft)
18.11.2020 15:13 22,1 °C 12,4 °C 46 % 81 % 1022,9 hPa 0,0 l/m² 6,4 km/h (2 Bft) S-SW 205 ° 1 min 79 W/m² 9,2 °C 12,4 °C 8,0 km/h (2 Bft)
18.11.2020 15:15 22,1 °C 12,4 °C 45 % 81 % 1022,9 hPa 0,0 l/m² 7,1 km/h (2 Bft) SW 214 ° 2 min 79 W/m² 9,2 °C 11,9 °C 9,7 km/h (2 Bft)
18.11.2020 15:17 22,1 °C 12,5 °C 45 % 81 % 1022,9 hPa 0,0 l/m² 8,6 km/h (2 Bft) S-SW 196 ° 2 min 77 W/m² 9,3 °C 11,1 °C 11,3 km/h (2 Bft)
18.11.2020 15:19 22,0 °C 12,4 °C 45 % 81 % 1022,8 hPa 0,0 l/m² 6,7 km/h (2 Bft) S-SW 210 ° 2 min 74 W/m² 9,2 °C 12,2 °C 9,7 km/h (2 Bft)
18.11.2020 15:21 21,9 °C 12,4 °C 45 % 81 % 1022,8 hPa 0,0 l/m² 6,9 km/h (2 Bft) S-SW 195 ° 2 min 65 W/m² 9,2 °C 12,1 °C 9,7 km/h (2 Bft)
18.11.2020 15:22 21,9 °C 12,4 °C 45 % 81 % 1022,9 hPa 0,0 l/m² 6,9 km/h (2 Bft) S-SW 193 ° 1 min 65 W/m² 9,2 °C 12,1 °C 9,7 km/h (2 Bft)
18.11.2020 15:23 21,9 °C 12,4 °C 45 % 81 % 1022,9 hPa 0,0 l/m² 7,4 km/h (2 Bft) S-SW 197 ° 1 min 65 W/m² 9,2 °C 11,7 °C 9,7 km/h (2 Bft)
18.11.2020 15:25 21,9 °C 12,3 °C 45 % 81 % 1022,8 hPa 0,0 l/m² 6,8 km/h (2 Bft) S-SW 193 ° 2 min 62 W/m² 9,1 °C 12,0 °C 9,7 km/h (2 Bft)
18.11.2020 15:27 21,8 °C 12,3 °C 45 % 81 % 1022,8 hPa 0,0 l/m² 6,6 km/h (2 Bft) S-SW 195 ° 2 min 58 W/m² 9,1 °C 12,2 °C 11,3 km/h (2 Bft)
18.11.2020 15:29 21,8 °C 12,3 °C 45 % 81 % 1022,7 hPa 0,0 l/m² 8,5 km/h (2 Bft) S 188 ° 2 min 54 W/m² 9,1 °C 11,0 °C 11,3 km/h (2 Bft)
18.11.2020 15:31 21,8 °C 12,3 °C 45 % 81 % 1022,6 hPa 0,0 l/m² 8,0 km/h (2 Bft) S 186 ° 0 min 49 W/m² 9,1 °C 11,3 °C 9,7 km/h (2 Bft)
18.11.2020 15:32 21,8 °C 12,3 °C 45 % 81 % 1022,6 hPa 0,0 l/m² 5,6 km/h (2 Bft) S 180 ° 0 min 47 W/m² 9,1 °C 12,3 °C 6,4 km/h (2 Bft)
18.11.2020 15:33 21,8 °C 12,2 °C 45 % 81 % 1022,6 hPa 0,0 l/m² 4,6 km/h (1 Bft) S 180 ° 0 min 46 W/m² 9,0 °C 12,2 °C 6,4 km/h (2 Bft)
18.11.2020 15:35 21,8 °C 12,1 °C 45 % 82 % 1022,7 hPa 0,0 l/m² 4,1 km/h (1 Bft) S 180 ° 0 min 42 W/m² 9,1 °C 12,1 °C 4,8 km/h (1 Bft)
18.11.2020 15:37 21,8 °C 12,1 °C 45 % 82 % 1022,6 hPa 0,0 l/m² 3,4 km/h (1 Bft) S 180 ° 0 min 39 W/m² 9,1 °C 12,1 °C 4,8 km/h (1 Bft)
18.11.2020 15:39 21,7 °C 12,1 °C 45 % 82 % 1022,6 hPa 0,0 l/m² 3,0 km/h (1 Bft) S 180 ° 0 min 35 W/m² 9,1 °C 12,1 °C 4,8 km/h (1 Bft)
18.11.2020 15:41 21,7 °C 12,1 °C 45 % 82 % 1022,6 hPa 0,0 l/m² 3,9 km/h (1 Bft) S-SO 167 ° 0 min 32 W/m² 9,1 °C 12,1 °C 8,0 km/h (2 Bft)
18.11.2020 15:42 21,7 °C 12,1 °C 45 % 82 % 1022,5 hPa 0,0 l/m² 5,4 km/h (2 Bft) S-SO 167 ° 0 min 32 W/m² 9,1 °C 12,1 °C 6,4 km/h (2 Bft)
18.11.2020 15:43 21,7 °C 12,1 °C 45 % 82 % 1022,5 hPa 0,0 l/m² 5,3 km/h (1 Bft) S-SO 157 ° 0 min 30 W/m² 9,1 °C 12,1 °C 8,0 km/h (2 Bft)
18.11.2020 15:46 21,6 °C 12,2 °C 45 % 81 % 1022,5 hPa 0,0 l/m² 4,4 km/h (1 Bft) S-SO 150 ° 0 min 25 W/m² 9,0 °C 12,2 °C 8,0 km/h (2 Bft)
18.11.2020 15:47 21,6 °C 12,1 °C 45 % 81 % 1022,5 hPa 0,0 l/m² 4,8 km/h (1 Bft) S-SO 150 ° 0 min 25 W/m² 8,9 °C 12,1 °C 4,8 km/h (1 Bft)
18.11.2020 15:48 21,6 °C 12,1 °C 45 % 81 % 1022,5 hPa 0,0 l/m² 4,0 km/h (1 Bft) S-SO 150 ° 0 min 23 W/m² 8,9 °C 12,1 °C 4,8 km/h (1 Bft)
18.11.2020 15:49 21,6 °C 12,0 °C 45 % 81 % 1022,5 hPa 0,0 l/m² 4,7 km/h (1 Bft) S-SO 147 ° 0 min 23 W/m² 8,8 °C 12,0 °C 4,8 km/h (1 Bft)
18.11.2020 15:52 21,6 °C 11,8 °C 45 % 82 % 1022,6 hPa 0,0 l/m² 4,2 km/h (1 Bft) SO 144 ° 0 min 21 W/m² 8,8 °C 11,8 °C 6,4 km/h (2 Bft)
18.11.2020 15:53 21,6 °C 11,8 °C 45 % 82 % 1022,5 hPa 0,0 l/m² 4,0 km/h (1 Bft) SO 143 ° 0 min 19 W/m² 8,8 °C 11,8 °C 4,8 km/h (1 Bft)
18.11.2020 15:54 21,5 °C 11,8 °C 45 % 82 % 1022,5 hPa 0,0 l/m² 4,5 km/h (1 Bft) SO 143 ° 0 min 19 W/m² 8,8 °C 11,8 °C 6,4 km/h (2 Bft)
18.11.2020 15:56 21,5 °C 11,7 °C 45 % 82 % 1022,5 hPa 0,0 l/m² 4,2 km/h (1 Bft) SO 143 ° 0 min 18 W/m² 8,7 °C 11,7 °C 6,4 km/h (2 Bft)
18.11.2020 15:58 21,5 °C 11,6 °C 45 % 82 % 1022,5 hPa 0,0 l/m² 4,1 km/h (1 Bft) S-SO 148 ° 0 min 18 W/m² 8,6 °C 11,6 °C 6,4 km/h (2 Bft)
18.11.2020 16:00 21,4 °C 11,6 °C 45 % 82 % 1022,4 hPa 0,0 l/m² 3,9 km/h (1 Bft) SO 146 ° 0 min 16 W/m² 8,6 °C 11,6 °C 6,4 km/h (2 Bft)
18.11.2020 16:02 21,4 °C 11,4 °C 45 % 82 % 1022,4 hPa 0,0 l/m² 3,1 km/h (1 Bft) SO 146 ° 0 min 14 W/m² 8,4 °C 11,4 °C 4,8 km/h (1 Bft)
18.11.2020 16:03 21,4 °C 11,4 °C 45 % 82 % 1022,4 hPa 0,0 l/m² 3,7 km/h (1 Bft) SO 146 ° 0 min 12 W/m² 8,4 °C 11,4 °C 4,8 km/h (1 Bft)
18.11.2020 16:05 21,4 °C 11,4 °C 46 % 83 % 1022,4 hPa 0,0 l/m² 3,3 km/h (1 Bft) SO 146 ° 0 min 12 W/m² 8,6 °C 11,4 °C 4,8 km/h (1 Bft)
18.11.2020 16:07 21,4 °C 11,4 °C 45 % 83 % 1022,4 hPa 0,0 l/m² 3,0 km/h (1 Bft) SO 146 ° 0 min 11 W/m² 8,6 °C 11,4 °C 4,8 km/h (1 Bft)
18.11.2020 16:09 21,4 °C 11,4 °C 46 % 83 % 1022,4 hPa 0,0 l/m² 2,0 km/h (1 Bft) SO 146 ° 0 min 11 W/m² 8,6 °C 11,4 °C 3,2 km/h (1 Bft)
18.11.2020 16:11 21,4 °C 11,3 °C 46 % 83 % 1022,4 hPa 0,0 l/m² 1,3 km/h (1 Bft) SO 146 ° 0 min 9 W/m² 8,5 °C 11,3 °C 1,6 km/h (1 Bft)
18.11.2020 16:12 21,4 °C 11,3 °C 46 % 83 % 1022,4 hPa 0,0 l/m² 1,5 km/h (1 Bft) SO 146 ° 0 min 7 W/m² 8,5 °C 11,3 °C 3,2 km/h (1 Bft)
18.11.2020 16:13 21,4 °C 11,3 °C 46 % 83 % 1022,4 hPa 0,0 l/m² 1,9 km/h (1 Bft) SO 146 ° 0 min 7 W/m² 8,5 °C 11,3 °C 3,2 km/h (1 Bft)
18.11.2020 16:15 21,4 °C 11,2 °C 46 % 83 % 1022,4 hPa 0,0 l/m² 1,5 km/h (1 Bft) SO 146 ° 0 min 7 W/m² 8,4 °C 11,2 °C 3,2 km/h (1 Bft)
18.11.2020 16:17 21,4 °C 11,1 °C 46 % 83 % 1022,2 hPa 0,0 l/m² 1,8 km/h (1 Bft) SO 146 ° 0 min 5 W/m² 8,3 °C 11,1 °C 3,2 km/h (1 Bft)
18.11.2020 16:19 21,4 °C 10,9 °C 46 % 84 % 1022,3 hPa 0,0 l/m² 2,6 km/h (1 Bft) SO 146 ° 0 min 5 W/m² 8,3 °C 10,9 °C 3,2 km/h (1 Bft)
18.11.2020 16:21 21,5 °C 10,8 °C 46 % 84 % 1022,2 hPa 0,0 l/m² 2,8 km/h (1 Bft) SO 146 ° 0 min 5 W/m² 8,2 °C 10,8 °C 4,8 km/h (1 Bft)
18.11.2020 16:22 21,5 °C 10,8 °C 46 % 84 % 1022,2 hPa 0,0 l/m² 3,3 km/h (1 Bft) SO 146 ° 0 min 5 W/m² 8,2 °C 10,8 °C 4,8 km/h (1 Bft)
18.11.2020 16:23 21,5 °C 10,7 °C 46 % 84 % 1022,2 hPa 0,0 l/m² 2,8 km/h (1 Bft) SO 146 ° 0 min 0 W/m² 8,1 °C 10,7 °C 3,2 km/h (1 Bft)
18.11.2020 16:25 21,5 °C 10,7 °C 46 % 84 % 1022,2 hPa 0,0 l/m² 2,8 km/h (1 Bft) SO 146 ° 0 min 0 W/m² 8,1 °C 10,7 °C 4,8 km/h (1 Bft)
18.11.2020 16:27 21,6 °C 10,6 °C 46 % 84 % 1022,3 hPa 0,0 l/m² 2,6 km/h (1 Bft) SO 146 ° 0 min 0 W/m² 8,0 °C 10,6 °C 4,8 km/h (1 Bft)
18.11.2020 16:29 21,6 °C 10,5 °C 46 % 84 % 1022,2 hPa 0,0 l/m² 2,6 km/h (1 Bft) SO 146 ° 0 min 0 W/m² 7,9 °C 10,5 °C 4,8 km/h (1 Bft)
18.11.2020 16:31 21,6 °C 10,4 °C 47 % 84 % 1022,2 hPa 0,0 l/m² 1,9 km/h (1 Bft) SO 146 ° 0 min 0 W/m² 7,8 °C 10,4 °C 4,8 km/h (1 Bft)
18.11.2020 16:32 21,6 °C 10,4 °C 47 % 84 % 1022,3 hPa 0,0 l/m² 1,3 km/h (1 Bft) SO 146 ° 0 min 0 W/m² 7,8 °C 10,4 °C 3,2 km/h (1 Bft)
18.11.2020 16:33 21,6 °C 10,4 °C 47 % 84 % 1022,3 hPa 0,0 l/m² 1,6 km/h (1 Bft) SO 146 ° 0 min 0 W/m² 7,8 °C 10,4 °C 1,6 km/h (1 Bft)
18.11.2020 16:35 21,6 °C 10,3 °C 47 % 84 % 1022,2 hPa 0,0 l/m² 1,8 km/h (1 Bft) SO 146 ° 0 min 0 W/m² 7,7 °C 10,3 °C 3,2 km/h (1 Bft)
18.11.2020 16:37 21,6 °C 10,2 °C 47 % 84 % 1022,2 hPa 0,0 l/m² 1,8 km/h (1 Bft) SO 146 ° 0 min 0 W/m² 7,6 °C 10,2 °C 4,8 km/h (1 Bft)
18.11.2020 16:39 21,6 °C 10,2 °C 47 % 85 % 1022,3 hPa 0,0 l/m² 1,4 km/h (1 Bft) SO 146 ° 0 min 0 W/m² 7,8 °C 10,2 °C 3,2 km/h (1 Bft)
18.11.2020 16:41 21,6 °C 10,1 °C 47 % 85 % 1022,2 hPa 0,0 l/m² 1,1 km/h (1 Bft) SO 146 ° 0 min 0 W/m² 7,7 °C 10,1 °C 3,2 km/h (1 Bft)
18.11.2020 16:42 21,6 °C 10,1 °C 47 % 85 % 1022,2 hPa 0,0 l/m² 1,0 km/h (0 Bft) SO 146 ° 0 min 0 W/m² 7,7 °C 10,1 °C 3,2 km/h (1 Bft)
18.11.2020 16:43 21,6 °C 10,1 °C 47 % 85 % 1022,2 hPa 0,0 l/m² 2,1 km/h (1 Bft) SO 146 ° 0 min 0 W/m² 7,7 °C 10,1 °C 3,2 km/h (1 Bft)
18.11.2020 16:45 21,6 °C 10,0 °C 47 % 84 % 1022,3 hPa 0,0 l/m² 2,5 km/h (1 Bft) SO 146 ° 0 min 0 W/m² 7,4 °C 10,0 °C 4,8 km/h (1 Bft)
18.11.2020 16:47 21,6 °C 9,9 °C 47 % 84 % 1022,2 hPa 0,0 l/m² 0,9 km/h (0 Bft) SO 146 ° 0 min 0 W/m² 7,3 °C 9,9 °C 3,2 km/h (1 Bft)
18.11.2020 16:49 21,6 °C 9,8 °C 47 % 84 % 1022,1 hPa 0,0 l/m² 1,1 km/h (1 Bft) SO 146 ° 0 min 0 W/m² 7,2 °C 9,8 °C 3,2 km/h (1 Bft)
18.11.2020 16:51 21,6 °C 9,6 °C 47 % 85 % 1022,1 hPa 0,0 l/m² 0,1 km/h (0 Bft) SO 146 ° 0 min 0 W/m² 7,2 °C 9,6 °C 1,6 km/h (1 Bft)
18.11.2020 16:52 21,6 °C 9,6 °C 48 % 85 % 1022,1 hPa 0,0 l/m² 0,0 km/h (0 Bft) SO 146 ° 0 min 0 W/m² 7,2 °C 9,6 °C 0,0 km/h (0 Bft)
18.11.2020 16:53 21,6 °C 9,5 °C 48 % 85 % 1022,1 hPa 0,0 l/m² 0,0 km/h (0 Bft) SO 146 ° 0 min 0 W/m² 7,1 °C 9,5 °C 0,0 km/h (0 Bft)
18.11.2020 16:55 21,6 °C 9,5 °C 48 % 86 % 1022,1 hPa 0,0 l/m² 0,0 km/h (0 Bft) SO 146 ° 0 min 0 W/m² 7,3 °C 9,5 °C 0,0 km/h (0 Bft)
18.11.2020 16:57 21,7 °C 9,5 °C 48 % 86 % 1022,1 hPa 0,0 l/m² 0,4 km/h (0 Bft) SO 146 ° 0 min 0 W/m² 7,3 °C 9,5 °C 1,6 km/h (1 Bft)
18.11.2020 16:59 21,7 °C 9,4 °C 48 % 86 % 1022,1 hPa 0,0 l/m² 0,3 km/h (0 Bft) SO 146 ° 0 min 0 W/m² 7,2 °C 9,4 °C 1,6 km/h (1 Bft)
18.11.2020 17:01 21,7 °C 9,2 °C 48 % 86 % 1022,1 hPa 0,0 l/m² 0,0 km/h (0 Bft) SO 146 ° 0 min 0 W/m² 7,0 °C 9,2 °C 1,6 km/h (1 Bft)
18.11.2020 17:02 21,7 °C 9,2 °C 48 % 86 % 1022,0 hPa 0,0 l/m² 0,7 km/h (0 Bft) SO 146 ° 0 min 0 W/m² 7,0 °C 9,2 °C 1,6 km/h (1 Bft)
18.11.2020 17:03 21,7 °C 9,2 °C 48 % 86 % 1022,0 hPa 0,0 l/m² 0,1 km/h (0 Bft) SO 146 ° 0 min 0 W/m² 7,0 °C 9,2 °C 1,6 km/h (1 Bft)
18.11.2020 17:05 21,7 °C 9,1 °C 48 % 85 % 1022,1 hPa 0,0 l/m² 0,9 km/h (0 Bft) SO 146 ° 0 min 0 W/m² 6,7 °C 9,1 °C 1,6 km/h (1 Bft)
18.11.2020 17:07 21,7 °C 8,9 °C 48 % 86 % 1022,1 hPa 0,0 l/m² 1,8 km/h (1 Bft) SO 146 ° 0 min 0 W/m² 6,7 °C 8,9 °C 3,2 km/h (1 Bft)
18.11.2020 17:09 21,7 °C 8,8 °C 48 % 86 % 1022,0 hPa 0,0 l/m² 2,4 km/h (1 Bft) SO 146 ° 0 min 0 W/m² 6,6 °C 8,8 °C 3,2 km/h (1 Bft)
18.11.2020 17:11 21,7 °C 8,8 °C 48 % 87 % 1022,0 hPa 0,0 l/m² 1,6 km/h (1 Bft) SO 146 ° 0 min 0 W/m² 6,8 °C 8,8 °C 4,8 km/h (1 Bft)
18.11.2020 17:12 21,7 °C 8,8 °C 48 % 87 % 1022,0 hPa 0,0 l/m² 0,5 km/h (0 Bft) SO 146 ° 0 min 0 W/m² 6,8 °C 8,8 °C 1,6 km/h (1 Bft)
18.11.2020 17:13 21,7 °C 8,8 °C 48 % 87 % 1022,0 hPa 0,0 l/m² 1,3 km/h (1 Bft) SO 146 ° 0 min 0 W/m² 6,8 °C 8,8 °C 3,2 km/h (1 Bft)
18.11.2020 17:15 21,7 °C 8,8 °C 49 % 87 % 1022,0 hPa 0,0 l/m² 0,2 km/h (0 Bft) SO 146 ° 0 min 0 W/m² 6,8 °C 8,8 °C 1,6 km/h (1 Bft)
18.11.2020 17:17 21,7 °C 8,8 °C 49 % 87 % 1022,0 hPa 0,0 l/m² 0,5 km/h (0 Bft) SO 146 ° 0 min 0 W/m² 6,8 °C 8,8 °C 1,6 km/h (1 Bft)
18.11.2020 17:19 21,7 °C 8,7 °C 49 % 87 % 1022,0 hPa 0,0 l/m² 0,0 km/h (0 Bft) SO 146 ° 0 min 0 W/m² 6,7 °C 8,7 °C 1,6 km/h (1 Bft)
18.11.2020 17:21 21,7 °C 8,7 °C 49 % 87 % 1022,0 hPa 0,0 l/m² 0,9 km/h (0 Bft) SO 146 ° 0 min 0 W/m² 6,7 °C 8,7 °C 1,6 km/h (1 Bft)
18.11.2020 17:22 21,7 °C 8,6 °C 49 % 87 % 1022,1 hPa 0,0 l/m² 0,1 km/h (0 Bft) SO 146 ° 0 min 0 W/m² 6,6 °C 8,6 °C 1,6 km/h (1 Bft)
18.11.2020 17:23 21,7 °C 8,6 °C 49 % 87 % 1022,1 hPa 0,0 l/m² 0,5 km/h (0 Bft) SO 146 ° 0 min 0 W/m² 6,6 °C 8,6 °C 1,6 km/h (1 Bft)
18.11.2020 17:25 21,7 °C 8,5 °C 49 % 87 % 1022,0 hPa 0,0 l/m² 0,5 km/h (0 Bft) SO 146 ° 0 min 0 W/m² 6,5 °C 8,5 °C 1,6 km/h (1 Bft)
18.11.2020 17:27 21,7 °C 8,3 °C 49 % 86 % 1022,0 hPa 0,0 l/m² 0,8 km/h (0 Bft) SO 146 ° 0 min 0 W/m² 6,1 °C 8,3 °C 3,2 km/h (1 Bft)
18.11.2020 17:29 21,7 °C 8,1 °C 49 % 87 % 1021,9 hPa 0,0 l/m² 2,0 km/h (1 Bft) SO 146 ° 0 min 0 W/m² 6,1 °C 8,1 °C 3,2 km/h (1 Bft)
18.11.2020 17:31 21,8 °C 8,1 °C 49 % 87 % 1021,8 hPa 0,0 l/m² 2,1 km/h (1 Bft) SO 146 ° 0 min 0 W/m² 6,1 °C 8,1 °C 3,2 km/h (1 Bft)
18.11.2020 17:32 21,8 °C 8,1 °C 49 % 88 % 1021,8 hPa 0,0 l/m² 3,3 km/h (1 Bft) SO 146 ° 0 min 0 W/m² 6,2 °C 8,1 °C 4,8 km/h (1 Bft)
18.11.2020 17:33 21,8 °C 8,1 °C 49 % 88 % 1021,8 hPa 0,0 l/m² 2,6 km/h (1 Bft) SO 146 ° 0 min 0 W/m² 6,2 °C 8,1 °C 3,2 km/h (1 Bft)
18.11.2020 17:35 21,8 °C 8,2 °C 49 % 88 % 1021,8 hPa 0,0 l/m² 3,2 km/h (1 Bft) SO 146 ° 0 min 0 W/m² 6,3 °C 8,2 °C 4,8 km/h (1 Bft)
18.11.2020 17:37 21,8 °C 8,2 °C 49 % 88 % 1021,8 hPa 0,0 l/m² 1,2 km/h (1 Bft) SO 146 ° 0 min 0 W/m² 6,3 °C 8,2 °C 3,2 km/h (1 Bft)
18.11.2020 17:39 21,8 °C 8,2 °C 49 % 88 % 1021,8 hPa 0,0 l/m² 0,1 km/h (0 Bft) SO 146 ° 0 min 0 W/m² 6,3 °C 8,2 °C 1,6 km/h (1 Bft)
18.11.2020 17:41 21,8 °C 8,1 °C 50 % 88 % 1021,7 hPa 0,0 l/m² 0,2 km/h (0 Bft) SO 146 ° 0 min 0 W/m² 6,2 °C 8,1 °C 1,6 km/h (1 Bft)
18.11.2020 17:42 21,8 °C 8,1 °C 50 % 88 % 1021,7 hPa 0,0 l/m² 0,0 km/h (0 Bft) SO 146 ° 0 min 0 W/m² 6,2 °C 8,1 °C 0,0 km/h (0 Bft)
18.11.2020 17:43 21,8 °C 8,1 °C 50 % 88 % 1021,7 hPa 0,0 l/m² 0,0 km/h (0 Bft) SO 146 ° 0 min 0 W/m² 6,2 °C 8,1 °C 0,0 km/h (0 Bft)
18.11.2020 17:45 21,8 °C 8,0 °C 50 % 88 % 1021,6 hPa 0,0 l/m² 0,0 km/h (0 Bft) SO 146 ° 0 min 0 W/m² 6,1 °C 8,0 °C 0,0 km/h (0 Bft)
18.11.2020 17:47 21,8 °C 7,9 °C 50 % 88 % 1021,7 hPa 0,0 l/m² 0,0 km/h (0 Bft) SO 146 ° 0 min 0 W/m² 6,0 °C 7,9 °C 0,0 km/h (0 Bft)
18.11.2020 17:49 21,8 °C 7,9 °C 50 % 88 % 1021,6 hPa 0,0 l/m² 0,0 km/h (0 Bft) SO 146 ° 0 min 0 W/m² 6,0 °C 7,9 °C 0,0 km/h (0 Bft)
18.11.2020 17:51 21,8 °C 7,8 °C 50 % 88 % 1021,6 hPa 0,0 l/m² 1,2 km/h (1 Bft) SO 146 ° 0 min 0 W/m² 5,9 °C 7,8 °C 3,2 km/h (1 Bft)
18.11.2020 17:52 21,8 °C 7,8 °C 50 % 88 % 1021,6 hPa 0,0 l/m² 2,9 km/h (1 Bft) SO 146 ° 0 min 0 W/m² 5,9 °C 7,8 °C 3,2 km/h (1 Bft)
18.11.2020 17:54 21,8 °C 7,8 °C 50 % 88 % 1021,6 hPa 0,0 l/m² 2,8 km/h (1 Bft) SO 146 ° 0 min 0 W/m² 5,9 °C 7,8 °C 4,8 km/h (1 Bft)
18.11.2020 17:56 21,8 °C 7,9 °C 50 % 89 % 1021,5 hPa 0,0 l/m² 2,3 km/h (1 Bft) SO 146 ° 0 min 0 W/m² 6,2 °C 7,9 °C 3,2 km/h (1 Bft)
18.11.2020 17:58 21,8 °C 7,9 °C 50 % 89 % 1021,5 hPa 0,0 l/m² 2,6 km/h (1 Bft) SO 146 ° 0 min 0 W/m² 6,2 °C 7,9 °C 4,8 km/h (1 Bft)
18.11.2020 18:00 21,8 °C 8,0 °C 50 % 89 % 1021,5 hPa 0,0 l/m² 3,4 km/h (1 Bft) SO 141 ° 0 min 0 W/m² 6,3 °C 8,0 °C 6,4 km/h (2 Bft)
18.11.2020 18:02 21,8 °C 8,0 °C 50 % 88 % 1021,4 hPa 0,0 l/m² 2,6 km/h (1 Bft) SO 141 ° 0 min 0 W/m² 6,1 °C 8,0 °C 4,8 km/h (1 Bft)
18.11.2020 18:03 21,8 °C 7,9 °C 50 % 88 % 1021,4 hPa 0,0 l/m² 2,9 km/h (1 Bft) SO 141 ° 0 min 0 W/m² 6,0 °C 7,9 °C 4,8 km/h (1 Bft)
18.11.2020 18:05 21,8 °C 7,9 °C 50 % 88 % 1021,5 hPa 0,0 l/m² 2,7 km/h (1 Bft) SO 140 ° 0 min 0 W/m² 6,0 °C 7,9 °C 4,8 km/h (1 Bft)
18.11.2020 18:07 21,8 °C 7,9 °C 50 % 88 % 1021,3 hPa 0,0 l/m² 3,2 km/h (1 Bft) SO 140 ° 0 min 0 W/m² 6,0 °C 7,9 °C 6,4 km/h (2 Bft)
18.11.2020 18:09 21,8 °C 7,9 °C 50 % 88 % 1021,3 hPa 0,0 l/m² 3,5 km/h (1 Bft) SO 140 ° 0 min 0 W/m² 6,0 °C 7,9 °C 6,4 km/h (2 Bft)
18.11.2020 18:11 21,8 °C 7,8 °C 50 % 88 % 1021,2 hPa 0,0 l/m² 2,8 km/h (1 Bft) SO 140 ° 0 min 0 W/m² 5,9 °C 7,8 °C 3,2 km/h (1 Bft)
18.11.2020 18:12 21,8 °C 7,8 °C 50 % 88 % 1021,3 hPa 0,0 l/m² 3,0 km/h (1 Bft) SO 140 ° 0 min 0 W/m² 5,9 °C 7,8 °C 4,8 km/h (1 Bft)
18.11.2020 18:13 21,8 °C 7,8 °C 50 % 88 % 1021,3 hPa 0,0 l/m² 2,6 km/h (1 Bft) SO 140 ° 0 min 0 W/m² 5,9 °C 7,8 °C 3,2 km/h (1 Bft)
18.11.2020 18:15 21,8 °C 7,8 °C 50 % 88 % 1021,3 hPa 0,0 l/m² 2,9 km/h (1 Bft) SO 140 ° 0 min 0 W/m² 5,9 °C 7,8 °C 4,8 km/h (1 Bft)
18.11.2020 18:17 21,8 °C 7,8 °C 50 % 88 % 1021,2 hPa 0,0 l/m² 3,1 km/h (1 Bft) S-SO 157 ° 0 min 0 W/m² 5,9 °C 7,8 °C 6,4 km/h (2 Bft)
18.11.2020 18:19 21,8 °C 7,8 °C 50 % 88 % 1021,1 hPa 0,0 l/m² 3,2 km/h (1 Bft) S-SO 153 ° 0 min 0 W/m² 5,9 °C 7,8 °C 4,8 km/h (1 Bft)
18.11.2020 18:21 21,8 °C 7,8 °C 50 % 88 % 1021,0 hPa 0,0 l/m² 4,1 km/h (1 Bft) SO 146 ° 0 min 0 W/m² 5,9 °C 7,8 °C 6,4 km/h (2 Bft)
18.11.2020 18:22 21,8 °C 7,8 °C 50 % 88 % 1021,0 hPa 0,0 l/m² 4,0 km/h (1 Bft) SO 146 ° 0 min 0 W/m² 5,9 °C 7,8 °C 6,4 km/h (2 Bft)
18.11.2020 18:23 21,8 °C 7,9 °C 50 % 88 % 1021,0 hPa 0,0 l/m² 4,2 km/h (1 Bft) SO 138 ° 0 min 0 W/m² 6,0 °C 7,9 °C 4,8 km/h (1 Bft)
18.11.2020 18:25 21,8 °C 7,9 °C 50 % 88 % 1021,1 hPa 0,0 l/m² 4,1 km/h (1 Bft) SO 138 ° 0 min 0 W/m² 6,0 °C 7,9 °C 4,8 km/h (1 Bft)
18.11.2020 18:27 21,8 °C 7,9 °C 50 % 88 % 1021,0 hPa 0,0 l/m² 4,6 km/h (1 Bft) SO 131 ° 0 min 0 W/m² 6,0 °C 7,9 °C 6,4 km/h (2 Bft)
18.11.2020 18:29 21,8 °C 7,9 °C 50 % 88 % 1021,0 hPa 0,0 l/m² 4,1 km/h (1 Bft) SO 134 ° 0 min 0 W/m² 6,0 °C 7,9 °C 6,4 km/h (2 Bft)
18.11.2020 18:31 21,8 °C 8,0 °C 50 % 88 % 1020,9 hPa 0,0 l/m² 3,9 km/h (1 Bft) SO 134 ° 0 min 0 W/m² 6,1 °C 8,0 °C 4,8 km/h (1 Bft)
18.11.2020 18:32 21,8 °C 8,1 °C 50 % 88 % 1020,9 hPa 0,0 l/m² 3,3 km/h (1 Bft) SO 134 ° 0 min 0 W/m² 6,2 °C 8,1 °C 4,8 km/h (1 Bft)
18.11.2020 18:33 21,8 °C 8,1 °C 50 % 88 % 1020,9 hPa 0,0 l/m² 4,1 km/h (1 Bft) SO 132 ° 0 min 0 W/m² 6,2 °C 8,1 °C 4,8 km/h (1 Bft)
18.11.2020 18:35 21,8 °C 8,1 °C 50 % 88 % 1020,9 hPa 0,0 l/m² 4,5 km/h (1 Bft) O-SO 115 ° 0 min 0 W/m² 6,2 °C 8,1 °C 6,4 km/h (2 Bft)
18.11.2020 18:37 21,8 °C 8,1 °C 50 % 88 % 1021,0 hPa 0,0 l/m² 5,3 km/h (1 Bft) SO 126 ° 0 min 0 W/m² 6,2 °C 8,1 °C 6,4 km/h (2 Bft)
18.11.2020 18:39 21,8 °C 8,1 °C 50 % 88 % 1020,9 hPa 0,0 l/m² 4,1 km/h (1 Bft) SO 125 ° 0 min 0 W/m² 6,2 °C 8,1 °C 6,4 km/h (2 Bft)
18.11.2020 18:41 21,8 °C 8,2 °C 50 % 88 % 1020,9 hPa 0,0 l/m² 4,3 km/h (1 Bft) SO 145 ° 0 min 0 W/m² 6,3 °C 8,2 °C 8,0 km/h (2 Bft)
18.11.2020 18:42 21,8 °C 8,2 °C 50 % 88 % 1020,9 hPa 0,0 l/m² 3,5 km/h (1 Bft) S-SO 158 ° 0 min 0 W/m² 6,3 °C 8,2 °C 4,8 km/h (1 Bft)
18.11.2020 18:43 21,8 °C 8,1 °C 50 % 88 % 1020,9 hPa 0,0 l/m² 2,7 km/h (1 Bft) S-SO 158 ° 0 min 0 W/m² 6,2 °C 8,1 °C 4,8 km/h (1 Bft)
18.11.2020 18:45 21,8 °C 8,2 °C 50 % 87 % 1020,8 hPa 0,0 l/m² 3,4 km/h (1 Bft) S-SO 159 ° 0 min 0 W/m² 6,2 °C 8,2 °C 9,7 km/h (2 Bft)
18.11.2020 18:47 21,8 °C 8,2 °C 50 % 87 % 1020,9 hPa 0,0 l/m² 3,2 km/h (1 Bft) S-SO 153 ° 0 min 0 W/m² 6,2 °C 8,2 °C 6,4 km/h (2 Bft)
18.11.2020 18:49 21,8 °C 8,2 °C 50 % 87 % 1020,9 hPa 0,0 l/m² 2,2 km/h (1 Bft) S-SO 152 ° 0 min 0 W/m² 6,2 °C 8,2 °C 4,8 km/h (1 Bft)
18.11.2020 18:51 21,8 °C 8,2 °C 50 % 87 % 1020,9 hPa 0,0 l/m² 3,3 km/h (1 Bft) S-SO 160 ° 0 min 0 W/m² 6,2 °C 8,2 °C 8,0 km/h (2 Bft)
18.11.2020 18:52 21,8 °C 8,2 °C 50 % 87 % 1020,9 hPa 0,0 l/m² 5,0 km/h (1 Bft) S-SO 157 ° 0 min 0 W/m² 6,2 °C 8,2 °C 8,0 km/h (2 Bft)
18.11.2020 18:53 21,8 °C 8,2 °C 50 % 87 % 1020,9 hPa 0,0 l/m² 6,7 km/h (2 Bft) SO 142 ° 0 min 0 W/m² 6,2 °C 8,0 °C 9,7 km/h (2 Bft)
18.11.2020 18:55 21,8 °C 8,2 °C 51 % 87 % 1020,8 hPa 0,0 l/m² 7,1 km/h (2 Bft) S-SO 149 ° 0 min 0 W/m² 6,2 °C 7,7 °C 11,3 km/h (2 Bft)
18.11.2020 18:57 21,8 °C 8,2 °C 51 % 87 % 1020,9 hPa 0,0 l/m² 8,2 km/h (2 Bft) S-SO 150 ° 0 min 0 W/m² 6,2 °C 6,8 °C 14,5 km/h (3 Bft)
18.11.2020 18:59 21,8 °C 8,2 °C 51 % 87 % 1020,9 hPa 0,0 l/m² 8,1 km/h (2 Bft) S-SO 166 ° 0 min 0 W/m² 6,2 °C 6,9 °C 11,3 km/h (2 Bft)
18.11.2020 19:01 21,8 °C 8,3 °C 51 % 87 % 1020,9 hPa 0,0 l/m² 7,9 km/h (2 Bft) S-SO 161 ° 0 min 0 W/m² 6,3 °C 7,1 °C 11,3 km/h (2 Bft)
18.11.2020 19:02 21,8 °C 8,3 °C 51 % 87 % 1020,8 hPa 0,0 l/m² 5,0 km/h (1 Bft) S-SO 162 ° 0 min 0 W/m² 6,3 °C 8,3 °C 8,0 km/h (2 Bft)
18.11.2020 19:03 21,8 °C 8,3 °C 51 % 87 % 1020,8 hPa 0,0 l/m² 4,7 km/h (1 Bft) S-SO 162 ° 0 min 0 W/m² 6,3 °C 8,3 °C 6,4 km/h (2 Bft)
18.11.2020 19:05 21,8 °C 8,3 °C 51 % 86 % 1020,8 hPa 0,0 l/m² 5,5 km/h (2 Bft) S-SO 158 ° 0 min 0 W/m² 6,1 °C 8,3 °C 9,7 km/h (2 Bft)
18.11.2020 19:07 21,8 °C 8,3 °C 50 % 86 % 1020,8 hPa 0,0 l/m² 6,2 km/h (2 Bft) S-SO 163 ° 0 min 0 W/m² 6,1 °C 8,3 °C 9,7 km/h (2 Bft)
18.11.2020 19:09 21,8 °C 8,4 °C 50 % 86 % 1020,8 hPa 0,0 l/m² 3,4 km/h (1 Bft) S-SO 148 ° 0 min 0 W/m² 6,2 °C 8,4 °C 8,0 km/h (2 Bft)
18.11.2020 19:11 21,8 °C 8,4 °C 50 % 86 % 1020,8 hPa 0,0 l/m² 6,5 km/h (2 Bft) S-SO 148 ° 0 min 0 W/m² 6,2 °C 8,3 °C 9,7 km/h (2 Bft)
18.11.2020 19:12 21,8 °C 8,4 °C 50 % 86 % 1020,8 hPa 0,0 l/m² 7,2 km/h (2 Bft) SO 138 ° 0 min 0 W/m² 6,2 °C 7,8 °C 9,7 km/h (2 Bft)
18.11.2020 19:13 21,8 °C 8,4 °C 50 % 85 % 1020,8 hPa 0,0 l/m² 6,0 km/h (2 Bft) SO 146 ° 0 min 0 W/m² 6,0 °C 8,4 °C 12,9 km/h (3 Bft)
18.11.2020 19:15 21,8 °C 8,5 °C 50 % 85 % 1020,7 hPa 0,0 l/m² 4,8 km/h (1 Bft) SO 136 ° 0 min 0 W/m² 6,1 °C 8,5 °C 8,0 km/h (2 Bft)
18.11.2020 19:17 21,8 °C 8,5 °C 51 % 85 % 1020,7 hPa 0,0 l/m² 3,5 km/h (1 Bft) SO 143 ° 0 min 0 W/m² 6,1 °C 8,5 °C 6,4 km/h (2 Bft)
18.11.2020 19:19 21,8 °C 8,5 °C 51 % 85 % 1020,7 hPa 0,0 l/m² 5,1 km/h (1 Bft) SO 137 ° 0 min 0 W/m² 6,1 °C 8,5 °C 6,4 km/h (2 Bft)
18.11.2020 19:21 21,8 °C 8,6 °C 51 % 84 % 1020,6 hPa 0,0 l/m² 4,5 km/h (1 Bft) SO 146 ° 0 min 0 W/m² 6,1 °C 8,6 °C 8,0 km/h (2 Bft)
18.11.2020 19:22 21,8 °C 8,5 °C 51 % 84 % 1020,6 hPa 0,0 l/m² 5,4 km/h (2 Bft) S-SO 148 ° 0 min 0 W/m² 6,0 °C 8,5 °C 9,7 km/h (2 Bft)
18.11.2020 19:23 21,8 °C 8,5 °C 51 % 85 % 1020,6 hPa 0,0 l/m² 4,3 km/h (1 Bft) S-SO 153 ° 0 min 0 W/m² 6,1 °C 8,5 °C 6,4 km/h (2 Bft)
18.11.2020 19:25 21,8 °C 8,6 °C 51 % 84 % 1020,6 hPa 0,0 l/m² 5,1 km/h (1 Bft) S-SO 164 ° 0 min 0 W/m² 6,1 °C 8,6 °C 8,0 km/h (2 Bft)
18.11.2020 19:27 21,8 °C 8,6 °C 51 % 84 % 1020,6 hPa 0,0 l/m² 5,3 km/h (1 Bft) S-SO 157 ° 0 min 0 W/m² 6,1 °C 8,6 °C 11,3 km/h (2 Bft)
18.11.2020 19:29 21,8 °C 8,5 °C 51 % 84 % 1020,6 hPa 0,0 l/m² 6,3 km/h (2 Bft) S-SO 161 ° 0 min 0 W/m² 6,0 °C 8,5 °C 9,7 km/h (2 Bft)
18.11.2020 19:31 21,8 °C 8,6 °C 51 % 84 % 1020,6 hPa 0,0 l/m² 5,0 km/h (1 Bft) S-SO 168 ° 0 min 0 W/m² 6,1 °C 8,6 °C 8,0 km/h (2 Bft)
18.11.2020 19:32 21,8 °C 8,5 °C 51 % 84 % 1020,5 hPa 0,0 l/m² 4,9 km/h (1 Bft) S 170 ° 0 min 0 W/m² 6,0 °C 8,5 °C 8,0 km/h (2 Bft)
18.11.2020 19:33 21,8 °C 8,5 °C 51 % 84 % 1020,5 hPa 0,0 l/m² 5,4 km/h (2 Bft) S 182 ° 0 min 0 W/m² 6,0 °C 8,5 °C 8,0 km/h (2 Bft)
18.11.2020 19:35 21,8 °C 8,5 °C 51 % 84 % 1020,4 hPa 0,0 l/m² 6,0 km/h (2 Bft) S 171 ° 0 min 0 W/m² 6,0 °C 8,5 °C 11,3 km/h (2 Bft)
18.11.2020 19:37 21,8 °C 8,6 °C 51 % 84 % 1020,5 hPa 0,0 l/m² 6,9 km/h (2 Bft) S-SO 162 ° 0 min 0 W/m² 6,1 °C 8,2 °C 9,7 km/h (2 Bft)
18.11.2020 19:39 21,8 °C 8,6 °C 51 % 84 % 1020,4 hPa 0,0 l/m² 8,3 km/h (2 Bft) S 169 ° 0 min 0 W/m² 6,1 °C 7,2 °C 12,9 km/h (3 Bft)
18.11.2020 19:41 21,8 °C 8,5 °C 50 % 84 % 1020,4 hPa 0,0 l/m² 9,5 km/h (2 Bft) S-SO 156 ° 0 min 0 W/m² 6,0 °C 6,3 °C 12,9 km/h (3 Bft)
18.11.2020 19:42 21,8 °C 8,6 °C 50 % 84 % 1020,4 hPa 0,0 l/m² 11,8 km/h (2 Bft) S-SO 162 ° 0 min 0 W/m² 6,1 °C 5,0 °C 16,1 km/h (3 Bft)
18.11.2020 19:43 21,8 °C 8,6 °C 50 % 84 % 1020,4 hPa 0,0 l/m² 10,9 km/h (2 Bft) S-SO 149 ° 0 min 0 W/m² 6,1 °C 5,5 °C 14,5 km/h (3 Bft)
18.11.2020 19:45 21,8 °C 8,6 °C 50 % 84 % 1020,3 hPa 0,0 l/m² 12,4 km/h (2 Bft) S 182 ° 0 min 0 W/m² 6,1 °C 4,7 °C 16,1 km/h (3 Bft)
18.11.2020 19:47 21,8 °C 8,6 °C 50 % 84 % 1020,3 hPa 0,0 l/m² 11,9 km/h (2 Bft) S-SO 156 ° 0 min 0 W/m² 6,1 °C 5,0 °C 16,1 km/h (3 Bft)
18.11.2020 19:49 21,8 °C 8,6 °C 50 % 84 % 1020,3 hPa 0,0 l/m² 10,1 km/h (2 Bft) S 175 ° 0 min 0 W/m² 6,1 °C 6,0 °C 14,5 km/h (3 Bft)
18.11.2020 19:51 21,8 °C 8,6 °C 51 % 83 % 1020,3 hPa 0,0 l/m² 9,1 km/h (2 Bft) S-SO 163 ° 0 min 0 W/m² 5,9 °C 6,6 °C 14,5 km/h (3 Bft)
18.11.2020 19:52 21,8 °C 8,6 °C 51 % 83 % 1020,3 hPa 0,0 l/m² 9,4 km/h (2 Bft) S 173 ° 0 min 0 W/m² 5,9 °C 6,4 °C 12,9 km/h (3 Bft)
18.11.2020 19:54 21,8 °C 8,7 °C 51 % 83 % 1020,3 hPa 0,0 l/m² 8,2 km/h (2 Bft) S-SO 165 ° 0 min 0 W/m² 6,0 °C 7,3 °C 11,3 km/h (2 Bft)
18.11.2020 19:56 21,8 °C 8,6 °C 51 % 83 % 1020,3 hPa 0,0 l/m² 9,5 km/h (2 Bft) S-SO 161 ° 0 min 0 W/m² 5,9 °C 6,4 °C 12,9 km/h (3 Bft)
18.11.2020 19:58 21,8 °C 8,7 °C 51 % 83 % 1020,2 hPa 0,0 l/m² 9,4 km/h (2 Bft) S 176 ° 0 min 0 W/m² 6,0 °C 6,5 °C 12,9 km/h (3 Bft)
18.11.2020 20:00 21,9 °C 8,7 °C 51 % 83 % 1020,2 hPa 0,0 l/m² 8,7 km/h (2 Bft) S 191 ° 0 min 0 W/m² 6,0 °C 7,0 °C 14,5 km/h (3 Bft)
18.11.2020 20:02 21,9 °C 8,7 °C 51 % 83 % 1020,1 hPa 0,0 l/m² 9,4 km/h (2 Bft) S 175 ° 0 min 0 W/m² 6,0 °C 6,5 °C 12,9 km/h (3 Bft)
18.11.2020 20:03 21,9 °C 8,6 °C 51 % 83 % 1020,1 hPa 0,0 l/m² 11,3 km/h (2 Bft) S-SO 163 ° 0 min 0 W/m² 5,9 °C 5,3 °C 14,5 km/h (3 Bft)
18.11.2020 20:05 21,9 °C 8,6 °C 51 % 83 % 1020,1 hPa 0,0 l/m² 11,1 km/h (2 Bft) S-SO 150 ° 0 min 0 W/m² 5,9 °C 5,4 °C 16,1 km/h (3 Bft)
18.11.2020 20:07 21,9 °C 8,6 °C 51 % 83 % 1020,1 hPa 0,0 l/m² 10,4 km/h (2 Bft) S-SO 163 ° 0 min 0 W/m² 5,9 °C 5,8 °C 14,5 km/h (3 Bft)
18.11.2020 20:09 21,9 °C 8,7 °C 51 % 83 % 1020,1 hPa 0,0 l/m² 10,4 km/h (2 Bft) S-SO 148 ° 0 min 0 W/m² 6,0 °C 5,9 °C 14,5 km/h (3 Bft)
18.11.2020 20:11 21,9 °C 8,6 °C 51 % 82 % 1020,0 hPa 0,0 l/m² 11,0 km/h (2 Bft) S-SO 160 ° 0 min 0 W/m² 5,7 °C 5,5 °C 12,9 km/h (3 Bft)
18.11.2020 20:12 21,9 °C 8,6 °C 51 % 82 % 1019,9 hPa 0,0 l/m² 10,9 km/h (2 Bft) S-SO 148 ° 0 min 0 W/m² 5,7 °C 5,5 °C 12,9 km/h (3 Bft)
18.11.2020 20:13 21,9 °C 8,6 °C 51 % 82 % 1019,9 hPa 0,0 l/m² 10,4 km/h (2 Bft) S-SO 155 ° 0 min 0 W/m² 5,7 °C 5,8 °C 12,9 km/h (3 Bft)
18.11.2020 20:15 21,9 °C 8,6 °C 51 % 82 % 1019,9 hPa 0,0 l/m² 10,9 km/h (2 Bft) S-SO 151 ° 0 min 0 W/m² 5,7 °C 5,5 °C 16,1 km/h (3 Bft)
18.11.2020 20:17 21,9 °C 8,6 °C 51 % 82 % 1019,9 hPa 0,0 l/m² 9,5 km/h (2 Bft) SO 143 ° 0 min 0 W/m² 5,7 °C 6,4 °C 12,9 km/h (3 Bft)
18.11.2020 20:19 21,9 °C 8,6 °C 51 % 82 % 1019,9 hPa 0,0 l/m² 10,8 km/h (2 Bft) SO 138 ° 0 min 0 W/m² 5,7 °C 5,6 °C 17,7 km/h (3 Bft)
18.11.2020 20:21 21,9 °C 8,6 °C 51 % 82 % 1019,9 hPa 0,0 l/m² 9,7 km/h (2 Bft) S-SO 153 ° 0 min 0 W/m² 5,7 °C 6,2 °C 14,5 km/h (3 Bft)
18.11.2020 20:22 21,9 °C 8,6 °C 51 % 82 % 1019,8 hPa 0,0 l/m² 10,1 km/h (2 Bft) SO 146 ° 0 min 0 W/m² 5,7 °C 6,0 °C 12,9 km/h (3 Bft)
18.11.2020 20:23 21,9 °C 8,6 °C 51 % 82 % 1019,8 hPa 0,0 l/m² 11,5 km/h (2 Bft) SO 144 ° 0 min 0 W/m² 5,7 °C 5,2 °C 16,1 km/h (3 Bft)
18.11.2020 20:26 21,9 °C 8,6 °C 51 % 82 % 1019,8 hPa 0,0 l/m² 11,3 km/h (2 Bft) SO 140 ° 0 min 0 W/m² 5,7 °C 5,3 °C 14,5 km/h (3 Bft)
18.11.2020 20:28 21,9 °C 8,6 °C 51 % 82 % 1019,7 hPa 0,0 l/m² 11,9 km/h (2 Bft) S-SO 167 ° 0 min 0 W/m² 5,7 °C 5,0 °C 17,7 km/h (3 Bft)
18.11.2020 20:30 22,0 °C 8,6 °C 51 % 82 % 1019,7 hPa 0,0 l/m² 11,7 km/h (2 Bft) SO 137 ° 0 min 0 W/m² 5,7 °C 5,1 °C 16,1 km/h (3 Bft)
18.11.2020 20:32 22,0 °C 8,7 °C 51 % 82 % 1019,6 hPa 0,0 l/m² 10,5 km/h (2 Bft) S-SO 165 ° 0 min 0 W/m² 5,8 °C 5,9 °C 14,5 km/h (3 Bft)
18.11.2020 20:33 22,0 °C 8,7 °C 51 % 82 % 1019,6 hPa 0,0 l/m² 12,5 km/h (2 Bft) O-SO 121 ° 0 min 0 W/m² 5,8 °C 4,8 °C 16,1 km/h (3 Bft)
18.11.2020 20:35 22,0 °C 8,7 °C 51 % 81 % 1019,7 hPa 0,0 l/m² 8,3 km/h (2 Bft) S-SO 159 ° 0 min 0 W/m² 5,6 °C 7,3 °C 12,9 km/h (3 Bft)
18.11.2020 20:37 22,0 °C 8,7 °C 51 % 82 % 1019,7 hPa 0,0 l/m² 7,3 km/h (2 Bft) SO 130 ° 0 min 0 W/m² 5,8 °C 8,0 °C 11,3 km/h (2 Bft)
18.11.2020 20:39 22,1 °C 8,7 °C 51 % 81 % 1019,7 hPa 0,0 l/m² 6,1 km/h (2 Bft) SO 146 ° 0 min 0 W/m² 5,6 °C 8,7 °C 8,0 km/h (2 Bft)
18.11.2020 20:41 22,1 °C 8,8 °C 51 % 81 % 1019,6 hPa 0,0 l/m² 6,4 km/h (2 Bft) SO 135 ° 0 min 0 W/m² 5,7 °C 8,8 °C 11,3 km/h (2 Bft)
18.11.2020 20:42 22,1 °C 8,8 °C 51 % 81 % 1019,7 hPa 0,0 l/m² 6,4 km/h (2 Bft) SO 134 ° 0 min 0 W/m² 5,7 °C 8,8 °C 8,0 km/h (2 Bft)
18.11.2020 20:43 22,1 °C 8,8 °C 51 % 81 % 1019,7 hPa 0,0 l/m² 6,7 km/h (2 Bft) SO 137 ° 0 min 0 W/m² 5,7 °C 8,6 °C 8,0 km/h (2 Bft)
18.11.2020 20:45 22,1 °C 8,8 °C 51 % 80 % 1019,6 hPa 0,0 l/m² 8,2 km/h (2 Bft) SO 128 ° 0 min 0 W/m² 5,5 °C 7,5 °C 12,9 km/h (3 Bft)
18.11.2020 20:47 22,1 °C 8,8 °C 51 % 80 % 1019,7 hPa 0,0 l/m² 5,8 km/h (2 Bft) SO 144 ° 0 min 0 W/m² 5,5 °C 8,8 °C 8,0 km/h (2 Bft)
18.11.2020 20:49 22,1 °C 8,8 °C 51 % 80 % 1019,5 hPa 0,0 l/m² 6,1 km/h (2 Bft) SO 134 ° 0 min 0 W/m² 5,5 °C 8,8 °C 8,0 km/h (2 Bft)
18.11.2020 20:51 22,1 °C 8,8 °C 51 % 80 % 1019,5 hPa 0,0 l/m² 7,3 km/h (2 Bft) SO 132 ° 0 min 0 W/m² 5,5 °C 8,1 °C 11,3 km/h (2 Bft)
18.11.2020 20:52 22,1 °C 8,8 °C 51 % 80 % 1019,5 hPa 0,0 l/m² 7,6 km/h (2 Bft) SO 138 ° 0 min 0 W/m² 5,5 °C 7,9 °C 11,3 km/h (2 Bft)
18.11.2020 20:53 22,1 °C 8,8 °C 51 % 80 % 1019,5 hPa 0,0 l/m² 7,4 km/h (2 Bft) O-SO 121 ° 0 min 0 W/m² 5,5 °C 8,0 °C 11,3 km/h (2 Bft)
18.11.2020 20:55 22,2 °C 8,8 °C 51 % 80 % 1019,5 hPa 0,0 l/m² 6,6 km/h (2 Bft) SO 134 ° 0 min 0 W/m² 5,5 °C 8,7 °C 11,3 km/h (2 Bft)
18.11.2020 20:57 22,2 °C 8,8 °C 51 % 79 % 1019,6 hPa 0,0 l/m² 4,3 km/h (1 Bft) SO 134 ° 0 min 0 W/m² 5,4 °C 8,8 °C 6,4 km/h (2 Bft)
18.11.2020 20:59 22,2 °C 8,7 °C 51 % 79 % 1019,6 hPa 0,0 l/m² 4,0 km/h (1 Bft) SO 132 ° 0 min 0 W/m² 5,3 °C 8,7 °C 6,4 km/h (2 Bft)
18.11.2020 21:01 22,2 °C 8,6 °C 51 % 80 % 1019,6 hPa 0,0 l/m² 3,7 km/h (1 Bft) O-SO 113 ° 0 min 0 W/m² 5,3 °C 8,6 °C 4,8 km/h (1 Bft)
18.11.2020 21:02 22,3 °C 8,6 °C 51 % 80 % 1019,6 hPa 0,0 l/m² 4,8 km/h (1 Bft) O-SO 105 ° 0 min 0 W/m² 5,3 °C 8,6 °C 6,4 km/h (2 Bft)
18.11.2020 21:03 22,3 °C 8,6 °C 51 % 80 % 1019,6 hPa 0,0 l/m² 4,0 km/h (1 Bft) O-SO 105 ° 0 min 0 W/m² 5,3 °C 8,6 °C 4,8 km/h (1 Bft)
18.11.2020 21:05 22,3 °C 8,5 °C 51 % 80 % 1019,6 hPa 0,0 l/m² 2,9 km/h (1 Bft) O-SO 105 ° 0 min 0 W/m² 5,3 °C 8,5 °C 4,8 km/h (1 Bft)
18.11.2020 21:07 22,3 °C 8,4 °C 51 % 80 % 1019,6 hPa 0,0 l/m² 3,4 km/h (1 Bft) O-SO 105 ° 0 min 0 W/m² 5,2 °C 8,4 °C 4,8 km/h (1 Bft)
18.11.2020 21:09 22,3 °C 8,3 °C 51 % 80 % 1019,5 hPa 0,0 l/m² 3,8 km/h (1 Bft) O-SO 120 ° 0 min 0 W/m² 5,1 °C 8,3 °C 4,8 km/h (1 Bft)
18.11.2020 21:11 22,3 °C 8,3 °C 51 % 80 % 1019,6 hPa 0,0 l/m² 2,4 km/h (1 Bft) O-SO 120 ° 0 min 0 W/m² 5,1 °C 8,3 °C 3,2 km/h (1 Bft)
18.11.2020 21:12 22,3 °C 8,3 °C 51 % 80 % 1019,6 hPa 0,0 l/m² 2,1 km/h (1 Bft) O-SO 120 ° 0 min 0 W/m² 5,1 °C 8,3 °C 3,2 km/h (1 Bft)
18.11.2020 21:13 22,3 °C 8,3 °C 51 % 80 % 1019,6 hPa 0,0 l/m² 1,2 km/h (1 Bft) O-SO 120 ° 0 min 0 W/m² 5,1 °C 8,3 °C 1,6 km/h (1 Bft)
18.11.2020 21:15 22,3 °C 8,2 °C 51 % 81 % 1019,5 hPa 0,0 l/m² 2,3 km/h (1 Bft) O-SO 113 ° 0 min 0 W/m² 5,1 °C 8,2 °C 3,2 km/h (1 Bft)
18.11.2020 21:17 22,3 °C 8,2 °C 51 % 81 % 1019,6 hPa 0,0 l/m² 2,6 km/h (1 Bft) O-SO 113 ° 0 min 0 W/m² 5,1 °C 8,2 °C 4,8 km/h (1 Bft)
18.11.2020 21:19 22,3 °C 8,1 °C 51 % 81 % 1019,6 hPa 0,0 l/m² 3,3 km/h (1 Bft) O-SO 115 ° 0 min 0 W/m² 5,0 °C 8,1 °C 4,8 km/h (1 Bft)
18.11.2020 21:21 22,3 °C 7,9 °C 51 % 80 % 1019,5 hPa 0,0 l/m² 3,5 km/h (1 Bft) SO 142 ° 0 min 0 W/m² 4,7 °C 7,9 °C 4,8 km/h (1 Bft)
18.11.2020 21:22 22,3 °C 7,9 °C 51 % 80 % 1019,5 hPa 0,0 l/m² 4,0 km/h (1 Bft) SO 142 ° 0 min 0 W/m² 4,7 °C 7,9 °C 4,8 km/h (1 Bft)
18.11.2020 21:23 22,3 °C 7,8 °C 51 % 80 % 1019,5 hPa 0,0 l/m² 3,7 km/h (1 Bft) SO 141 ° 0 min 0 W/m² 4,6 °C 7,8 °C 4,8 km/h (1 Bft)
18.11.2020 21:26 22,4 °C 7,6 °C 51 % 81 % 1019,5 hPa 0,0 l/m² 3,9 km/h (1 Bft) SO 135 ° 0 min 0 W/m² 4,6 °C 7,6 °C 6,4 km/h (2 Bft)
18.11.2020 21:28 22,4 °C 7,4 °C 51 % 81 % 1019,4 hPa 0,0 l/m² 4,9 km/h (1 Bft) S-SO 162 ° 0 min 0 W/m² 4,4 °C 7,4 °C 8,0 km/h (2 Bft)
18.11.2020 21:30 22,4 °C 7,2 °C 51 % 82 % 1019,4 hPa 0,0 l/m² 5,4 km/h (2 Bft) SO 144 ° 0 min 0 W/m² 4,3 °C 7,2 °C 8,0 km/h (2 Bft)
18.11.2020 21:32 22,4 °C 7,1 °C 51 % 82 % 1019,4 hPa 0,0 l/m² 5,2 km/h (1 Bft) SO 146 ° 0 min 0 W/m² 4,2 °C 7,1 °C 6,4 km/h (2 Bft)
18.11.2020 21:33 22,4 °C 7,1 °C 51 % 82 % 1019,4 hPa 0,0 l/m² 5,5 km/h (2 Bft) S-SO 147 ° 0 min 0 W/m² 4,2 °C 7,1 °C 6,4 km/h (2 Bft)
18.11.2020 21:35 22,4 °C 6,9 °C 51 % 83 % 1019,4 hPa 0,0 l/m² 5,5 km/h (2 Bft) S-SO 163 ° 0 min 0 W/m² 4,2 °C 6,9 °C 8,0 km/h (2 Bft)
18.11.2020 21:37 22,4 °C 6,9 °C 51 % 83 % 1019,4 hPa 0,0 l/m² 5,3 km/h (1 Bft) S 178 ° 0 min 0 W/m² 4,2 °C 6,9 °C 8,0 km/h (2 Bft)
18.11.2020 21:39 22,5 °C 6,8 °C 51 % 84 % 1019,4 hPa 0,0 l/m² 5,3 km/h (1 Bft) S-SO 154 ° 0 min 0 W/m² 4,3 °C 6,8 °C 6,4 km/h (2 Bft)
18.11.2020 21:41 22,5 °C 6,8 °C 51 % 84 % 1019,2 hPa 0,0 l/m² 4,8 km/h (1 Bft) S-SO 150 ° 0 min 0 W/m² 4,3 °C 6,8 °C 9,7 km/h (2 Bft)
18.11.2020 21:42 22,5 °C 6,8 °C 51 % 84 % 1019,2 hPa 0,0 l/m² 4,6 km/h (1 Bft) S-SO 150 ° 0 min 0 W/m² 4,3 °C 6,8 °C 6,4 km/h (2 Bft)
18.11.2020 21:43 22,5 °C 6,8 °C 51 % 84 % 1019,2 hPa 0,0 l/m² 5,4 km/h (2 Bft) S 170 ° 0 min 0 W/m² 4,3 °C 6,8 °C 8,0 km/h (2 Bft)
18.11.2020 21:45 22,5 °C 6,8 °C 51 % 84 % 1019,2 hPa 0,0 l/m² 4,1 km/h (1 Bft) S 170 ° 0 min 0 W/m² 4,3 °C 6,8 °C 8,0 km/h (2 Bft)
18.11.2020 21:46 22,5 °C 6,8 °C 51 % 84 % 1019,2 hPa 0,0 l/m² 2,9 km/h (1 Bft) S 171 ° 0 min 0 W/m² 4,3 °C 6,8 °C 6,4 km/h (2 Bft)
18.11.2020 21:49 22,6 °C 6,7 °C 51 % 84 % 1018,9 hPa 0,0 l/m² 3,9 km/h (1 Bft) S-SO 155 ° 0 min 0 W/m² 4,2 °C 6,7 °C 9,7 km/h (2 Bft)
18.11.2020 21:50 22,6 °C 6,7 °C 51 % 84 % 1018,8 hPa 0,0 l/m² 6,7 km/h (2 Bft) S-SO 167 ° 0 min 0 W/m² 4,2 °C 6,5 °C 9,7 km/h (2 Bft)
18.11.2020 21:51 22,6 °C 6,7 °C 51 % 84 % 1018,8 hPa 0,0 l/m² 6,6 km/h (2 Bft) S 170 ° 0 min 0 W/m² 4,2 °C 6,6 °C 9,7 km/h (2 Bft)
18.11.2020 21:52 22,6 °C 6,7 °C 51 % 84 % 1018,9 hPa 0,0 l/m² 8,7 km/h (2 Bft) S-SO 165 ° 0 min 0 W/m² 4,2 °C 4,9 °C 9,7 km/h (2 Bft)
18.11.2020 21:54 22,6 °C 6,7 °C 51 % 84 % 1018,9 hPa 0,0 l/m² 8,7 km/h (2 Bft) S 177 ° 0 min 0 W/m² 4,2 °C 4,9 °C 11,3 km/h (2 Bft)
18.11.2020 21:56 22,6 °C 6,6 °C 51 % 84 % 1018,8 hPa 0,0 l/m² 7,2 km/h (2 Bft) S-SO 165 ° 0 min 0 W/m² 4,1 °C 5,9 °C 9,7 km/h (2 Bft)
18.11.2020 21:58 22,6 °C 6,6 °C 51 % 84 % 1018,7 hPa 0,0 l/m² 4,8 km/h (1 Bft) S 169 ° 0 min 0 W/m² 4,1 °C 6,6 °C 8,0 km/h (2 Bft)
18.11.2020 22:00 22,6 °C 6,6 °C 51 % 84 % 1018,8 hPa 0,0 l/m² 2,9 km/h (1 Bft) S-SO 168 ° 0 min 0 W/m² 4,1 °C 6,6 °C 6,4 km/h (2 Bft)
18.11.2020 22:02 22,6 °C 6,6 °C 51 % 84 % 1018,8 hPa 0,0 l/m² 0,5 km/h (0 Bft) S-SO 168 ° 0 min 0 W/m² 4,1 °C 6,6 °C 1,6 km/h (1 Bft)
18.11.2020 22:03 22,6 °C 6,5 °C 51 % 84 % 1018,8 hPa 0,0 l/m² 0,3 km/h (0 Bft) S-SO 168 ° 0 min 0 W/m² 4,0 °C 6,5 °C 1,6 km/h (1 Bft)
18.11.2020 22:05 22,6 °C 6,6 °C 51 % 85 % 1018,8 hPa 0,0 l/m² 0,1 km/h (0 Bft) S-SO 168 ° 0 min 0 W/m² 4,3 °C 6,6 °C 1,6 km/h (1 Bft)
18.11.2020 22:07 22,6 °C 6,5 °C 51 % 85 % 1018,8 hPa 0,0 l/m² 1,2 km/h (1 Bft) S-SO 168 ° 0 min 0 W/m² 4,2 °C 6,5 °C 1,6 km/h (1 Bft)
18.11.2020 22:09 22,6 °C 6,5 °C 51 % 85 % 1018,8 hPa 0,0 l/m² 1,6 km/h (1 Bft) S-SO 168 ° 0 min 0 W/m² 4,2 °C 6,5 °C 3,2 km/h (1 Bft)
18.11.2020 22:11 22,7 °C 6,5 °C 51 % 85 % 1018,8 hPa 0,0 l/m² 2,5 km/h (1 Bft) SW 214 ° 0 min 0 W/m² 4,2 °C 6,5 °C 3,2 km/h (1 Bft)
18.11.2020 22:12 22,6 °C 6,4 °C 51 % 85 % 1018,8 hPa 0,0 l/m² 2,7 km/h (1 Bft) W 264 ° 0 min 0 W/m² 4,1 °C 6,4 °C 4,8 km/h (1 Bft)
18.11.2020 22:13 22,6 °C 6,5 °C 51 % 85 % 1018,8 hPa 0,0 l/m² 3,9 km/h (1 Bft) W-NW 290 ° 0 min 0 W/m² 4,2 °C 6,5 °C 4,8 km/h (1 Bft)
18.11.2020 22:15 22,6 °C 6,4 °C 51 % 85 % 1018,8 hPa 0,0 l/m² 2,8 km/h (1 Bft) W-NW 291 ° 0 min 0 W/m² 4,1 °C 6,4 °C 4,8 km/h (1 Bft)
18.11.2020 22:17 22,6 °C 6,4 °C 51 % 85 % 1018,8 hPa 0,0 l/m² 1,3 km/h (1 Bft) W-NW 291 ° 0 min 0 W/m² 4,1 °C 6,4 °C 3,2 km/h (1 Bft)
18.11.2020 22:19 22,6 °C 6,4 °C 51 % 85 % 1018,8 hPa 0,0 l/m² 2,4 km/h (1 Bft) W-SW 242 ° 0 min 0 W/m² 4,1 °C 6,4 °C 8,0 km/h (2 Bft)
18.11.2020 22:21 22,7 °C 6,4 °C 51 % 85 % 1018,8 hPa 0,0 l/m² 2,2 km/h (1 Bft) W-SW 241 ° 0 min 0 W/m² 4,1 °C 6,4 °C 3,2 km/h (1 Bft)
18.11.2020 22:22 22,6 °C 6,3 °C 51 % 85 % 1018,8 hPa 0,0 l/m² 1,6 km/h (1 Bft) W-SW 241 ° 0 min 0 W/m² 4,0 °C 6,3 °C 3,2 km/h (1 Bft)
18.11.2020 22:23 22,6 °C 6,4 °C 51 % 85 % 1018,8 hPa 0,0 l/m² 1,4 km/h (1 Bft) W-SW 238 ° 0 min 0 W/m² 4,1 °C 6,4 °C 3,2 km/h (1 Bft)
18.11.2020 22:25 22,7 °C 6,3 °C 51 % 85 % 1018,7 hPa 0,0 l/m² 0,4 km/h (0 Bft) W-SW 238 ° 0 min 0 W/m² 4,0 °C 6,3 °C 3,2 km/h (1 Bft)
18.11.2020 22:27 22,7 °C 6,4 °C 51 % 85 % 1018,8 hPa 0,0 l/m² 1,6 km/h (1 Bft) S-SO 148 ° 0 min 0 W/m² 4,1 °C 6,4 °C 6,4 km/h (2 Bft)
18.11.2020 22:29 22,6 °C 6,3 °C 51 % 85 % 1018,7 hPa 0,0 l/m² 1,9 km/h (1 Bft) S-SO 153 ° 0 min 0 W/m² 4,0 °C 6,3 °C 6,4 km/h (2 Bft)
18.11.2020 22:31 22,7 °C 6,3 °C 51 % 85 % 1018,7 hPa 0,0 l/m² 3,7 km/h (1 Bft) S-SO 162 ° 0 min 0 W/m² 4,0 °C 6,3 °C 8,0 km/h (2 Bft)
18.11.2020 22:32 22,7 °C 6,3 °C 51 % 85 % 1018,6 hPa 0,0 l/m² 5,4 km/h (2 Bft) S 184 ° 0 min 0 W/m² 4,0 °C 6,3 °C 9,7 km/h (2 Bft)
18.11.2020 22:33 22,7 °C 6,3 °C 51 % 85 % 1018,6 hPa 0,0 l/m² 3,7 km/h (1 Bft) S-SW 211 ° 0 min 0 W/m² 4,0 °C 6,3 °C 6,4 km/h (2 Bft)
18.11.2020 22:35 22,7 °C 6,3 °C 51 % 85 % 1018,6 hPa 0,0 l/m² 4,9 km/h (1 Bft) S 180 ° 0 min 0 W/m² 4,0 °C 6,3 °C 8,0 km/h (2 Bft)
18.11.2020 22:37 22,7 °C 6,3 °C 51 % 85 % 1018,4 hPa 0,0 l/m² 7,4 km/h (2 Bft) S-SO 166 ° 0 min 0 W/m² 4,0 °C 5,5 °C 11,3 km/h (2 Bft)
18.11.2020 22:39 22,6 °C 6,3 °C 51 % 85 % 1018,5 hPa 0,0 l/m² 9,2 km/h (2 Bft) S-SO 167 ° 0 min 0 W/m² 4,0 °C 4,1 °C 12,9 km/h (3 Bft)
18.11.2020 22:41 22,7 °C 6,4 °C 50 % 86 % 1018,4 hPa 0,0 l/m² 12,2 km/h (2 Bft) S-SO 155 ° 0 min 0 W/m² 4,2 °C 2,3 °C 17,7 km/h (3 Bft)
18.11.2020 22:42 22,6 °C 6,4 °C 51 % 86 % 1018,4 hPa 0,0 l/m² 10,9 km/h (2 Bft) S 171 ° 0 min 0 W/m² 4,2 °C 3,0 °C 17,7 km/h (3 Bft)
18.11.2020 22:43 22,6 °C 6,5 °C 51 % 86 % 1018,4 hPa 0,0 l/m² 11,0 km/h (2 Bft) S 182 ° 0 min 0 W/m² 4,3 °C 3,1 °C 14,5 km/h (3 Bft)
18.11.2020 22:45 22,6 °C 6,6 °C 51 % 86 % 1018,3 hPa 0,0 l/m² 10,1 km/h (2 Bft) S 173 ° 0 min 0 W/m² 4,4 °C 3,8 °C 14,5 km/h (3 Bft)
18.11.2020 22:47 22,6 °C 6,7 °C 51 % 86 % 1018,4 hPa 0,0 l/m² 10,2 km/h (2 Bft) S 175 ° 0 min 0 W/m² 4,5 °C 3,8 °C 14,5 km/h (3 Bft)
18.11.2020 22:49 22,6 °C 6,8 °C 51 % 86 % 1018,3 hPa 0,0 l/m² 10,8 km/h (2 Bft) S 177 ° 0 min 0 W/m² 4,6 °C 3,5 °C 16,1 km/h (3 Bft)
18.11.2020 22:51 22,6 °C 6,9 °C 51 % 86 % 1018,3 hPa 0,0 l/m² 8,8 km/h (2 Bft) S 183 ° 0 min 0 W/m² 4,7 °C 5,0 °C 12,9 km/h (3 Bft)
18.11.2020 22:52 22,6 °C 6,9 °C 51 % 86 % 1018,4 hPa 0,0 l/m² 9,1 km/h (2 Bft) S 184 ° 0 min 0 W/m² 4,7 °C 4,8 °C 16,1 km/h (3 Bft)
18.11.2020 22:53 22,6 °C 6,9 °C 51 % 86 % 1018,4 hPa 0,0 l/m² 8,6 km/h (2 Bft) S-SO 161 ° 0 min 0 W/m² 4,7 °C 5,1 °C 11,3 km/h (2 Bft)
18.11.2020 22:55 22,6 °C 7,1 °C 51 % 85 % 1018,3 hPa 0,0 l/m² 9,8 km/h (2 Bft) S-SO 166 ° 0 min 0 W/m² 4,8 °C 4,5 °C 14,5 km/h (3 Bft)
18.11.2020 22:57 22,6 °C 7,2 °C 51 % 85 % 1018,3 hPa 0,0 l/m² 8,7 km/h (2 Bft) S-SO 167 ° 0 min 0 W/m² 4,9 °C 5,4 °C 16,1 km/h (3 Bft)
18.11.2020 22:59 22,6 °C 7,2 °C 51 % 85 % 1018,2 hPa 0,0 l/m² 10,8 km/h (2 Bft) S 176 ° 0 min 0 W/m² 4,9 °C 4,0 °C 16,1 km/h (3 Bft)
18.11.2020 23:01 22,6 °C 7,3 °C 51 % 84 % 1018,2 hPa 0,0 l/m² 10,4 km/h (2 Bft) S-SO 155 ° 0 min 0 W/m² 4,8 °C 4,4 °C 16,1 km/h (3 Bft)
18.11.2020 23:02 22,6 °C 7,4 °C 51 % 84 % 1018,2 hPa 0,0 l/m² 7,9 km/h (2 Bft) S-SO 157 ° 0 min 0 W/m² 4,9 °C 6,2 °C 11,3 km/h (2 Bft)
18.11.2020 23:03 22,6 °C 7,4 °C 51 % 84 % 1018,2 hPa 0,0 l/m² 11,4 km/h (2 Bft) S 174 ° 0 min 0 W/m² 4,9 °C 3,9 °C 14,5 km/h (3 Bft)
18.11.2020 23:05 22,6 °C 7,5 °C 51 % 84 % 1018,1 hPa 0,0 l/m² 9,9 km/h (2 Bft) S-SO 161 ° 0 min 0 W/m² 5,0 °C 4,9 °C 16,1 km/h (3 Bft)
18.11.2020 23:07 22,6 °C 7,6 °C 51 % 84 % 1018,0 hPa 0,0 l/m² 8,8 km/h (2 Bft) S 171 ° 0 min 0 W/m² 5,1 °C 5,7 °C 14,5 km/h (3 Bft)
18.11.2020 23:09 22,6 °C 7,6 °C 51 % 84 % 1018,1 hPa 0,0 l/m² 8,0 km/h (2 Bft) S-SO 167 ° 0 min 0 W/m² 5,1 °C 6,3 °C 12,9 km/h (3 Bft)
18.11.2020 23:11 22,5 °C 7,6 °C 51 % 83 % 1018,0 hPa 0,0 l/m² 7,8 km/h (2 Bft) S-SO 153 ° 0 min 0 W/m² 4,9 °C 6,5 °C 9,7 km/h (2 Bft)
18.11.2020 23:12 22,5 °C 7,7 °C 51 % 83 % 1018,0 hPa 0,0 l/m² 8,5 km/h (2 Bft) S-SO 162 ° 0 min 0 W/m² 5,0 °C 6,1 °C 9,7 km/h (2 Bft)
18.11.2020 23:13 22,5 °C 7,7 °C 51 % 83 % 1018,0 hPa 0,0 l/m² 7,6 km/h (2 Bft) S-SO 152 ° 0 min 0 W/m² 5,0 °C 6,7 °C 9,7 km/h (2 Bft)
18.11.2020 23:15 22,5 °C 7,7 °C 51 % 83 % 1018,0 hPa 0,0 l/m² 6,8 km/h (2 Bft) S 169 ° 0 min 0 W/m² 5,0 °C 7,4 °C 8,0 km/h (2 Bft)
18.11.2020 23:16 22,5 °C 7,7 °C 51 % 83 % 1018,0 hPa 0,0 l/m² 3,2 km/h (1 Bft) S 180 ° 0 min 0 W/m² 5,0 °C 7,7 °C 6,4 km/h (2 Bft)
18.11.2020 23:23 22,4 °C 7,8 °C 51 % 82 % 1017,9 hPa 0,0 l/m² 8,9 km/h (2 Bft) S-SO 165 ° 0 min 0 W/m² 4,9 °C 5,9 °C 12,9 km/h (3 Bft)
18.11.2020 23:24 22,5 °C 7,8 °C 51 % 82 % 1017,9 hPa 0,0 l/m² 6,3 km/h (2 Bft) S 172 ° 0 min 0 W/m² 4,9 °C 7,8 °C 9,7 km/h (2 Bft)
18.11.2020 23:25 22,4 °C 7,8 °C 51 % 82 % 1017,9 hPa 0,0 l/m² 6,2 km/h (2 Bft) S-SO 158 ° 0 min 0 W/m² 4,9 °C 7,8 °C 8,0 km/h (2 Bft)
18.11.2020 23:26 22,4 °C 7,8 °C 51 % 82 % 1017,9 hPa 0,0 l/m² 5,4 km/h (2 Bft) S-SO 154 ° 0 min 0 W/m² 4,9 °C 7,8 °C 8,0 km/h (2 Bft)
18.11.2020 23:27 22,4 °C 7,8 °C 51 % 82 % 1017,9 hPa 0,0 l/m² 3,5 km/h (1 Bft) S-SO 162 ° 0 min 0 W/m² 4,9 °C 7,8 °C 6,4 km/h (2 Bft)
18.11.2020 23:29 22,4 °C 7,8 °C 51 % 82 % 1017,9 hPa 0,0 l/m² 4,4 km/h (1 Bft) SO 144 ° 0 min 0 W/m² 4,9 °C 7,8 °C 8,0 km/h (2 Bft)
18.11.2020 23:30 22,4 °C 7,8 °C 51 % 82 % 1017,9 hPa 0,0 l/m² 3,1 km/h (1 Bft) S-SO 151 ° 0 min 0 W/m² 4,9 °C 7,8 °C 4,8 km/h (1 Bft)
18.11.2020 23:31 22,4 °C 7,8 °C 51 % 82 % 1017,9 hPa 0,0 l/m² 2,2 km/h (1 Bft) S-SO 163 ° 0 min 0 W/m² 4,9 °C 7,8 °C 4,8 km/h (1 Bft)
18.11.2020 23:33 22,4 °C 7,8 °C 51 % 82 % 1017,8 hPa 0,0 l/m² 3,7 km/h (1 Bft) SO 142 ° 0 min 0 W/m² 4,9 °C 7,8 °C 8,0 km/h (2 Bft)
18.11.2020 23:34 22,4 °C 7,8 °C 51 % 82 % 1017,8 hPa 0,0 l/m² 5,0 km/h (1 Bft) S-SO 156 ° 0 min 0 W/m² 4,9 °C 7,8 °C 8,0 km/h (2 Bft)
18.11.2020 23:36 22,4 °C 7,8 °C 51 % 81 % 1017,9 hPa 0,0 l/m² 4,2 km/h (1 Bft) SO 142 ° 0 min 0 W/m² 4,7 °C 7,8 °C 8,0 km/h (2 Bft)
18.11.2020 23:37 22,4 °C 7,8 °C 51 % 81 % 1017,8 hPa 0,0 l/m² 4,5 km/h (1 Bft) S-SO 162 ° 0 min 0 W/m² 4,7 °C 7,8 °C 6,4 km/h (2 Bft)
18.11.2020 23:39 22,4 °C 7,8 °C 51 % 81 % 1017,8 hPa 0,0 l/m² 7,3 km/h (2 Bft) S-SO 161 ° 0 min 0 W/m² 4,7 °C 7,1 °C 12,9 km/h (3 Bft)
18.11.2020 23:41 22,4 °C 7,8 °C 51 % 81 % 1017,7 hPa 0,0 l/m² 6,3 km/h (2 Bft) S-SO 168 ° 0 min 0 W/m² 4,7 °C 7,8 °C 9,7 km/h (2 Bft)
18.11.2020 23:43 22,4 °C 7,8 °C 51 % 81 % 1017,7 hPa 0,0 l/m² 7,3 km/h (2 Bft) S-SO 165 ° 0 min 0 W/m² 4,7 °C 7,1 °C 9,7 km/h (2 Bft)
18.11.2020 23:45 22,4 °C 7,8 °C 51 % 81 % 1017,6 hPa 0,0 l/m² 7,0 km/h (2 Bft) SO 144 ° 0 min 0 W/m² 4,7 °C 7,3 °C 12,9 km/h (3 Bft)
18.11.2020 23:47 22,4 °C 7,8 °C 51 % 81 % 1017,6 hPa 0,0 l/m² 7,3 km/h (2 Bft) S-SO 161 ° 0 min 0 W/m² 4,7 °C 7,1 °C 9,7 km/h (2 Bft)
18.11.2020 23:49 22,4 °C 7,8 °C 51 % 81 % 1017,6 hPa 0,0 l/m² 6,9 km/h (2 Bft) SO 144 ° 0 min 0 W/m² 4,7 °C 7,4 °C 9,7 km/h (2 Bft)
18.11.2020 23:50 22,4 °C 7,8 °C 51 % 81 % 1017,7 hPa 0,0 l/m² 5,3 km/h (1 Bft) S 173 ° 0 min 0 W/m² 4,7 °C 7,8 °C 8,0 km/h (2 Bft)
18.11.2020 23:51 22,4 °C 7,8 °C 51 % 81 % 1017,7 hPa 0,0 l/m² 5,5 km/h (2 Bft) S 184 ° 0 min 0 W/m² 4,7 °C 7,8 °C 9,7 km/h (2 Bft)
18.11.2020 23:53 22,4 °C 7,8 °C 51 % 81 % 1017,7 hPa 0,0 l/m² 5,6 km/h (2 Bft) S 171 ° 0 min 0 W/m² 4,7 °C 7,8 °C 9,7 km/h (2 Bft)
18.11.2020 23:55 22,4 °C 7,8 °C 51 % 81 % 1017,8 hPa 0,0 l/m² 6,1 km/h (2 Bft) S-SO 162 ° 0 min 0 W/m² 4,7 °C 7,8 °C 11,3 km/h (2 Bft)
18.11.2020 23:57 22,4 °C 7,8 °C 51 % 81 % 1017,6 hPa 0,0 l/m² 7,0 km/h (2 Bft) S-SO 165 ° 0 min 0 W/m² 4,7 °C 7,3 °C 14,5 km/h (3 Bft)
18.11.2020 23:59 22,4 °C 7,8 °C 51 % 81 % 1017,6 hPa 0,0 l/m² 7,1 km/h (2 Bft) SO 142 ° 0 min 0 W/m² 4,7 °C 7,2 °C 9,7 km/h (2 Bft)
_ Min-Zeit 08:09 22:39 07:45 20:59 23:59 - 17:49 - - - - 22:39 22:41 17:49
Minimum _ 20,2 °C 6,3 °C 43 % 79 % 1017,6 hPa - 0,0 km/h (0 Bft) - - - - 4,0 °C 2,3 °C 0,0 km/h (0 Bft)
_ Max-Zeit 22:41 14:09 07:04 18:00 04:19 23:59 12:03 - - 15:29 14:07 14:05 15:07 12:51
Maximum _ 22,7 °C 13,0 °C 52 % 89 % 1027,1 hPa 0,0 l/m² 18,0 km/h
SW (3 Bft)
- - 2 min 279 W/m² 9,7 °C 12,7 °C 25,7 km/h
S (4 Bft)
Durchschnitt _ 22,0 °C 9,9 °C 50 % 85 % 1024,0 hPa #0,0 l/m² 6,5 km/h (2 Bft) S - #6:24 h 29 W/m² 7,5 °C 9,0 °C 9,3 km/h (2 Bft)
© 2009 Mathias Hoßbach